     2              OBSERVATION DATA    GPS                 RINEX VERSION / TYPE
TRRINEXO V2.4.6 UX                                          PGM / RUN BY / DATE
                                                            COMMENT
Original Marker Name: coac                                  COMMENT
Campaign Name: STRC 1995                                    COMMENT
4-Character Station Name: COAC                              COMMENT
6-Character Antenna Code: TRMSST                            COMMENT
Vertical Measurement Point: TGP                             COMMENT
Vertical Offset to Rinex Ref. Point: 0.0629                 COMMENT
Radial Measurement Point: NGP                               COMMENT
Radial Offset to Rinex Ref. Point: 0.2334                   COMMENT
Antenna Height from Field Measurement: 1.5160 m             COMMENT
Original XYZ: -2292236.7425 -4825912.8733 3472241.5437      COMMENT
New XYZ position is based on association with SCEC monument COMMENT
E1D0I5P7+0012. Position of that monument is believed to be  COMMENT
valid to within 1 m horizontally; vertical accuracy         COMMENT
should be no worse than 3-times this value.                 COMMENT
                                                            COMMENT
Revised Rinex header created by UCSD GPS archive for        COMMENT
GSAC on 12-Apr-1999 (1999:102) 05:48:13 GMT                 COMMENT
For assistance contact dagnew@ucsd.edu or hjohnson@ucsd.edu COMMENT
                                                            COMMENT
COACH 1967                                                  MARKER NAME
COACH-2                                                     MARKER NUMBER
M. Chadwick UNAVCO                                          OBSERVER / AGENCY
491 TRIMBLE 4000 SST 4.81                                   REC # / TYPE / VERS
27 TR 4000SST L1/L2 GEO                                     ANT # / TYPE
 -2292214.0000 -4825862.0000  3472186.0000                  APPROX POSITION XYZ
        1.4350        0.0000        0.0000                  ANTENNA: DELTA H/E/N
     1     2     0                                          WAVELENGTH FACT L1/2
     3    C1    L1    L2                                    # / TYPES OF OBSERV
    30                                                      INTERVAL
  1995     2    19    16     0   30.000000                  TIME OF FIRST OBS
  1995     2    19    23    59   60.000000                  TIME OF LAST OBS
     0                                                      # OF SATELLITES
                                                            END OF HEADER
 95  2 19 16  0 30.0000000  0  6 25  1 14 15 22 29
  21618381.555          -0.36417
  24840722.156          -0.84314
  21520888.031          -0.50817
  22026530.461          -0.53316
  22813588.242          -0.26415
  23262367.484          -0.60616
 95  2 19 16  1  0.0000000  0  6 25  1 14 15 22 29
  21623386.211       26303.520 7        -0.34619
  24847563.836       35959.518 4
  21501470.852     -102040.631 7        -0.06118
  22032959.242       33792.981 6        -0.31917
  22791431.148     -116402.168 5
  23244641.195      -93175.975 6
 95  2 19 16  1 30.0000000  0  6 25  1 14 15 22 29
  21628425.328       52776.642 7     20628.042 9
  24854377.273       71763.558 5        -0.21215
  21482075.281     -203954.009 7    -79413.081 8
  22039439.336       67844.383 6     26533.202 7
  22769304.305     -232691.819 5        -0.24216
  23226882.523     -186469.601 6        -0.37215
 95  2 19 16  2  0.0000000  0  6 25  1 14 15 22 29
  21633493.258       79425.978 7     41393.733 9
  24861160.781      107395.686 5     27765.006 5
  21462703.430     -305756.392 7   -158739.617 8
  22045968.656      102137.161 6     53254.793 7
  22747194.484     -348882.194 5    -90538.161 6
  23209109.938     -279885.825 6    -72792.206 5
 95  2 19 16  2 30.0000000  0  6 25  1 14 15 22 29
  21638600.680      106252.833 7     62297.760 9
  24867902.625      142838.808 5     55382.961 5
  21443355.328     -407436.732 7   -237971.049 9
  22052535.164      136665.716 6     80160.112 7
  22725098.414     -464989.111 6   -181011.052 6
  23191310.156     -373408.453 6   -145666.974 5
 95  2 19 16  3  0.0000000  0  6 25  1 14 15 22 29
  21643742.305      133271.190 7     83351.005 9
  24874615.938      178116.190 5     82871.733 5
  21424035.836     -508961.061 7   -317080.920 9
  22059156.664      171449.153 6    107264.048 7
  22703023.812     -581000.397 6   -271409.422 6
  23173500.359     -466999.891 5   -218595.346 5
 95  2 19 16  3 30.0000000  0  6 25  1 14 15 22 29
  21648920.133      160484.262 7    104555.983 9
  24881298.102      213236.072 5
  21404748.922     -610316.902 7   -396059.500 9
  22065822.039      206493.363 6    134571.186 7
  22680964.445     -696915.295 6   -361732.689 6
  23155680.953     -560631.892 5   -291555.330 6
 95  2 19 16  4  0.0000000  0  6 25  1 14 15 22 29
  21654130.266      187866.581 7    125892.833 9
  24887950.461      248177.861 5
  21385486.711     -711530.529 7   -474927.254 9
  22072533.125      241772.699 6    162061.548 7
  22658922.773     -812750.569 6   -451993.922 6
  23137855.180     -654334.595 5   -364570.421 6
 95  2 19 16  4 30.0000000  0  6 25  1 14 15 22 29
  21659370.219      215398.951 7    147346.615 9
  24894561.422      282958.176 5        -0.47415
  21366253.195     -812596.935 7   -553680.303 9
  22079294.812      277287.516 6    189735.399 7
  22636898.227     -928488.139 6   -542179.019 6
  23120003.945     -748120.167 5   -437650.079 6
 95  2 19 16  5  0.0000000  0  6 25  1 14 15 22 29
  21664638.297      243094.889 7    168927.835 9
  24901165.383      317601.064 5     26993.902 4
  21347052.008     -913516.356 7   -632318.815 9
  22086103.492      313044.436 6    217597.878 7
  22614902.836    -1044084.031 6   -632253.723 6
  23102139.938     -841997.499 5   -510801.237 6
 95  2 19 16  5 30.0000000  0  6 25  1 14 15 22 29
  21669941.859      270953.947 7    190636.170 9
  24907727.359      352099.405 5     53875.632 4
  21327871.062    -1014307.093 7   -710857.050 9
  22092949.922      349032.835 6    245640.737 6
  22592933.602    -1159522.264 6   -722205.587 6
  23084255.047     -935993.853 5   -584045.160 6
 95  2 19 16  6  0.0000000  0  6 25  1 14 15 22 29
  21675268.906      298947.428 7    212449.254 9
  24914258.609      386441.976 5     80635.981 3
  21308714.055    -1114983.107 7   -789305.901 9
  22099837.789      385240.710 6    273854.627 6
  22570999.719    -1274794.182 6   -812027.866 6
  23066342.672    -1030120.085 6   -657390.254 6
 95  2 19 16  6 30.0000000  0  6 25  1 14 15 22 29
  21680621.523      327080.431 7    234371.046 9
  24920765.227      420632.788 5    107278.088 4
  21289579.984    -1215528.601 7   -867653.044 9
  22106772.688      421677.269 6    302246.692 6
  22549094.766    -1389884.399 6   -901708.568 6
  23048413.102    -1124342.110 6   -730810.006 6
 95  2 19 16  7  0.0000000  0  6 25  1 14 15 22 29
  21686001.711      355354.239 7    256402.557 9
  24927246.578      454659.219 5    133792.127 4
  21270470.125    -1315947.004 7   -945901.160 9
  22113747.852      458335.743 6    330811.703 6
  22527229.453    -1504809.663 6   -991260.732 6
  23030465.633    -1218648.009 6   -804295.121 6
 95  2 19 16  7 30.0000000  0  6 25  1 14 15 22 29
  21691405.523      383749.716 7    278528.893 9
  24933688.742      488518.566 5    160175.966 3
  21251388.617    -1416222.868 7  -1024038.204 9
  22120769.281      495214.771 6    359548.574 7
  22505389.742    -1619590.999 6  -1080700.738 6
  23012508.141    -1313024.551 6   -877835.276 6
 95  2 19 16  8  0.0000000  0  5 25 14 15 22 29
  21696829.023      412242.687 7    300731.182 9
  21232336.063    -1516346.983 7  -1102056.999 9
  22127820.203      532297.406 6    388444.096 6
  22483564.125    -1734261.223 6  -1170054.159 6
  22994535.859    -1407471.156 6   -951430.015 6
 95  2 19 16  8 30.0000000  0  5 25 14 15 22 29
  21702271.906      440851.256 7    323023.560 9
  21213316.898    -1616298.826 7  -1179941.552 9
  22134920.656      569583.172 6    417497.894 7
  22461766.391    -1848829.263 6  -1259327.957 6
  22976547.523    -1501989.074 6  -1025080.328 6
 95  2 19 16  9  0.0000000  0  5 25 14 15 22 29
  21707742.922      469602.065 7    345426.771 9
  21194334.383    -1716054.710 7  -1257673.401 9
  22142057.531      607094.725 6    446727.628 7
  22439985.867    -1963272.855 6  -1348504.772 6
  22958553.656    -1596575.567 6  -1098784.081 6
 95  2 19 16  9 30.0000000  0  5 25 14 15 22 29
  21713238.383      498475.033 7    367925.170 9
  21175382.023    -1815638.764 7  -1335271.371 9
  22149230.945      644808.969 6    476115.311 6
  22418231.352    -2077593.781 6  -1437586.008 6
  22940533.031    -1691270.507 5  -1172572.340 6
 95  2 19 16 10  0.0000000  0  5 25 14 15 22 29
  21718765.297      527523.079 7    390559.992 9
  21156468.797    -1915031.057 7  -1412719.901 9
  22156453.867      682756.516 6    505684.782 6
  22396510.883    -2191742.177 6  -1526532.799 6
  22922494.867    -1786049.490 5  -1246426.084 6
 95  2 19 16 10 30.0000000  0  5 25 14 15 22 29
  21724324.602      556742.122 7    413328.060 9
  21137586.961    -2014258.349 7  -1490039.864 9
  22163722.586      720922.093 6    535424.142 6
  22374819.359    -2305709.334 6  -1615338.360 6
  22904441.297    -1880931.302 5  -1320359.950 6
 95  2 19 16 11  0.0000000  0  5 25 14 15 22 29
  21729914.469      586115.038 7    436216.036 9
  21118732.062    -2113341.165 7  -1567247.250 9
  22171024.055      759294.970 6    565325.033 6
  22353173.477    -2419487.891 6  -1703996.959 6
  22886361.133    -1975924.842 5  -1394380.886 6
 95  2 19 16 11 30.0000000  0  5 25 14 15 22 29
  21735531.117      615632.242 7    459216.428 9
  21099904.078    -2212276.161 7  -1644339.455 9
  22178357.992      797860.425 6    595375.994 6
  22331554.367    -2533078.543 6  -1792509.125 6
  22868268.641    -2071027.498 6  -1468486.850 6
 95  2 19 16 12  0.0000000  0  5 25 14 15 22 29
  21741179.117      645314.492 7    482345.431 9
  21081112.844    -2311027.237 7  -1721288.346 9
  22185740.555      836641.145 6    625594.688 6
  22309981.773    -2646459.338 6  -1880857.753 6
  22850156.617    -2166198.669 6  -1542646.190 6
 95  2 19 16 12 30.0000000  0  5 25 14 15 22 29
  21746854.484      675134.526 7    505581.799 9
  21062359.305    -2409599.004 7  -1798097.528 9
  22193156.492      875625.579 6    655972.106 6
  22288440.594    -2759649.548 6  -1969057.873 6
  22832028.047    -2261441.981 6  -1616861.748 6
 95  2 19 16 13  0.0000000  0  5 25 14 15 22 29
  21752551.367      705069.261 7    528907.541 9
  21043631.523    -2507995.625 7  -1874770.227 9
  22200610.977      914802.446 6    686499.502 6
  22266933.859    -2872673.553 6  -2057128.480 6
  22813890.961    -2356760.621 6  -1691136.014 6
 95  2 19 16 13 30.0000000  0  5 25 14 15 22 29
  21758265.516      735103.000 7    552310.434 9
  21024941.102    -2606214.464 7  -1951304.390 9
  22208102.438      954157.623 6    717165.849 6
  22245453.828    -2985555.950 6  -2145088.746 6
  22795737.742    -2452162.900 6  -1765475.446 6
 95  2 19 16 14  0.0000000  0  5 25 14 15 22 29
  21763998.758      765226.199 7    575783.026 9
  21006281.664    -2704264.413 7  -2027706.961 9
  22215621.867      993685.130 6    747966.441 6
  22223997.961    -3098307.320 6  -2232946.910 6
  22777571.172    -2547647.617 6  -1839879.102 6
 95  2 19 16 14 30.0000000  0  5 25 14 15 22 29
  21769745.398      795434.304 7    599321.782 9
  20987658.977    -2802143.934 7  -2103976.714 9
  22223173.492     1033377.664 6    778895.667 6
  22202564.531    -3210930.363 6  -2320705.077 6
  22759379.352    -2643218.021 6  -1914349.538 6
 95  2 19 16 15  0.0000000  0  5 25 14 15 22 29
  21775520.031      825766.841 7    622957.489 9
  20969072.711    -2899799.393 7  -2180071.880 9
  22230768.141     1073258.931 6    809971.927 6
  22181168.898    -3323374.218 6  -2408323.622 6
  22741183.484    -2738849.444 6  -1988867.511 6
 95  2 19 16 15 30.0000000  0  5 25 14 15 22 29
  21781314.875      856225.371 7    646691.394 9
  20950534.297    -2997227.087 7  -2255989.570 9
  22238387.953     1113322.426 6    841190.199 6
  22159811.703    -3435603.465 6  -2495774.946 6
  22722975.562    -2834549.076 6  -2063438.638 6
 95  2 19 16 16  0.0000000  0  5 25 14 15 22 29
  21787137.703      886830.850 7    670539.787 8
  20932038.836    -3094417.782 7  -2331722.576 9
  22246049.883     1153583.971 6    872562.772 6
  22138501.914    -3547569.763 6  -2583021.381 6
  22704752.594    -2930308.736 6  -2138056.542 6
 95  2 19 16 16 30.0000000  0  5 25 14 15 22 29
  21792984.750      917557.899 7    694482.919 8
  20913587.891    -3191385.135 7  -2407281.559 9
  22253749.539     1194018.292 6    904069.978 6
  22117247.633    -3659283.582 6  -2670071.070 6
  22686507.453    -3026158.397 6  -2212744.580 6
 95  2 19 16 17  0.0000000  0  5 25 14 15 22 29
  21798865.000      948451.239 7    718555.616 8
  20895184.164    -3288096.265 7  -2482640.883 9
  22261478.922     1234667.267 6    935744.452 6
  22096044.031    -3770694.887 6  -2756885.045 6
  22668262.461    -3122058.526 6  -2287471.938 6
 95  2 19 16 17 30.0000000  0  5 25 14 15 22 29
  21804763.953      979446.557 7    742707.795 8
  20876811.906    -3384626.909 7  -2557859.575 9
  22269247.039     1275480.213 6    967546.701 6
  22074891.898    -3881871.586 6  -2843516.217 7
  22649991.711    -3218063.796 6  -2362281.227 6
 95  2 19 16 18  0.0000000  0  5 25 14 15 22 29
  21810691.461     1010598.100 7    766981.699 8
  20858491.844    -3480924.003 7
  22277057.117     1316503.245 6    999512.662 6
  22053774.961    -3992806.016 6  -2929958.611 6
  22631712.789    -3314119.453 6
 95  2 19 16 18 30.0000000  0  5 25 14 15 22 29
  21816657.203     1041948.739 7    791410.742 8
  20840220.930    -3576930.951 7
  22284906.500     1357777.442 6   1031674.323 6
  22032723.602    -4103474.108 6  -3016193.464 7
  22613433.570    -3410163.805 6
 95  2 19 16 19  0.0000000  0  5 25 14 15 22 29
  21822647.711     1073434.541 7    815945.101 8
  20821995.648    -3672712.378 7  -2782341.787 9
  22292799.148     1399237.935 6   1063981.159 6
  22011697.758    -4213935.233 6  -3102267.042 6
  22595147.289    -3506266.998 6  -2586855.136 6
 95  2 19 16 19 30.0000000  0  5 25 14 15 22 29
  21828658.820     1105011.913 7    840550.817 8
  20803804.281    -3768289.211 7  -2856817.251 9
  22300712.805     1440839.647 6   1096398.038 6
  21990713.078    -4324229.526 6  -3188210.630 6
  22576845.070    -3602464.109 6  -2661813.907 6
 95  2 19 16 20  0.0000000  0  5 25 14 15 22 29
  21834689.070     1136709.563 7    865250.254 8
  20785665.695    -3863622.036 7  -2931102.569 9
  22308666.164     1482601.865 6   1128939.974 6
  21969761.555    -4434317.665 6  -3273993.565 6
  22558525.516    -3698724.677 6  -2736822.133 6
 95  2 19 16 20 29.9990000  0  5 25 14 15 22 29
  21840735.878     1168472.006 7    890000.178 8
  20767564.347    -3958747.947 7  -3005226.666 9
  22316629.487     1524484.092 6   1161575.406 6
  21948855.229    -4544196.730 6  -3359613.604 6
  22540183.667    -3795092.924 6  -2811914.267 6
 95  2 19 16 20 59.9990000  0  5 25 14 15 22 29
  21846792.378     1200305.164 7    914805.202 8
  20749502.565    -4053658.161 7  -3079182.680 9
  22324624.917     1566498.173 6   1194313.597 6
  21927988.542    -4653843.866 6  -3445052.916 7
  22521825.901    -3891575.791 6  -2887095.707 6
 95  2 19 16 21 29.9990000  0  5 25 14 15 22 29
  21852858.300     1232185.771 7    939647.194 8
  20731482.011    -4148364.159 7  -3152979.561 9
  22332643.581     1608623.048 6   1227138.128 6
  21907164.034    -4763271.423 6  -3530321.123 7
  22503447.972    -3988174.179 6  -2962367.173 6
 95  2 19 16 21 59.9990000  0  5 25 14 15 22 29
  21858937.323     1264127.415 7    964536.762 8
  20713495.870    -4242861.715 7  -3226614.026 9
  22340684.081     1650869.645 6   1260057.500 6
  21886389.706    -4872451.741 6  -3615396.693 7
  22485042.354    -4084879.846 6  -3037722.222 6
 95  2 19 16 22 29.9990000  0  5 25 14 15 22 29
  21865026.612     1296131.057 7    989474.617 8
  20695556.534    -4337152.572 7  -3300087.421 9
  22348741.870     1693234.008 6   1293068.626 6
  21865659.917    -4981386.605 6  -3700280.996 7
  22466619.190    -4181689.868 6  -3113158.602 6
 95  2 19 16 22 59.9990000  0  5 25 14 15 22 29
  21871130.081     1328208.734 7   1014470.182 8
  20677651.292    -4431237.333 7  -3373400.216 9
  22356827.644     1735710.940 6   1326167.488 6
  21844972.909    -5090092.088 6  -3784986.563 7
  22448179.519    -4278593.862 6  -3188668.200 6
 95  2 19 16 23 29.9990000  0  5 25 14 15 22 29
  21877253.394     1360384.619 7   1039542.258 8
  20659790.089    -4525107.493 7  -3446545.806 9
  22364934.401     1778310.035 6   1359361.545 6
  21824330.831    -5198563.144 6  -3869509.455 7
  22429722.401    -4375575.602 6  -3264238.381 6
 95  2 19 16 23 59.9990000  0  5 25 14 15 22 29
  21883396.558     1392666.232 7   1064696.718 8
  20641967.167    -4618747.285 7  -3519511.887 9
  22373063.073     1821034.674 6   1392653.421 6
  21803737.230    -5306786.958 6  -3953839.696 7
  22411256.050    -4472633.470 6  -3339867.875 6
 95  2 19 16 24 29.9990000  0  5 25 14 15 22 29
  21889554.261     1425016.790 7   1089904.906 8
  20624191.737    -4712175.742 7  -3592313.284 9
  22381203.565     1863852.463 6   1426017.887 6
  21783181.604    -5414801.093 6  -4038006.544 7
  22392767.495    -4569793.668 6  -3415577.100 6
 95  2 19 16 24 59.9990000  0  5 25 14 15 22 29
  21895726.987     1457463.523 7   1115188.038 7
  20606459.159    -4805351.977 7  -3664918.153 9
  22389384.261     1906795.009 6   1459479.576 6
  21762678.003    -5522560.029 6  -4121974.539 7
  22374264.323    -4667026.969 6  -3491343.302 6
 95  2 19 16 25 29.9990000  0  5 25 14 15 22 29
  21901914.972     1489983.633 7   1140528.359 7
  20588778.690    -4898272.245 7  -3737323.570 9
  22397579.308     1949851.941 6   1493030.357 6
  21742219.339    -5630064.081 6  -4205743.925 7
  22355746.159    -4764340.503 6  -3567172.025 6
 95  2 19 16 25 59.9990000  0  5 25 14 15 22 29
  21908115.597     1522571.413 7   1165921.393 7
  20571145.604    -4990923.090 7  -3809519.032 9
  22405793.753     1993029.721 6   1526675.323 6
  21721814.269    -5737300.235 6  -4289304.552 7
  22337216.784    -4861722.771 6  -3643054.303 6
 95  2 19 16 26 29.9990000  0  5 25 14 15 22 29
  21914327.612     1555214.794 7   1191357.760 8
  20553562.315    -5083320.874 7  -3881517.308 9
  22414031.925     2036315.548 6   1560404.487 6
  21701455.690    -5844277.137 6  -4372663.174 7
  22318671.519    -4959179.763 6  -3718994.812 6
 95  2 19 16 26 59.9990000  0  5 25 14 15 22 29
  21920553.136     1587921.711 7   1216843.625 8
  20536031.144    -5175466.427 7  -3953319.040 9
  22422292.058     2079714.285 6   1594221.628 6
  21681149.542    -5950987.031 6  -4455813.732 7
  22300107.823    -5056712.721 6  -3794994.513 6
 95  2 19 16 27 29.9990000  0  5 25 14 15 22 29
  21926789.339     1620702.736 7   1242387.241 7
  20518542.706    -5267347.081 7  -4024914.353 9
  22430569.511     2123233.198 6   1628132.420 6
  21660900.714    -6057414.997 6  -4538744.609 7
  22281535.417    -5154305.396 6  -3871040.752 6
 95  2 19 16 27 59.9990000  0  5 25 14 15 22 29
  21933045.190     1653567.532 7   1267996.140 8
  20501109.854    -5358966.056 7  -4096305.763 9
  22438873.886     2166869.671 6   1662134.821 6
  21640700.456    -6163543.936 6  -4621442.468 7
  22262956.425    -5251962.696 6  -3947137.352 6
 95  2 19 16 28 29.9990000  0  5 25 14 15 22 29
  21939309.956     1686496.391 7   1293654.937 8
  20483719.175    -5450352.388 7  -4167515.904 9
  22447196.190     2210591.058 6   1696203.373 6
  21620561.487    -6269390.890 6  -4703920.610 7
  22244349.190    -5349712.077 6  -4023305.698 6
 95  2 19 16 28 59.9990000  0  5 25 14 15 22 29
  21945589.487     1719496.661 7   1319369.417 7
  20466377.698    -5541485.471 7  -4238528.702 9
  22455533.534     2254406.751 6   1730345.402 6
  21600473.503    -6374944.805 6  -4786170.402 7
  22225737.128    -5447535.970 6  -4099532.103 6
 95  2 19 16 29 29.9990000  0  5 25 14 15 22 29
  21951882.581     1752565.724 7   1345137.479 7
  20449089.112    -5632346.989 7  -4309329.893 9
  22463888.628     2298314.129 6   1764558.887 6
  21580443.464    -6480198.430 6  -4868186.205 7
  22207108.378    -5545431.654 6  -4175814.457 6
 95  2 19 16 29 59.9990000  0  5 25 14 15 22 29
  21958186.659     1785686.583 7   1370945.899 8
  20431846.284    -5722942.765 7  -4379924.016 9
  22472261.073     2342299.159 6   1798832.892 6
  21560469.198    -6585177.896 6  -4949988.377 7
  22188461.956    -5643425.038 6  -4252172.935 7
 95  2 19 16 30 29.9990000  0  5 25 14 15 22 29
  21964494.636     1818836.202 7   1396776.726 8
  20414659.839    -5813269.167 7  -4450308.229 9
  22480644.331     2386356.459 6   1833163.202 6
  21540534.854    -6689908.346 6  -5031596.512 7
  22169798.245    -5741517.246 6  -4328608.425 6
 95  2 19 16 30 59.9990000  0  5 25 14 15 22 29
  21970804.081     1852000.575 7   1422619.055 8
  20397522.472    -5903331.654 7  -4520486.791 9
  22489034.644     2430476.052 5   1867542.046 5
  21520651.542    -6794407.568 6  -5113024.465 7
  22151107.854    -5839721.089 6  -4405130.903 6
 95  2 19 16 31 29.9990000  0  5 25 14 15 22 29
  21977120.847     1885187.951 7   1448479.309 7
  20380428.683    -5993135.069 7  -4590463.489 9
  22497438.276     2474650.180 5   1901963.402 6
  21500811.456    -6898671.731 6  -5194269.258 7
  22132399.026    -5938049.231 6  -4481750.231 6
 95  2 19 16 31 59.9990000  0  5 25 14 15 22 29
  21983448.104     1918431.135 7   1474383.051 7
  20363396.901    -6082660.734 7  -4660223.752 9
  22505862.972     2518906.130 5   1936448.507 6
  21481021.190    -7002668.016 6  -5275305.307 7
  22113670.026    -6036455.282 6  -4558430.267 7
 95  2 19 16 32 29.9990000  0  5 25 14 15 22 29
  21989785.104     1951734.752 7   1500333.883 7
  20346407.565    -6171934.563 7  -4729787.786 9
  22514297.823     2563227.306 6   1970984.409 5
  21461284.909    -7106387.538 6  -5356125.699 7
  22094931.292    -6134936.440 6  -4635168.827 6
 95  2 19 16 32 59.9990000  0  5 25 14 15 22 29
  21996139.229     1985127.586 7   1526354.232 7
  20329468.190    -6260947.746 7  -4799148.728 9
  22522747.464     2607619.669 6   2005575.796 6
  21441606.050    -7209793.393 6  -5436701.670 7
  22076179.089    -6233478.188 6  -4711954.600 6
 95  2 19 16 33 29.9990000  0  5 25 14 15 22 29
  22002509.292     2018604.294 7   1552439.929 7
  20312584.792    -6349676.543 7  -4868288.063 9
  22531207.011     2652088.575 6   2040226.804 6
  21421991.761    -7312856.827 6  -5517010.828 7
  22057416.753    -6332069.627 6  -4788779.088 6
 95  2 19 16 33 59.9990000  0  5 25 14 15 22 29
  22008888.433     2052125.700 7   1578560.462 7
  20295750.948    -6438131.804 7  -4937214.253 9
  22539682.831     2696613.230 6   2074921.274 6
  21402446.417    -7415596.239 6  -5597067.496 7
  22038644.722    -6430730.089 6  -4865657.367 6
 95  2 19 16 34 29.9990000  0  5 25 14 15 22 29
  22015273.245     2085671.433 7   1604699.948 7
  20278972.831    -6526305.207 7  -5005920.814 9
  22548163.753     2741183.815 6   2109651.526 6
  21382956.065    -7518011.616 6  -5676871.667 7
  22019850.581    -6529482.783 6  -4942607.512 7
 95  2 19 16 34 59.9990000  0  5 25 14 15 22 29
  22021655.886     2119207.472 7   1630831.871 7
  20262252.401    -6614168.721 7  -5074385.903 9
  22556651.948     2785799.936 5   2144417.260 6
  21363525.628    -7620112.749 7  -5756430.980 7
  22001039.089    -6628342.674 6  -5019641.196 7
 95  2 19 16 35 29.9990000  0  5 25 14 15 22 29
  22028034.612     2152734.310 7   1656956.627 7
  20245598.511    -6701700.665 7  -5142592.622 8
  22565151.347     2830473.243 5   2179227.554 6
  21344153.604    -7721904.418 7  -5835749.133 7
  21982205.229    -6727314.647 6  -5096762.208 7
 95  2 19 16 35 59.9990000  0  5 25 14 15 22 29
  22034417.230     2186279.768 7   1683095.909 7
  20229000.800    -6788900.891 7  -5210540.861 9
  22573659.073     2875216.951 5   2214092.722 6
  21324845.636    -7823388.394 6  -5914827.530 7
  21963355.815    -6826377.103 6  -5173953.729 7
 95  2 19 16 36 29.9990000  0  5 25 14 15 22 29
  22040803.823     2219842.646 7   1709248.752 7
  20212468.378    -6875782.356 7  -5278240.728 9
  22582195.511     2920021.900 5   2249005.645 6
  21305593.144    -7924559.821 6  -5993662.385 7
  21944487.112    -6925530.608 6  -5251216.200 7
 95  2 19 16 36 59.9990000  0  5 25 14 15 22 29
  22047194.534     2253426.767 7   1735418.151 8
  20195993.370    -6962371.330 7  -5345712.668 9
  22590725.394     2964874.455 5   2283955.606 6
  21286396.394    -8025417.299 6  -6072252.622 7
  21925601.136    -7024777.029 6  -5328551.068 7
 95  2 19 16 37 29.9990000  0  6 25 18 14 15 22 29
  22053594.190     2287048.329 7   1761616.714 7
  24291546.026          -0.86013
  20179569.862    -7048690.119 7  -5412974.078 9
  22599273.019     3009763.325 5   2318933.878 5
  21267267.440    -8125946.558 7  -6150587.082 7
  21906698.495    -7124094.722 6  -5405941.476 7
 95  2 19 16 37 59.9980000  0  6 25 18 14 15 22 29
  22059997.662     2320702.572 7   1787840.761 7
  24267700.021     -125345.562 4
  20163189.912    -7134749.267 7  -5480033.169 9
  22607821.076     3054677.201 6   2353931.622 5
  21248206.537    -8226122.968 7  -6228646.608 7
  21887790.936    -7223461.040 6  -5483369.774 7
 95  2 19 16 38 29.9980000  0  6 25 18 14 15 22 29
  22066414.186     2354423.197 6   1814116.514 7
  24243821.686     -250818.056 4        -0.23912
  20146868.928    -7220512.624 7  -5546861.766 9
  22616373.451     3099645.482 6   2388971.765 5
  21229223.240    -8325895.544 7
  21868873.537    -7322868.129 6
 95  2 19 16 38 59.9980000  0  6 25 18 14 15 22 29
  22072840.842     2388189.385 6   1840427.779 7
  24219911.342     -376449.023 3    -97894.539 3
  20130603.334    -7305984.811 7  -5613463.480 9
  22624940.740     3144639.502 6   2424031.942 5
  21210309.162    -8425298.513 7  -6383848.288 7
  21849944.600    -7422332.565 6  -5638334.590 7
 95  2 19 16 39 29.9980000  0  6 25 18 14 15 22 29
  22079275.389     2422010.340 7   1866781.716 7
  24195971.701     -502245.617 3   -195917.832 3
  20114400.115    -7391138.869 7  -5679817.303 9
  22633508.857     3189674.337 6   2459123.943 5
  21191457.717    -8524339.448 7  -6461023.025 8
  21831009.537    -7521839.915 6  -5715872.787 7
 95  2 19 16 39 59.9980000  0  6 25 18 14 15 22 29
  22085719.787     2455879.702 7   1893173.374 7
  24171994.311     -628205.974 2   -294068.720 3
  20098257.772    -7475975.441 7  -5745923.737 9
  22642083.162     3234744.256 5   2494243.289 5
  21172681.248    -8623039.624 7  -6537932.235 7
  21812063.451    -7621410.989 6  -5793460.647 7
 95  2 19 16 40 29.9980000  0  6 25 18 14 15 22 29
  22092175.623     2489793.816 6   1919599.907 7
  24148010.084     -754317.115 2   -392337.168 1
  20082174.170    -7560477.327 7  -5811769.374 9
  22650664.053     3279851.657 5   2529391.830 5
  21153959.686    -8721407.878 7  -6614582.802 7
  21793104.576    -7721050.149 6  -5871101.539 7
 95  2 19 16 40 59.9980000  0  5 25 14 15 22 29
  22098634.842     2523737.463 6   1946049.463 7
  20066156.740    -7644648.806 7  -5877357.556 9
  22659260.037     3324996.234 5   2564569.349 5
  21135299.006    -8819465.426 7  -6690991.263 8
  21774134.209    -7820738.366 6  -5948780.676 7
 95  2 19 16 41 29.9980000  0  5 25 14 15 22 29
  22105099.936     2557719.944 6   1972529.252 7
  20050207.201    -7728469.396 7  -5942672.306 8
  22667865.857     3370191.463 6   2599786.342 5
  21116706.818    -8917176.232 7  -6767129.535 8
  21755153.615    -7920463.191 6  -6026488.335 7
 95  2 19 16 41 59.9980000  0  5 25 14 15 22 29
  22111574.725     2591734.549 6   1999034.095 7
  20034327.514    -7811922.264 7  -6007700.528 8
  22676466.826     3415435.688 5   2635041.519 5
  21098185.100    -9014508.960 7  -6842973.200 8
  21736174.396    -8020227.990 6  -6104227.140 7
 95  2 19 16 42 29.9980000  0  5 25 14 15 22 29
  22118049.084     2625776.056 6   2025559.889 7
  20018522.412    -7894979.010 7  -6072420.080 9
  22685089.271     3460735.719 5   2670340.177 5
  21079735.623    -9111449.635 7  -6918511.377 8
  21717185.686    -8120021.132 6  -6181988.037 7
 95  2 19 16 42 59.9980000  0  6 25 18 14 15 22 29
  22124531.420     2659818.771 6   2052086.600 7
  24027696.545     -126654.897 2
  20002786.467    -7977667.873 7  -6136852.975 9
  22693712.834     3506058.917 5   2705656.869 5
  21061358.147    -9208028.259 7  -6993767.439 7
  21698183.662    -8219871.969 6  -6259793.886 7
 95  2 19 16 43 29.9980000  0  6 25 18 14 15 22 29
  22131013.592     2693890.157 6   2078635.698 6
  24003565.146     -253425.618 2        -0.01611
  19987126.842    -8059967.225 7  -6200982.354 9
  22702345.654     3551420.047 5   2741003.149 5
  21043058.029    -9304205.663 7  -7068710.851 8
  21679167.998    -8319765.869 6  -6337633.283 7
 95  2 19 16 43 59.9980000  0  6 25 18 14 15 22 29
  22137500.639     2727982.004 6   2105200.721 6
  23979428.654     -380314.746 3    -98874.635 2
  19971531.615    -8141908.192 7  -6264832.464 9
  22710980.896     3596803.803 5   2776367.045 5
  21024827.240    -9400001.449 7  -7143356.900 7
  21660153.740    -8419709.660 6  -6415511.564 7
 95  2 19 16 44 29.9980000  0  6 25 18 14 15 22 29
  22143996.076     2762110.304 6   2131794.139 6
  23955262.006     -507316.056 3   -197836.659 2
  19956006.834    -8223496.306 7  -6328407.632 9
  22719626.279     3642215.023 6   2811752.346 5
  21006668.803    -9495416.397 7  -7217706.196 8
  21641129.725    -8519686.633 6  -6493415.700 7
 95  2 19 16 44 59.9980000  0  6 25 18 14 15 22 29
  22150500.662     2796297.985 6   2158433.824 6
  23931067.959     -634425.102 3   -296882.610 1
  19940543.295    -8304751.359 7  -6391723.261 9
  22728270.279     3687648.945 6   2847155.334 5
  20988590.982    -9590425.908 7  -7291739.568 8
  21622095.537    -8619693.617 6  -6571343.213 7
 95  2 19 16 45 29.9980000  0  6 25 18 14 15 22 29
  22157022.459     2830560.879 7   2185132.119 7
  23906863.506     -761626.714 4   -396000.727 1
  19925149.334    -8385666.317 7  -6454773.878 8
  22736924.576     3733116.360 5   2882584.411 5
  20970589.662    -9685006.541 7  -7365438.742 8
  21603062.834    -8719719.153 6  -6649285.190 7
 95  2 19 16 45 59.9980000  0  6 25 18 14 15 22 29
  22163552.178     2864884.411 6   2211877.654 6
  23882640.920     -888923.681 4   -495193.142 1
  19909820.287    -8466228.823 7  -6517549.870 9
  22745580.123     3778612.065 5   2918035.499 5
  20952670.748    -9779166.733 7  -7438810.320 8
  21584025.662    -8819771.968 6  -6727248.419 7
 95  2 19 16 46 29.9980000  0  6 25 18 14 15 22 29
  22170094.631     2899244.618 6   2238651.796 6
  23858397.732    -1016340.761 4   -594479.151 2
  19894558.795    -8546427.987 7  -6580042.737 8
  22754239.842     3824124.985 5   2953499.997 5
  20934830.006    -9872912.195 7  -7511858.713 8
  21564976.701    -8919868.410 6  -6805245.644 7
 95  2 19 16 46 59.9980000  0  6 25 18 14 15 22 29
  22176633.693     2933623.049 6   2265440.123 6
  23834123.764    -1143895.766 4   -693872.611 2
  19879367.264    -8626251.581 7  -6642242.946 8
  22762902.365     3869645.741 5   2988970.634 5
  20917070.147    -9966257.989 7  -7584595.686 8
  21545912.506    -9020017.452 6  -6883283.856 7
 95  2 19 16 47 29.9980000  0  6 25 18 14 15 22 29
  22183171.389     2967982.051 6   2292213.289 6
  23809821.654    -1271608.197 3   -793388.774 3
  19864249.279    -8705688.754 7  -6704142.056 9
  22771559.701     3915163.219 5   3024438.716 5
  20899377.193   -10059232.637 7  -7657043.455 8
  21526852.412    -9120220.618 6  -6961364.241 7
 95  2 19 16 47 59.9980000  0  6 25 18 14 15 22 29
  22189708.271     3002333.087 6   2318980.280 6
  23785493.631    -1399445.073 3   -893001.867 2
  19849212.373    -8784706.490 7  -6765714.335 8
  22780230.482     3960690.467 5   3059914.422 5
  20881759.561   -10151815.494 7  -7729185.928 8
  21507778.131    -9220445.968 6  -7039461.917 7
 95  2 19 16 48 29.9980000  0  6 25 18 14 15 22 29
  22196244.232     3036677.757 6   2345742.285 6
  23761144.295    -1527408.999 3   -992714.005 3
  19834254.607    -8863330.180 7  -6826979.554 9
  22788893.045     4006210.223 5   3095384.306 5
  20864213.459   -10244016.276 7  -7801030.697 8
  21488698.006    -9320696.015 6  -7117578.835 7
 95  2 19 16 48 59.9980000  0  6 25 18 14 15 22 29
  22202778.701     3071016.753 6   2372499.856 7
  23736766.271    -1655498.646 3  -1092524.082 4
  19819360.412    -8941592.622 7  -6887963.287 9
  22797545.100     4051699.723 5   3130830.601 5
  20846738.967   -10335840.452 7  -7872581.987 8
  21469618.748    -9420986.437 6  -7195727.216 7
 95  2 19 16 49 29.9980000  0  6 25 18 14 15 22 29
  22209317.811     3105374.250 6   2399271.857 7
  23712379.686    -1783682.706 3  -1192407.735 5
  19804536.639    -9019490.130 7  -6948662.656 8
  22806200.990     4097177.239 5   3166267.536 4
  20829347.139   -10427246.255 7  -7943807.279 8
  21450525.029    -9521298.640 7  -7273892.567 7
 95  2 19 16 49 59.9980000  0  6 25 18 14 15 22 29
  22215859.443     3139756.074 7   2426062.813 6
  23687965.318    -1911956.152 3  -1292361.048 5
  19789778.381    -9097037.241 7  -7009088.982 8
  22814853.068     4142639.065 5   3201692.241 5
  20812034.131   -10518232.101 7  -8014705.344 8
  21431427.662    -9621653.264 6  -7352090.978 7
 95  2 19 16 50 29.9980000  0  6 25 18 14 15 22 29
  22222402.256     3174146.583 6   2452860.566 6
  23663528.264    -2040351.492 3  -1392409.346 4
  19775085.623    -9174264.699 7  -7069266.234 8
  22823498.990     4188065.884 5   3237089.658 5
  20794792.717   -10608816.749 7  -8085290.775 8
  21412318.748    -9722086.887 7  -7430350.940 7
 95  2 19 16 50 59.9980000  0  6 25 18 14 15 22 29
  22228947.225     3208524.780 6   2479648.709 6
  23639074.318    -2168883.540 4  -1492564.155 3
  19760450.318    -9251158.645 7  -7129183.600 8
  22832133.436     4233457.085 5   3272459.325 5
  20777632.201   -10699003.501 7  -8155566.168 8
  21393190.318    -9822606.537 7  -7508677.938 7
 95  2 19 16 51 29.9980000  0  6 25 18 14 15 22 29
  22235486.334     3242892.509 6   2506428.685 7
  23614593.139    -2297553.061 5  -1592826.113 4
  19745887.951    -9327690.395 7  -7188818.737 8
  22840768.459     4278824.499 5   3307810.467 5
  20760549.209   -10788785.020 7  -8225525.780 8
  21374048.131    -9923193.093 7  -7587057.077 7
 95  2 19 16 51 59.9980000  0  6 25 18 14 15 22 29
  22242020.803     3277235.082 6   2533189.061 7
  23590075.740    -2426381.733 4  -1693212.053 1
  19731394.943    -9403860.777 7  -7248172.293 8
  22849390.764     4324149.132 5   3343128.280 5
  20743535.014   -10878178.306 7  -8295182.885 8
  21354893.436   -10023858.488 7  -7665497.645 7
 95  2 19 16 52 29.9980000  0  6 25 18 14 15 22 29
  22248557.264     3311579.579 6   2559950.951 6
  23565532.959    -2555346.321 3  -1793703.915 1
  19716976.271    -9479625.808 7  -7307209.995 8
  22858012.904     4369458.462 5   3378434.170 5
  20726612.311   -10967138.268 7  -8364502.335 8
  21335729.092   -10124558.750 7  -7743965.388 7
 95  2 19 16 52 59.9980000  0  6 25 18 14 15 22 29
  22255085.475     3345900.468 6   2586694.456 7
  23540960.615    -2684455.874 3  -1894308.738 2
  19702632.459    -9554998.206 7  -7365941.749 8
  22866632.279     4414731.115 5   3413711.462 5
  20709759.600   -11055677.516 7  -8433493.954 8
  21316560.951   -10225299.731 7  -7822464.859 7
 95  2 19 16 53 29.9980000  0  6 25 18 14 15 22 29
  22261617.842     3380214.029 6   2613432.221 7
  23516369.584    -2813692.769 3  -1995012.745 1
  19688363.240    -9629984.586 7  -7424372.709 8
  22875239.498     4459965.769 5   3448959.128 4
  20692995.959   -11143780.406 7  -8502145.552 8
  21297383.068   -10326077.298 7  -7900992.838 7
 95  2 19 16 53 59.9980000  0  6 25 18 14 15 22 29
  22268149.271     3414535.659 6   2640176.302 7
  23491759.006    -2943022.945 3  -2095789.509 1
  19674174.256    -9704561.955 7  -7482484.960 8
  22883840.717     4505177.050 5   3484188.589 5
  20676315.568   -11231431.089 7  -8570444.773 8
  21278198.326   -10426877.022 7  -7979538.079 7
 95  2 19 16 54 29.9970000  0  6 25 18 14 15 22 29
  22274680.923     3448856.702 6   2666919.918 6
  23467135.462    -3072439.691 3  -2196633.660 1
  19660054.290    -9778737.507 7  -7540284.091 8
  22892438.329     4550353.329 5   3519390.783 4
  20659722.829   -11318636.821 7  -8638397.290 7
  21259016.853   -10527699.214 7  -8058100.823 7
 95  2 19 16 54 59.9970000  0  6 25 18 14 15 22 29
  22281211.946     3483178.679 6   2693664.249 7
  23442489.048    -3201945.902 3  -2297547.553 2
  19646020.954    -9852510.035 7  -7597769.191 8
  22901031.634     4595494.610 5   3554565.711 5
  20643207.415   -11405407.567 7  -8706010.846 8
  21239822.892   -10628552.673 7  -8136687.931 7
 95  2 19 16 55 29.9970000  0  6 25 18 14 15 22 29
  22287742.478     3517498.908 6   2720407.219 6
  23417825.579    -3331553.955 3  -2398540.822 1
  19632057.571    -9925874.143 7  -7654936.045 8
  22909611.431     4640590.752 5   3589705.486 5
  20626779.829   -11491751.798 7  -8773292.057 8
  21220626.493   -10729438.617 7  -8215300.351 7
 95  2 19 16 55 59.9970000  0  6 25 18 14 15 22 29
  22294270.321     3551821.341 6   2747151.921 6
  23393140.728    -3461259.905 3  -2499610.325 4
  19618179.392    -9998808.150 7  -7711767.747 8
  22918188.462     4685657.868 5   3624822.627 5
  20610432.165   -11577655.815 7  -8840230.250 8
  21201424.212   -10830331.484 7  -8293918.165 8
 95  2 19 16 56 29.9970000  0  6 25 18 14 15 22 29
  22300805.313     3586148.028 6   2773899.942 6
  23368434.774    -3591075.969 2  -2600765.692 2
  19604380.806   -10071312.318 7  -7768264.513 8
  22926757.579     4730701.916 5   3659921.789 5
  20594171.478   -11663106.384 7  -8906815.109 8
  21182228.149   -10931217.141 7  -8372530.367 8
 95  2 19 16 56 59.9970000  0  6 25 18 14 15 22 29
  22307336.743     3620470.910 6   2800644.993 6
  23343716.407    -3720996.532 3  -2702002.478 1
  19590664.103   -10143386.864 7  -7824426.510 8
  22935325.189     4775723.499 5   3695003.441 5
  20577998.509   -11748095.833 7  -8973040.654 8
  21163034.353   -11032092.858 7  -8451134.818 8
 95  2 19 16 57 29.9970000  0  6 25 18 14 15 22 29
  22313866.853     3654784.430 6   2827382.734 6
  23318961.931    -3851027.278 2  -2803325.136 4
  19577030.649   -10215059.846 7  -7880275.603 8
  22943885.759     4820707.476 5   3730055.771 3
  20561909.462   -11832635.332 7  -9038915.575 8
  21143834.767   -11132969.477 7  -8529739.973 8
 95  2 19 16 57 59.9970000  0  6 25 18 14 15 22 29
  22320393.063     3689084.102 6   2854109.676 6
  23294207.017    -3981147.959 3  -2904717.861 3
  19563464.087   -10286329.042 7  -7935810.045 8
  22952434.985     4865651.302 5   3765076.836 5
  20545913.274   -11916716.709 7  -9104433.527 8
  21124636.946   -11233862.622 7  -8608358.006 8
 95  2 19 16 58 29.9970000  0  6 25 18 14 15 22 29
  22326922.853     3723387.589 6   2880839.598 6
  23269446.571    -4111317.499 3  -3006148.671 3
  19549983.759   -10357167.413 7  -7991008.793 8
  22960986.860     4910567.276 5   3800076.196 5
  20530005.899   -12000309.920 7  -9169571.087 8
  21105434.274   -11334764.332 7  -8686982.713 8
 95  2 19 16 58 59.9970000  0  6 25 18 14 15 22 29
  22333449.110     3757696.869 6   2907574.025 6
  23244665.157    -4241526.214 3  -3107610.002 3
  19536587.251   -10427577.193 7  -8045873.573 8
  22969525.728     4955440.840 5   3835042.530 5
  20514184.813   -12083421.037 7  -9234332.991 8
  21086230.306   -11435695.237 6  -8765630.166 8
 95  2 19 16 59 29.9970000  0  6 25 18 14 15 22 29
  22339983.103     3792029.194 6   2934326.413 6
  23219881.892    -4371765.926 3  -3209095.441 4
  19523277.610   -10497528.917 7  -8100381.420 8
  22978058.353     5000282.406 5   3869983.900 5
  20498460.165   -12166041.087 7  -9298712.249 8
  21067019.196   -11536645.889 6  -8844293.020 8
 95  2 19 16 59 59.9970000  0  6 25 18 14 15 22 29
  22346518.673     3826366.717 6   2961082.847 6
  23195085.845    -4502050.188 4  -3310615.618 4
  19510052.345   -10567015.373 7  -8154526.737 8
  22986585.603     5045084.697 5   3904894.682 5
  20482836.126   -12248172.134 7  -9362710.467 9
  21047805.915   -11637610.541 6  -8922966.770 8
 95  2 19 17  0 29.9970000  0  6 25 18 14 15 22 29
  22353053.642     3860710.451 6   2987844.124 6
  23170283.485    -4632409.965 5  -3412194.636 3
  19496915.009   -10636045.506 7  -8208316.464 8
  22995099.767     5089840.751 5   3939769.409 5
  20467302.017   -12329819.670 7  -9426331.928 8
  21028595.657   -11738568.428 6  -9001635.258 8
 95  2 19 17  0 59.9970000  0  6 25 18 14 15 22 29
  22359601.767     3895123.181 6   3014659.187 6
  23145466.603    -4762821.213 5  -3513813.775 4
  19483874.071   -10704575.740 7  -8261716.661 8
  23003619.157     5134599.885 5   3974646.554 5
  20451861.704   -12410953.876 7  -9489553.389 8
  21009393.399   -11839464.115 6  -9080255.272 8
 95  2 19 17  1 29.9970000  0  6 25 18 14 15 22 29
  22366149.681     3929524.907 6   3041465.674 6
  23120621.282    -4893362.965 4  -3615534.600 4
  19470917.204   -10772669.392 7  -8314776.660 9
  23012125.368     5179299.822 5   4009477.576 4
  20436507.782   -12491628.375 7  -9552416.624 8
  20990199.345   -11940345.372 6  -9158864.044 8
 95  2 19 17  1 59.9970000  0  6 25 18 14 15 22 29
  22372687.829     3963891.281 6   3068244.603 6
  23095749.360    -5024061.207 4  -3717377.346 2
  19458040.337   -10840353.157 7  -8367517.269 9
  23020615.532     5223912.929 5   4044240.951 2
  20421240.728   -12571846.546 7  -9614924.292 8
  20970998.368   -12041225.447 6  -9237471.892 8
 95  2 19 17  2 29.9970000  0  6 25 18 14 15 22 29
  22379220.563     3998234.748 6   3095005.670 6
  23070848.392    -5154903.204 4  -3819332.085 2
  19445239.782   -10907618.107 7  -8419931.525 9
  23029085.478     5268440.464 5   4078937.618 5
  20406063.610   -12651604.198 7  -9677073.110 8
  20951804.962   -12142111.115 7  -9316084.101 8
 95  2 19 17  2 59.9970000  0  6 25 18 14 15 22 29
  22385759.017     4032560.741 6   3121753.129 6
  23045937.688    -5285852.504 4  -3921370.490 1
  19432522.837   -10974445.634 7  -8472004.929 9
  23037546.712     5312894.204 5   4113576.786 2
  20390978.728   -12730875.089 7  -9738842.631 9
  20932604.782   -12243000.876 7  -9394699.501 8
 95  2 19 17  3 29.9970000  0  6 25 18 14 15 22 29
  22392282.282     4066851.885 6   3148473.443 6
  23020993.790    -5416899.579 3  -4023485.086 2
  19419887.501   -11040836.732 7  -8523738.273 9
  23045987.048     5357261.905 5   4148148.928 2
  20375991.618   -12809645.873 7  -9800222.466 9
  20913404.517   -12343892.151 7  -9473316.082 8
 95  2 19 17  3 59.9970000  0  6 25 18 14 15 22 29
  22398809.415     4101143.001 6   3175193.743 6
  22996045.587    -5548009.809 3  -4125648.881 1
  19407340.626   -11106778.964 7  -8575121.838 9
  23054415.978     5401558.389 5   4182665.565 2
  20361097.743   -12887905.884 7  -9861204.292 9
  20894208.407   -12444770.925 7  -9551922.921 8
 95  2 19 17  4 29.9970000  0  6 25 18 14 15 22 29
  22405326.001     4135401.071 6   3201888.259 6
  22971074.298    -5679210.066 3  -4227882.804 2
  19394870.657   -11172311.333 7  -8626186.029 9
  23062832.767     5445753.957 5   4217103.599 2
  20346292.970   -12965698.411 7  -9921821.837 9
  20875007.728   -12545675.400 7  -9630549.782 8
 95  2 19 17  4 59.9970000  0  6 25 18 14 15 22 29
  22411844.743     4169653.720 6   3228578.562 6
  22946107.712    -5810461.830 4  -4330156.877 2
  19382485.751   -11237391.407 7  -8676897.777 9
  23071226.313     5489888.115 4   4251493.768 2
  20331590.228   -13042979.878 7  -9982041.160 9
  20855809.814   -12646550.148 7  -9709153.484 7
 95  2 19 17  5 29.9970000  0  6 25 18 14 15 22 29
  22418354.993     4203870.715 6   3255241.112 6
  22921113.595    -5941804.599 4  -4432501.847 2
  19370182.243   -11302051.806 7  -8727282.508 8
  23079610.126     5533925.314 4   4285808.371 1
  20316967.274   -13119800.812 7 -10041901.628 8
  20836618.712   -12747423.051 7  -9787755.748 7
 95  2 19 17  5 59.9970000  0  6 25 18 14 15 22 29
  22424862.603     4238055.455 6   3281878.530 6
  22896099.743    -6073235.261 4  -4534915.308 2
  19357956.673   -11366282.832 7  -8777332.661 8
  23087971.829     5577870.796 5   4320051.522 3
  20302438.181   -13196162.032 7 -10101403.874 8
  20817422.493   -12848300.719 7  -9866361.725 7
 95  2 19 17  6 29.9970000  0  6 25 18 14 15 22 29
  22431355.931     4272185.921 6   3308473.612 6
  22871073.478    -6204771.892 5  -4637411.358 3
  19345816.610   -11430079.676 7  -8827044.498 8
  23096313.345     5621710.572 5   4354212.293 4
  20287993.985   -13272071.392 7 -10160554.017 9
  20798223.556   -12949190.809 7  -9944977.380 7
 95  2 19 17  6 59.9970000  0  6 25 18 14 15 22 29
  22437835.798     4306247.210 6   3335014.829 6
  22846014.243    -6336431.365 5  -4740003.113 4
  19333755.493   -11493456.813 7  -8876429.295 8
  23104629.884     5665415.997 5   4388268.389 4
  20273635.751   -13347544.078 7 -10219363.893 9
  20779014.845   -13050118.375 7 -10023622.235 7
 95  2 19 17  7 29.9970000  0  6 25 18 14 15 22 29
  22444311.165     4340263.514 6   3361520.988 5
  22820940.892    -6468193.434 5  -4842674.826 2
  19321777.603   -11556401.382 7  -8925477.024 8
  23112929.634     5708997.923 5   4422228.210 3
  20259363.189   -13422549.938 7 -10277810.014 9
  20759799.853   -13151091.509 7 -10102302.602 7
 95  2 19 17  7 59.9970000  0  6 25 18 14 15 22 29
  22450775.298     4374241.827 6   3387997.547 5
  22795854.306    -6600047.263 5  -4945418.041 4
  19309887.563   -11618896.809 7  -8974174.783 8
  23121195.595     5752466.913 5   4456100.028 4
  20245182.142   -13497051.774 7 -10335863.398 9
  20740580.493   -13252102.582 7 -10181012.531 8
 95  2 19 17  8 29.9970000  0  7 25 18 14 15 22 29 19
  22457231.634     4408175.210 6   3414439.080 6
  22770742.423    -6731998.672 5  -5048237.288 4
  19298082.063   -11680949.561 7  -9022527.602 8
  23129451.681     5795815.543 5   4489878.078 4
  20231098.048   -13571051.975 7 -10393525.881 9
  20721347.798   -13353152.831 7 -10259752.976 8
  23749616.603          -0.70514
 95  2 19 17  8 59.9960000  0  7 25 18 14 15 22 29 19
  22463678.051     4442054.750 6   3440838.670 5
  22745615.840    -6864039.299 5  -5151126.056 5
  19286353.551   -11742558.136 7  -9070534.302 8
  23137675.223     5839041.299 5   4523560.355 2
  20217112.184   -13644555.228 7 -10450801.135 9
  20702114.855   -13454243.796 7 -10338525.153 8
  23722047.840     -144837.051 3
 95  2 19 17  9 29.9960000  0  7 25 18 14 15 22 29 19
  22470114.863     4475870.171 6   3467188.293 5
  22720465.621    -6996194.546 5  -5254104.146 5
  19274712.988   -11803723.916 7  -9118195.969 8
  23145874.004     5882143.989 5   4557146.745 3
  20203220.965   -13717573.359 7 -10507698.370 9
  20682869.012   -13555370.209 7 -10417324.949 8
  23694497.254     -289665.218 3        -0.44314
 95  2 19 17  9 59.9960000  0  7 25 18 14 15 22 29 19
  22476541.402     4509646.332 6   3493507.304 6
  22695301.543    -7128441.360 5  -5357153.575 5
  19263167.316   -11864421.855 7  -9165493.082 8
  23154054.762     5925144.030 5   4590653.169 4
  20189413.785   -13790098.954 7 -10564211.818 9
  20663627.106   -13656482.638 7 -10496113.853 8
  23666936.199     -434463.664 3   -112830.400 3
 95  2 19 17 10 29.9960000  0  7 25 18 14 15 22 29 19
  22482958.316     4543364.639 6   3519781.270 6
  22670117.707    -7260786.490 5  -5460279.644 5
  19251697.668   -11924674.216 7  -9212442.985 8
  23162216.340     5968018.611 4   4624061.793 4
  20175700.465   -13862168.224 7 -10620369.684 9
  20644391.145   -13757590.404 7 -10574899.121 8
  23639394.715     -579232.519 3   -225637.326 3
 95  2 19 17 10 59.9960000  0  7 25 18 14 15 22 29 19
  22489368.793     4577037.038 5   3546019.418 5
  22644918.090    -7393212.715 5  -5563468.886 5
  19240319.449   -11984469.316 7  -9259036.588 8
  23170351.051     6010776.529 3   4657379.517 4
  20162081.191   -13933766.866 7 -10676160.832 9
  20625153.559   -13858671.747 7 -10653663.804 8
  23611852.746     -723954.475 3   -338407.679 1
 95  2 19 17 11 29.9960000  0  7 25 18 14 15 22 29 19
  22495763.621     4610645.647 5   3572207.881 5
  22619694.879    -7525750.414 5  -5666745.009 5
  19229025.395   -12043840.728 7  -9305300.038 8
  23178455.871     6053381.440 3   4690578.019 3
  20148540.105   -14004913.092 7 -10731599.451 9
  20605916.082   -13959756.797 7 -10732431.374 8
  23584305.316     -868653.164 2
 95  2 19 17 11 59.9960000  0  7 25 18 14 15 22 29 19
  22502145.965     4644191.050 5   3598347.104 5
  22594457.855    -7658380.636 4  -5770093.209 5
  19217802.504   -12102794.541 7  -9351238.083 8
  23186530.668     6095830.120 3   4723654.810 5
  20135087.801   -14075605.899 7 -10786684.748 9
  20586679.043   -14060857.676 7 -10811211.277 8
  23556789.254    -1013308.684 2
 95  2 19 17 12 29.9960000  0  7 25 18 14 15 22 29 19
  22508524.652     4677704.710 5   3624461.589 6
  22569202.356    -7791061.274 4  -5873480.687 5
  19206674.754   -12161277.058 7  -9396808.889 8
  23194591.020     6138164.861 3   4756642.803 3
  20121732.934   -14145787.296 7 -10841371.548 9
  20567442.559   -14161939.468 7 -10889976.312 8
  23529280.512    -1157861.750 3        -0.16211
 95  2 19 17 12 59.9960000  0  7 25 18 14 15 22 29 19
  22514892.270     4711168.310 5   3650537.026 6
  22543952.043    -7923822.466 5  -5976930.949 4
  19195632.301   -12219303.623 7  -9442024.408 8
  23202625.090     6180365.309 3   4789526.148 2
  20108473.762   -14215461.580 7 -10895663.188 9
  20548206.777   -14263033.177 7 -10968750.631 9
  23501785.832    -1302339.700 3   -112580.350 1
 95  2 19 17 13 29.9960000  0  7 25 18 14 15 22 29 19
  22521251.629     4744584.621 6   3676575.647 6
  22518664.762    -8056660.835 4  -6080441.344 3
  19184678.293   -12276867.076 7  -9486879.067 8
  23210628.027     6222431.365 3   4822304.770 3
  20095315.316   -14284617.674 7 -10949551.054 9
  20528963.449   -14364145.683 7 -11047539.599 9
  23474309.223    -1446742.575 4   -225102.112 1
 95  2 19 17 13 59.9960000  0  7 25 18 14 15 22 29 19
  22527599.418     4777951.290 5   3702575.590 5
  22493379.168    -8189563.134 4  -6184001.555 3
  19173818.004   -12333952.466 7  -9531361.205 8
  23218607.082     6264376.827 4   4854989.429 2
  20082254.645   -14353239.805 7 -11003022.841 9
  20509723.238   -14465255.203 7 -11126326.236 9
  23446847.449    -1591062.259 4   -337559.001 2
 95  2 19 17 14 29.9960000  0  7 25 18 14 15 22 29 19
  22533944.949     4811306.319 5   3728566.459 5
  22468078.504    -8322499.749 4  -6287588.510 3
  19163053.809   -12390506.355 7  -9575429.187 8
  23226573.402     6306238.058 4   4887608.424 3
  20069306.496   -14421289.454 7 -11056048.541 9
  20490493.105   -14566309.764 7 -11205070.064 9
  23419399.184    -1735275.741 4   -449933.142 1
 95  2 19 17 14 59.9960000  0  7 25 18 14 15 22 29 19
  22540289.996     4844631.456 5   3754534.015 6
  22442773.113    -8455487.823 3  -6391215.554 5
  19152386.238   -12446559.662 7  -9619107.112 8
  23234518.621     6347979.407 5   4920134.017 2
  20056456.582   -14488813.342 7 -11108664.552 9
  20471271.934   -14667329.484 7 -11283786.736 8
  23391973.996    -1879410.276 3   -562245.720 3
 95  2 19 17 15 29.9960000  0  7 25 18 14 15 22 29 19
  22546632.145     4877959.172 6   3780503.598 5
  22417459.512    -8588492.346 4  -6494855.388 4
  19141823.191   -12502082.237 7  -9662371.474 8
  23242442.121     6389630.624 5   4952589.373 2
  20043711.621   -14555784.555 7 -11160849.914 9
  20452065.355   -14768263.840 7 -11362436.886 8
  23364570.848    -2023428.627 3   -674467.749 5
 95  2 19 17 15 59.9960000  0  7 25 18 14 15 22 29 19
  22552969.184     4911263.361 5   3806454.838 5
  22392141.926    -8721543.258 5  -6598531.415 3
  19131350.168   -12557102.683 7  -9705244.560 8
  23250349.949     6431168.724 5   4984956.607 2
  20031069.324   -14622231.116 7 -11212626.450 9
  20432872.496   -14869124.578 7 -11441029.670 8
  23337184.949    -2167346.320 3   -786611.357 5
 95  2 19 17 16 29.9960000  0  7 25 18 14 15 22 29 19
  22559301.840     4944543.156 5   3832387.050 5
  22366813.645    -8854648.637 5  -6702249.846 3
  19120975.402   -12611631.687 7  -9747734.713 8
  23258230.504     6472580.795 5   5017225.610 1
  20018518.566   -14688167.237 7 -11264005.250 9
  20413690.746   -14969916.818 7 -11519569.080 8
  23309814.387    -2311170.060 3   -898681.733 5
 95  2 19 17 16 59.9960000  0  7 25 18 14 15 22 29 19
  22565623.910     4977782.431 5   3858287.701 5
  22341473.816    -8987819.219 5  -6806019.085 4
  19110684.355   -12665702.113 7  -9789867.527 8
  23266082.309     6513852.605 5   5049385.330 2
  20006075.395   -14753587.300 7 -11314981.916 9
  20394519.246   -15070658.035 7 -11598068.736 8
  23282458.160    -2454911.105 3  -1010687.658 5
 95  2 19 17 17 29.9960000  0  7 25 18 14 15 22 29 19
  22571941.699     5010952.700 6   3884134.625 6
  22316116.035    -9121084.270 5  -6909861.958 2
  19100478.934   -12719335.135 7  -9831659.503 8
  23273908.074     6554963.296 5   5081419.498 1
  19993721.746   -14818488.080 7 -11365553.955 9
  20375354.777   -15171375.684 7 -11676550.018 8
  23255118.770    -2598606.934 2  -1122658.336 4
 95  2 19 17 17 59.9960000  0  7 25 18 14 15 22 29 19
  22578240.949     5044063.885 5   3909935.491 5
  22290738.246    -9254435.914 5  -7013772.275 4
  19090362.098   -12772518.099 7  -9873100.791 8
  23281694.441     6595909.350 4   5113325.399 2
  19981469.145   -14882878.125 7 -11415728.019 9
  20356187.512   -15272084.006 7 -11755024.037 8
  23227782.207          -0.41411
 95  2 19 17 18 29.9960000  0  7 25 18 14 15 22 29 19
  22584534.410     5077135.543 5   3935705.522 5
  22265354.332    -9387846.390 5  -7117728.458 4
  19080330.285   -12825229.293 7  -9914174.469 8
  23289457.973     6636702.972 4   5145112.503 1
  19969316.965   -14946742.852 7 -11465492.752 9
  20337028.059   -15372774.172 7 -11833483.912 8
  23200456.855     -143587.664 3        -0.21412
 95  2 19 17 18 59.9960000  0  7 25 18 14 15 22 29 19
  22590818.270     5110151.492 6   3961432.180 5
  22239944.965    -9521333.025 5  -7221744.005 3
  19070383.660   -12877480.341 7  -9954889.586 8
  23297187.512     6677324.511 3   5176765.566 1
  19957261.762   -15010092.105 7 -11514855.796 9
  20317868.191   -15473470.833 7 -11911948.848 8
  23173139.551     -287129.306 4   -111850.841 1
 95  2 19 17 19 29.9960000  0  7 25 18 14 15 22 29 19
  22597093.895     5143147.745 5   3987143.500 5
  22214539.848    -9654856.909 5  -7325788.567 4
  19060538.340   -12929219.566 7  -9995205.892 8
  23304895.496     6717804.801 3   5208308.603 1
  19945309.051   -15072909.580 7 -11563804.478 9
  20298712.715   -15574135.360 7 -11990388.732 8
  23145843.988     -430590.339 5   -223638.617 3
 95  2 19 17 19 59.9960000  0  7 25 18 14 15 22 29 19
  22603364.426     5176089.068 5   4012811.989 5
  22189120.332    -9788436.738 5  -7429876.694 5
  19050786.863   -12980471.931 7 -10035142.820 8
  23312561.449     6758120.114 3   5239723.034 2
  19933449.496   -15135218.242 7 -11612356.683 9
  20279559.465   -15674774.486 7 -12068808.838 8
  23118559.707     -573970.236 4   -335363.173 2
 95  2 19 17 20 29.9960000  0  7 25 18 14 15 22 29 19
  22609615.699     5208950.390 5   4038418.168 5
  22163688.488    -9922081.762 5  -7534015.659 4
  19041127.738   -13031247.057 7 -10074707.872 8
  23320201.199     6798264.702 2   5271004.415 2
  19921689.520   -15197005.405 7 -11660502.523 9
  20260415.902   -15775379.603 7 -12147202.432 8
  23091292.473     -717272.195 4   -447026.973 2
 95  2 19 17 20 59.9960000  0  7 25 18 14 15 22 29 19
  22615854.074     5241741.615 5   4063969.692 5
  22138243.473   -10055784.776 5  -7638199.806 5
  19031560.340   -13081523.400 7 -10113884.275 8
  23327808.207     6838252.275 2   5302163.413 2
  19910034.129   -15258257.491 7 -11708231.423 9
  20241283.473   -15875933.664 7 -12225556.246 8
  23064036.262     -860471.292 3   -558610.661 2
 95  2 19 17 21 29.9960000  0  7 25 18 14 15 22 29 19
  22622083.145     5274458.058 5   4089462.984 5
  22112795.762   -10189548.934 5  -7742431.603 5
  19022088.285   -13131292.237 7 -10152665.196 8
  23335402.520     6878085.398 3   5333202.091 2
  19898481.301   -15318974.171 7 -11755543.125 9
  20222157.223   -15976438.371 7 -12303871.602 8
  23036809.301    -1003551.164 3   -670101.489 3
 95  2 19 17 21 59.9960000  0  7 25 18 14 15 22 29 19
  22628299.684     5307113.157 5   4114908.451 5
  22087323.582   -10323367.655 5  -7846705.904 5
  19012714.598   -13180549.782 7 -10191047.714 8
  23342946.574     6917769.107 3   5364124.328 1
  19887035.074   -15379138.453 7 -11802424.391 9
  20203041.082   -16076902.937 7 -12382155.677 8
  23009606.855    -1146496.847 3   -781487.766 2
 95  2 19 17 22 29.9960000  0  7 25 18 14 15 22 29 19
  22634497.090     5339679.482 5   4140284.750 5
  22061847.762   -10457272.992 5  -7951047.708 5
  19003431.738   -13229329.324 7 -10229057.766 8
  23350463.629     6957264.530 4   5394899.873 2
  19875680.949   -15438802.505 7 -11848915.852 9
  20183919.770   -16177376.842 7 -12460447.028 8
  22982425.004    -1289358.184 3   -892808.253 3
 95  2 19 17 22 59.9960000  0  7 25 18 14 15 22 29 19
  22640674.004     5372152.172 5   4165588.069 5
  22036348.324   -10591273.416 5  -8055463.604 5
  18994234.238   -13277646.983 7 -10266707.916 8
  23357947.160     6996559.066 4   5425518.877 3
  19864420.145   -15497979.886 7 -11895028.094 9
  20164794.637   -16277873.867 7 -12538756.398 8
  22955256.012    -1432148.881 4  -1004073.700 2
 95  2 19 17 23 29.9950000  0  7 25 18 14 15 22 29 19
  22646832.812     5404523.754 5   4190812.581 5
  22010827.741   -10725359.937 5  -8159946.589 5
  18985125.163   -13325511.984 7 -10304005.331 8
  23365380.202     7035643.415 4   5455974.100 2
  19853255.608   -15556660.047 7 -11940752.880 9
  20145667.265   -16378386.944 7 -12617078.268 8
  22928088.093    -1574879.067 4  -1115291.953 2
 95  2 19 17 23 59.9950000  0  7 25 18 14 15 22 29 19
  22652978.921     5436827.877 5   4215984.562 5
  21985307.015   -10859488.569 5  -8264462.384 5
  18976110.687   -13372901.176 7 -10340931.992 8
  23372786.601     7074552.899 4   5486293.071 3
  19842188.476   -15614814.719 7 -11986068.205 9
  20126547.444   -16478864.312 7 -12695372.314 8
  22900949.694    -1717532.483 5  -1226450.362 1
 95  2 19 17 24 29.9950000  0  7 25 18 14 15 22 29 19
  22659105.304     5469028.277 5   4241075.728 5
  21959770.530   -10993684.592 5  -8369030.693 6
  18967179.304   -13419829.560 7 -10377499.582 8
  23380149.124     7113262.900 4   5516456.589 1
  19831217.476   -15672463.204 7 -12030989.102 9
  20107434.843   -16579300.858 6 -12773634.556 8
  22873815.726    -1860120.211 4  -1337557.696 3
 95  2 19 17 24 59.9950000  0  7 25 18 14 15 22 29 19
  22665212.843     5501105.652 5   4266071.003 5
  21934216.015   -11127973.984 5  -8473671.769 5
  18958335.843   -13466304.506 7 -10413713.845 8
  23387473.772     7151744.883 4   5546442.417 2
  19820341.327   -15729612.075 7 -12075520.690 9
  20088326.405   -16679721.454 6 -12851884.365 8
  22846688.304    -2002655.083 3  -1448623.794 3
 95  2 19 17 25 29.9950000  0  7 25 18 14 15 22 29 19
  22671297.765     5533090.250 5   4290994.014 5
  21908645.827   -11262322.111 5  -8578358.606 6
  18949586.038   -13512292.615 7 -10449548.763 8
  23394758.937     7190023.130 4   5576269.508 1
  19809563.780   -15786241.528 7 -12119647.541 9
  20069224.796   -16780099.644 7 -12930101.131 8
  22819572.272    -2145102.097 3  -1559621.436 3
 95  2 19 17 25 59.9950000  0  7 25 18 14 15 22 29 19
  22677369.929     5564998.111 5   4315857.220 5
  21883071.780   -11396724.155 5  -8683087.443 6
  18940929.374   -13557788.397 7 -10485000.043 8
  23402007.562     7228100.585 4
  19798885.765   -15842351.852 7 -12163369.874 9
  20050132.913   -16880432.352 7 -13008282.458 8
  22792492.569    -2287456.394 4  -1670546.820 4
 95  2 19 17 26 29.9950000  0  7 25 18 14 15 22 29 19
  22683429.312     5596830.058 5   4340661.257 5
  21857486.780   -11531188.977 5  -8787865.203 6
  18932365.405   -13602795.615 7 -10520070.619 8
  23409205.679     7265968.384 3        -0.03212
  19788306.257   -15897948.420 7 -12206691.867 9
  20031042.015   -16980743.729 7 -13086447.168 8
  22765420.882    -2429729.080 5  -1781408.598 5
 95  2 19 17 26 59.9950000  0  7 25 18 14 15 22 29 19
  22689475.663     5628596.672 5   4365414.376 5
  21831892.772   -11665687.889 5  -8892669.534 6
  18923890.772   -13647321.956 7 -10554766.490 8
  23416368.874     7303626.139 3     29343.586 2
  19777824.898   -15953031.108 7 -12249613.432 9
  20011957.429   -17081042.628 7 -13164602.152 8
  22738353.843    -2571932.430 4  -1892216.405 5
 95  2 19 17 27 29.9950000  0  7 25 18 14 15 22 29 19
  22695506.663     5660295.221 5   4390114.504 4
  21806287.046   -11800223.537 5  -8997502.485 6
  18915502.351   -13691396.233 7 -10589110.101 8
  23423494.593     7341073.512 2     58523.289 2
  19767441.101   -16007606.025 7 -12292139.334 9
  19992876.062   -17181316.094 7 -13242737.328 8
  22711310.819    -2714088.255 3  -2002987.124 4
 95  2 19 17 27 59.9950000  0  7 25 18 14 15 22 29 19
  22701531.679     5691945.710 5   4414777.120 5
  21780684.233   -11934782.568 5  -9102353.663 6
  18907205.687   -13734989.535 7 -10623078.936 8
  23430585.741     7378335.217 2     87558.271 2
  19757157.062   -16061642.320 7 -12334245.540 9
  19973806.679   -17281528.487 7 -13320824.911 8
  22684273.491    -2856177.400 3  -2113705.890 4
 95  2 19 17 28 29.9950000  0  7 25 18 14 15 22 29 19
  22707541.554     5723547.128 5   4439401.540 5
  21755076.226   -12069358.361 5  -9207217.895 6
  18899007.718   -13778085.368 7 -10656660.122 8
  23437644.140     7415419.498 2    116455.049 2
  19746976.772   -16115135.762 7 -12375928.745 9
  19954749.804   -17381662.510 7 -13398851.435 8
  22657242.929    -2998182.708 3  -2224359.374 5
 95  2 19 17 28 59.9950000  0  7 25 18 14 15 22 29 19
  22713551.155     5755107.017 5   4463993.561 5
  21729459.030   -12203959.890 5  -9312102.179 5
  18890903.562   -13820679.477 7 -10689850.369 8
  23444668.241     7452324.935 2    145212.443 1
  19736902.077   -16168082.473 7 -12417185.927 9
  19935714.468   -17481701.706 7 -13476804.053 9
  22630237.679    -3140094.256 4  -2334939.797 5
 95  2 19 17 29 29.9950000  0  6 25 18 14 22 29 19
  22719544.530     5786617.971 5   4488547.462 5
  21703834.147   -12338625.563 5  -9417036.464 6
  18882889.882   -13862771.994 7 -10722649.759 8
  19726931.358   -16220493.365 7 -12458025.580 9
  19916696.444   -17581641.680 7 -13554679.360 9
  22603257.921    -3281892.864 4  -2445432.200 5
 95  2 19 17 29 59.9950000  0  6 25 18 14 22 29 19
  22725528.569     5818052.477 5   4513041.817 5
  21678194.952   -12473374.404 5  -9522035.537 5
  18874976.640   -13904368.123 7 -10755062.347 8
  19717054.116   -16272388.766 7 -12498463.554 9
  19897691.616   -17681518.818 7 -13632505.708 9
  22576298.593    -3423577.555 5  -2555835.814 5
 95  2 19 17 30 29.9950000  0  6 25 18 14 22 29 19
  22731489.460     5849396.874 5   4537465.925 5
  21652535.655   -12608209.478 5  -9627101.795 5
  18867152.710   -13945492.990 7 -10787107.721 8
  19707273.116   -16323778.723 7 -12538507.666 9
  19878687.882   -17781369.679 7 -13710311.571 9
  22549354.921    -3565156.389 5  -2666156.965 4
 95  2 19 17 30 59.9950000  0  6 25 18 14 22 29 19
  22737437.577     5880659.424 5   4561826.291 4
  21626865.179   -12743114.070 5  -9732222.229 5
  18859412.327   -13986146.282 7 -10818785.627 9
  19697597.140   -16374637.284 7 -12578137.717 9
  19859693.843   -17881193.874 7 -13788096.646 9
  22522431.991    -3706617.842 5  -2776386.645 3
 95  2 19 17 31 29.9950000  0  6 25 18 14 22 29 19
  22743373.413     5911841.671 5   4586124.061 5
  21601186.015   -12878058.110 5  -9837373.396 5
  18851773.155   -14026302.690 7 -10850076.356 9
  19688026.421   -16424930.377 7 -12617327.145 9
  19840703.921   -17980982.553 7 -13865854.057 9
  22495541.507    -3847947.598 4  -2886513.689 3
 95  2 19 17 31 59.9950000  0  6 25 18 14 22 29 19
  22749290.546     5942940.429 5   4610356.751 5
  21575504.507   -13013012.865 6  -9942532.912 5
  18844225.866   -14065954.445 7 -10880973.841 9
  19678566.710   -16474644.967 7 -12656065.782 8
  19821722.913   -18080731.777 7 -13943580.716 9
  22468667.835    -3989167.345 4  -2996555.031 2
 95  2 19 17 32 29.9950000  0  6 25 18 14 22 29 19
  22755192.976     5973940.489 5   4634512.558 5
  21549820.655   -13147988.081 6 -10047708.366 5
  18836775.905   -14105117.013 7 -10911490.149 9
  19669209.882   -16523806.846 7 -12694373.732 9
  19802750.007   -18180435.566 7 -14021271.980 9
  22441815.468    -4130296.503 5  -3106525.767 3
 95  2 19 17 32 59.9950000  0  6 25 18 14 22 29 19
  22761070.507     6004850.061 5   4658597.840 4
  21524131.702   -13282972.381 6 -10152890.897 5
  18829419.429   -14143762.451 7 -10941603.495 9
  19659965.343   -16572399.045 7 -12732237.782 9
  19783791.054   -18280059.526 7 -14098901.036 9
  22414976.452    -4271315.270 5  -3216410.508 3
 95  2 19 17 33 29.9950000  0  6 25 18 14 22 29 19
  22766941.202     6035674.843 5   4682617.054 5
  21498448.460   -13417953.521 6 -10258070.967 5
  18822170.085   -14181871.387 7 -10971298.781 8
  19650822.835   -16620427.577 7 -12769662.614 9
  19764854.187   -18379579.068 7 -14176448.732 9
  22388163.030    -4412211.317 5  -3326199.608 4
 95  2 19 17 33 59.9950000  0  6 25 18 14 22 29 19
  22772792.108     6066445.591 5   4706594.159 5
  21472760.124   -13552918.499 6 -10363238.436 5
  18815019.562   -14219438.231 7 -11000571.670 8
  19641792.577   -16667900.219 7 -12806654.289 9
  19745941.819   -18478961.856 7 -14253889.857 8
  22361375.944    -4552959.847 4  -3435873.741 5
 95  2 19 17 34 29.9950000  0  6 25 18 14 22 29 19
  22778638.335     6097149.797 5   4730519.400 5
  21447082.171   -13687884.566 6 -10468406.766 5
  18807973.679   -14256479.724 7 -11029435.206 8
  19632857.882   -16714837.611 7 -12843228.872 8
  19727048.233   -18578238.512 7 -14331248.298 8
  22334623.319    -4693562.861 5  -3545434.477 5
 95  2 19 17 34 59.9950000  0  6 25 18 14 22 29 19
  22784468.108     6127801.391 5   4754403.646 4
  21421401.296   -13822836.488 6 -10573564.061 5
  18801026.796   -14292971.565 7 -11057870.431 8
  19624033.874   -16761219.107 7 -12879370.298 8
  19708178.608   -18677401.148 7 -14408517.885 8
  22307896.812    -4834010.752 4  -3654874.341 5
 95  2 19 17 35 29.9950000  0  6 25 18 14 22 29 19
  22790291.304     6158387.798 5   4778237.123 5
  21395717.710   -13957796.903 6 -10678727.992 5
  18794182.046   -14328943.945 7 -11085900.891 8
  19615304.085   -16807082.719 7 -12915108.173 8
  19689329.929   -18776463.233 7 -14485709.118 9
  22281191.726    -4974331.209 4  -3764214.961 5
 95  2 19 17 35 59.9950000  0  6 25 18 14 22 29 19
  22796100.491     6188911.081 5   4802021.465 4
  21370031.140   -14092784.287 6 -10783912.933 5
  18787435.843   -14364406.772 7 -11113534.292 8
  19606675.765   -16852429.455 7 -12950443.287 9
  19670493.780   -18875439.304 7 -14562833.337 9
  22254520.210    -5114526.666 4  -3873458.137 5
 95  2 19 17 36 29.9950000  0  6 25 18 14 22 29 19
  22801886.319     6219345.017 4   4825736.072 5
  21344335.624   -14227817.218 6 -10889133.363 5
  18780778.890   -14399365.635 7 -11140774.997 8
  19598145.687   -16897262.641 7 -12985378.235 9
  19651671.265   -18974355.227 7 -14639910.676 9
  22227863.812    -5254611.808 5  -3982615.317 5
 95  2 19 17 36 59.9940000  0  6 25 18 14 22 29 19
  22807663.541     6249675.199 5   4849369.887 5
  21318629.111   -14362908.262 6 -10994399.066 5
  18774224.604   -14433833.978 7 -11167633.471 8
  19589709.127   -16941580.767 7 -13019911.836 9
  19632864.752   -19073186.985 7 -14716922.433 9
  22201230.939    -5394574.533 5  -4091677.134 4
 95  2 19 17 37 29.9940000  0  6 25 18 14 22 29 19
  22813422.158     6279939.511 5   4872952.379 5
  21292913.494   -14498029.658 5 -11099688.456 5
  18767758.674   -14467798.681 7 -11194099.490 8
  19581385.455   -16985345.590 7 -13054014.299 9
  19614077.471   -19171910.734 7 -14793850.019 9
  22174627.104    -5534375.402 5  -4200612.839 4
 95  2 19 17 37 59.9940000  0  6 25 18 14 22 29 19
  22819162.885     6310114.461 5   4896465.239 5
  21267194.369   -14633185.248 5 -11205004.466 5
  18761388.643   -14501265.362 7 -11220177.449 8
  19573158.650   -17028563.413 7 -13087690.520 9
  19595307.682   -19270554.720 7 -14870715.457 9
  22148046.065    -5674026.124 5  -4309431.536 4
 95  2 19 17 38 29.9940000  0  6 25 18 14 22 29 19
  22824891.275     6340203.041 4   4919910.790 5
  21241473.955   -14768351.990 5 -11310329.188 5
  18755120.549   -14534222.925 7 -11245858.684 8
  19565037.690   -17071223.240 7 -13120931.948 8
  19576551.791   -19369119.853 7 -14947519.449 9
  22121503.486    -5813521.406 5  -4418129.106 4
 95  2 19 17 38 59.9940000  0  6 25 18 14 22 29 19
  22830592.830     6370190.934 3   4943277.855 5
  21215749.377   -14903542.020 5 -11415672.033 6
  18748937.057   -14566704.396 7 -11271168.945 8
  19557026.057   -17113350.440 7 -13153758.343 9
  19557805.533   -19467620.442 7 -15024273.148 9
  22094985.588    -5952891.099 5  -4526728.862 4
 95  2 19 17 39 29.9940000  0  6 25 18 14 22 29 19
  22836289.002     6400098.248 4   4966582.152 4
  21190018.369   -15038745.285 5 -11521025.206 6
  18742848.236   -14598695.625 7 -11296097.193 8
  19549110.135   -17154947.646 7 -13186171.763 9
  19539072.213   -19566072.267 7 -15100988.856 9
  22068480.400    -6092162.537 5  -4635252.044 5
 95  2 19 17 39 59.9940000  0  6 25 18 14 22 29 19
  22841971.713     6429956.083 5   4989847.915 5
  21164292.604   -15173940.862 5 -11626372.397 6
  18736861.283   -14630165.622 7 -11320619.295 8
  19541297.596   -17195995.761 7 -13218157.319 9
  19520349.893   -19664458.647 7 -15177653.577 9
  22041999.111    -6231327.053 5  -4743691.896 5
 95  2 19 17 40 29.9940000  0  6 25 18 14 22 29 19
  22847644.182     6459758.273 5   5013070.317 5
  21138564.252   -15309142.453 5 -11731724.274 6
  18730968.861   -14661138.339 7 -11344753.913 8
  19533587.104   -17236501.331 7 -13249720.107 9
  19501638.440   -19762786.615 7 -15254272.773 8
  22015531.604    -6370395.226 5  -4852056.704 5
 95  2 19 17 40 59.9940000  0  6 25 18 14 22 29 19
  22853298.697     6489491.083 5   5036238.628 5
  21112831.924   -15444353.072 5 -11837083.183 6
  18725168.682   -14691615.913 7 -11368502.692 8
  19525980.338   -17276473.090 7 -13280866.949 9
  19482943.018   -19861035.012 7 -15330829.973 8
  21989092.643    -6509368.047 5  -4960347.204 5
 95  2 19 17 41 29.9940000  0  6 25 18 14 22 29 19
  22858944.041     6519161.758 5   5059358.566 4
  21087102.635   -15579557.159 5 -11942436.986 6
  18719467.510   -14721576.962 7 -11391848.990 8
  19518482.049   -17315890.378 7 -13311581.733 9
  19464262.721   -19959189.610 7 -15407314.074 8
  21962664.354    -6648216.067 4  -5068540.436 5
 95  2 19 17 41 59.9940000  0  6 25 18 14 22 29 19
  22864569.721     6548727.588 3   5082396.814 3
  21061377.190   -15714768.640 5 -12047796.585 6
  18713859.518   -14751046.527 7 -11414812.317 8
  19511085.986   -17354776.560 7 -13341882.683 9
  19445602.275   -20057257.075 7 -15483730.285 9
  21936272.783    -6786935.396 4  -5176633.410 4
 95  2 19 17 42 29.9940000  0  6 25 18 14 22 29 19
  22870177.955     6578170.629 4   5105339.333 4
  21035646.596   -15849989.195 5 -12153163.236 6
  18708343.994   -14780020.702 7 -11437389.622 8
  19503784.346   -17393136.535 7 -13371773.593 9
  19426963.166   -20155211.282 7 -15560058.239 9
  21909900.111    -6925522.216 5  -5284623.122 3
 95  2 19 17 42 59.9940000  0  6 25 18 14 22 29 19
  22875751.822     6607472.250 5   5128171.688 3
  21009912.822   -15985220.747 5 -12258538.468 6
  18702925.150   -14808497.195 7 -11459579.131 8
  19496582.268   -17430983.841 7 -13401265.006 8
  19408343.979   -20253051.696 7 -15636297.517 9
  21883552.846    -7063981.056 5  -5392513.077 3
 95  2 19 17 43 29.9940000  0  6 25 18 14 22 29 19
  22881300.033     6636633.901 5   5150894.959 4
  20984171.315   -16120474.156 5 -12363930.710 6
  18697598.666   -14836485.448 7 -11481388.177 8
  19489477.479   -17468325.929 7 -13430362.762 9
  19389742.252   -20350801.967 7 -15712466.553 9
  21857224.049    -7202338.365 5  -5500323.913 5
 95  2 19 17 43 59.9940000  0  6 25 18 14 22 29 19
  22886828.947     6665674.018 5   5173523.587 4
  20958434.346   -16255733.190 5 -12469327.342 6
  18692371.807   -14863964.566 7 -11502800.505 9
  19482468.182   -17505149.682 7 -13459056.597 9
  19371162.432   -20448442.820 7 -15788550.325 9
  21830915.439    -7340585.323 5  -5608048.736 4
 95  2 19 17 44 29.9940000  0  6 25 18 14 22 29 19
  22892330.877     6694599.989 5   5196063.160 3
  20932691.994   -16391002.356 6 -12574731.867 6
  18687239.541   -14890931.984 7 -11523814.105 9
  19475560.635   -17541447.209 7 -13487340.401 8
  19352600.635   -20545980.725 7 -15864553.881 9
  21804628.166    -7478729.381 5  -5715693.420 5
 95  2 19 17 44 59.9940000  0  5 18 14 22 29 19
  20906954.088   -16526265.272 6 -12680131.509 6
  18682206.752   -14917377.937 7 -11544421.356 9
  19468756.768   -17577196.776 7 -13515197.210 8
  19334058.525   -20643423.592 7 -15940483.384 9
  21778358.549    -7616756.226 5  -5823246.763 5
 95  2 19 17 45 29.9940000  0  5 18 14 22 29 19
  20881214.072   -16661517.519 6 -12785522.848 6
  18677276.260   -14943295.271 7 -11564616.710 9
  19462059.885   -17612383.252 7 -13542615.257 8
  19315537.135   -20740760.307 7 -16016330.166 9
  21752117.807    -7754635.715 5  -5930685.282 5
 95  2 19 17 45 59.9940000  0  5 18 14 22 29 19
  20855481.674   -16796742.906 6 -12890893.243 6
  18672444.002   -14968680.008 7 -11584397.053 9
  19455475.525   -17646990.133 7 -13569581.666 8
  19297034.307   -20837976.721 7 -16092083.214 9
  21725921.064    -7892332.891 5  -6037981.753 5
 95  2 19 17 46 29.9940000  0  5 18 14 22 29 19
  20829754.947   -16931959.615 6 -12996256.889 6
  18667709.768   -14993561.251 7 -11603785.055 9
  19448995.760   -17681038.970 7 -13596113.236 8
  19278553.822   -20935097.482 7 -16167761.724 9
  21699742.291    -8029863.563 5  -6145148.475 5
 95  2 19 17 46 59.9940000  0  5 18 14 22 29 19
  20804019.002   -17067190.098 6 -13101631.260 6
  18663062.432   -15017981.089 7 -11622813.519 8
  19442617.041   -17714576.056 7 -13622246.038 9
  19260085.221   -21032153.571 7 -16243389.843 9
  21673604.455    -8167251.241 5  -6252203.761 5
 95  2 19 17 47 29.9940000  0  5 18 14 22 29 19
  20778281.986   -17202433.918 6 -13207016.025 6
  18658499.580   -15041952.426 7 -11641492.509 8
  19436330.361   -17747613.285 7 -13647989.340 9
  19241631.127   -21129136.200 7 -16318960.722 9
  21647486.190    -8304504.886 5  -6359154.572 5
 95  2 19 17 47 59.9940000  0  5 18 14 22 29 19
  20752553.682   -17337646.506 6 -13312376.450 6
  18654032.838   -15065432.521 7 -11659788.720 8
  19430145.729   -17780117.254 7 -13673317.122 9
  19223197.174   -21226005.733 7 -16394443.478 9
  21621395.104    -8441613.704 5  -6465992.529 5
 95  2 19 17 48 29.9940000  0  5 18 14 22 29 19
  20726825.994   -17472831.130 6 -13417715.083 6
  18649661.385   -15088409.040 7 -11677692.528 8
  19424055.713   -17812098.737 7 -13698237.771 8
  19204788.236   -21322742.135 7 -16469822.494 9
  21595334.416    -8578579.355 5  -6572718.949 5
 95  2 19 17 48 59.9940000  0  5 18 14 22 29 19
  20701105.854   -17607991.019 6 -13523034.441 6
  18645386.440   -15110884.744 7 -11695206.085 8
  19418070.705   -17843558.269 7 -13722751.707 8
  19186407.549   -21419336.282 7 -16545090.663 9
  21569293.111    -8715401.058 5  -6679333.201 4
 95  2 19 17 49 29.9940000  0  5 18 14 22 29 19
  20675390.111   -17743127.981 6 -13628335.940 6
  18641206.830   -15132845.662 7 -11712318.522 8
  19412184.908   -17874476.230 7 -13746843.636 8
  19168058.682   -21515769.687 7 -16620233.584 9
  21543283.143    -8852073.455 5  -6785831.139 4
 95  2 19 17 49 59.9930000  0  5 18 14 22 29 19
  20649666.677   -17878323.516 6 -13733683.077 6
  18637110.567   -15154368.032 7 -11729089.225 8
  19406392.778   -17904930.720 7 -13770574.424 8
  19149722.067   -21612114.992 7 -16695307.855 9
  21517291.786    -8988669.791 5  -6892269.793 5
 95  2 19 17 50 29.9930000  0  5 18 14 22 29 19
  20623926.388   -18013581.093 6 -13839078.561 6
  18633094.903   -15175460.186 7 -11745524.703 8
  19400686.278   -17934919.340 7 -13793942.192 8
  19131402.630   -21708380.372 7 -16770319.841 9
  21491314.786    -9125183.114 5  -6998643.778 5
 95  2 19 17 50 59.9930000  0  5 18 14 22 29 19
  20598188.661   -18148838.639 6 -13944474.005 6
  18629174.317   -15196077.875 7 -11761590.458 8
  19395080.614   -17964380.482 7 -13816898.949 9
  19113107.544   -21804530.828 7 -16845242.275 9
  21465364.763    -9261565.199 5  -7104915.482 5
 95  2 19 17 51 29.9930000  0  5 18 14 22 29 19
  20572451.872   -18284082.222 6 -14049858.589 6
  18625345.427   -15216199.488 7 -11777269.669 8
  19389572.294   -17993305.814 7 -13839438.183 8
  19094833.216   -21900555.745 7 -16920066.884 9
  21439434.981    -9397815.470 5  -7211084.501 5
 95  2 19 17 51 59.9930000  0  5 18 14 22 29 19
  20546726.513   -18419271.008 6 -14155200.473 6
  18621614.083   -15235792.802 7 -11792537.207 9
  19384176.888   -18021673.771 7 -13861543.105 8
  19076588.278   -21996436.948 7 -16994779.503 9
  21413538.927    -9533901.448 5  -7317125.474 6
 95  2 19 17 52 29.9930000  0  5 18 14 22 29 19
  20521009.575   -18554421.189 6 -14260512.263 6
  18617984.614   -15254870.397 7 -11807402.908 9
  19378881.450   -18049509.067 7 -13883232.949 9
  19058364.325   -22092206.526 7 -17069405.151 9
  21387674.271    -9669823.633 5  -7423038.843 5
 95  2 19 17 52 59.9930000  0  5 18 14 22 29 19
  20495298.052   -18689532.827 6 -14365794.035 6
  18614455.521   -15273424.910 7 -11821860.994 9
  19373681.966   -18076813.255 7 -13904508.974 8
  19040163.513   -22187850.992 7 -17143933.309 9
  21361840.255    -9805576.150 5  -7528819.977 5
 95  2 19 17 53 29.9930000  0  5 18 14 22 29 19
  20469591.950   -18824622.689 6 -14471058.814 6
  18611018.208   -15291476.492 7 -11835927.175 9
  19368585.489   -18103615.693 7 -13925394.002 8
  19021985.411   -22283374.052 7 -17218366.862 9
  21336036.880    -9941170.402 5  -7634477.778 5
 95  2 19 17 53 59.9930000  0  5 18 14 22 29 19
  20443890.419   -18959686.768 6 -14576303.516 6
  18607678.677   -15309022.861 7 -11849599.704 8
  19363578.692   -18129916.946 7 -13945888.484 8
  19003833.856   -22378765.387 7 -17292697.775 9
  21310267.067   -10076590.954 5  -7740000.243 5
 95  2 19 17 54 29.9930000  0  5 18 14 22 29 19
  20418185.396   -19094756.663 6
  18604433.833   -15326092.641 7 -11862900.865 8
  19358661.942   -18155745.671 7 -13966014.763 8
  18985705.442   -22474030.612 7 -17366930.424 9
  21284524.599   -10211867.825 5
 95  2 19 17 54 59.9930000  0  5 18 14 22 29 19
  20392480.208   -19229834.727 6
  18601268.224   -15342711.180 7 -11875850.400 9
  19353837.755   -18181107.341 7 -13985777.116 8
  18967603.388   -22569161.278 7 -17441058.215 9
  21258803.653   -10347034.684 5
 95  2 19 17 55 29.9930000  0  5 18 14 22 29 19
  20366775.810   -19364919.013 6
  18598190.192   -15358889.379 7 -11888456.814 9
  19349103.114   -18206001.449 7 -14005175.136 8
  18949524.872   -22664166.020 7 -17515087.884 9
  21233103.661   -10482099.879 5
 95  2 19 17 55 59.9930000  0  5 18 14 22 29 19
  20341074.138   -19499983.495 6
  18595204.513   -15374596.419 7 -11900696.093 9
  19344457.146   -18230387.970 7 -14024177.631 8
  18931473.653   -22759021.964 7 -17589001.600 9
  21207429.794   -10617029.554 5
 95  2 19 17 56 29.9930000  0  5 18 14 22 29 19
  20315379.810   -19635009.840 6 -15102529.107 6
  18592299.646   -15389835.691 7 -11912570.866 9
  19339918.716   -18254250.733 7 -14042772.005 9
  18913448.935   -22853744.252 7 -17662811.160 9
  21181775.622   -10751822.256 5  -8017343.213 5
 95  2 19 17 56 59.9930000  0  5 18 14 22 29 19
  20289690.106   -19769990.607 6 -15207708.896 6
  18589492.614   -15404612.553 7 -11924085.334 9
  19335478.771   -18277577.879 7 -14060949.010 9
  18895445.028   -22948349.960 7 -17736529.884 9
  21156153.622   -10886467.723 5  -8122261.693 5
 95  2 19 17 57 29.9930000  0  5 18 14 22 29 19
  20264018.302   -19904909.335 6 -15312840.351 6
  18586773.239   -15418879.470 7 -11935202.450 9
  19331146.435   -18300349.354 7 -14078693.022 9
  18877468.216   -23042825.415 7 -17810147.111 9
  21130565.825   -11020929.535 5  -8227037.058 5
 95  2 19 17 57 59.9930000  0  5 18 14 22 29 19
  20238352.263   -20039781.748 6 -15417935.712 6
  18584157.825   -15432640.461 7 -11945925.319 9
  19326914.372   -18322592.470 7 -14096025.341 9
  18859509.333   -23137195.729 7 -17883682.415 9
  21105012.286   -11155225.818 5  -8331683.464 5
 95  2 19 17 58 29.9930000  0  5 18 14 22 29 19
  20212699.481   -20174610.244 6 -15522996.861 6
  18581632.575   -15445900.797 7 -11956258.075 9
  19322781.747   -18344312.092 7 -14112949.740 9
  18841574.341   -23231448.146 7 -17957125.863 9
  21079485.731   -11289367.167 5  -8436209.130 5
 95  2 19 17 58 59.9930000  0  5 18 14 22 29 19
  20187041.763   -20309422.736 6 -15628045.528 6
  18579205.216   -15458664.786 7 -11966204.075 9
  19318742.372   -18365531.406 7 -14129484.288 9
  18823662.333   -23325579.102 7 -18030474.662 9
  21053985.442   -11423365.239 5  -8540623.138 5
 95  2 19 17 59 29.9930000  0  5 18 14 22 29 19
  20161393.083   -20444207.774 6 -15733072.802 6
  18576874.997   -15470909.110 7 -11975745.141 8
  19314801.552   -18386244.426 7 -14145624.328 9
  18805778.310   -23419559.403 7 -18103706.072 9
  21028516.216   -11557213.737 5  -8644920.581 5
 95  2 19 17 59 59.9930000  0  5 18 14 22 29 19
  20135751.872   -20578956.533 6 -15838071.812 6
  18574639.646   -15482668.432 7 -11984908.294 8
  19310955.442   -18406451.848 7 -14161370.392 9
  18787922.919   -23513387.547 7 -18176818.918 9
  21003068.591   -11690925.234 5  -8749111.290 5
 95  2 19 18  0 29.9930000  0  5 18 14 22 29 19
  20110118.075   -20713665.857 6 -15943040.091 6
  18572487.271   -15493960.783 7 -11993707.550 8
  19307209.231   -18426149.047 7 -14176718.880 9
  18770100.567   -23607049.527 7 -18249802.285 9
  20977654.169   -11824495.973 5  -8853192.315 5
 95  2 19 18  0 59.9930000  0  5 18 14 22 29 19
  20084497.013   -20848291.672 6 -16047943.301 6
  18570435.786   -15504758.541 7 -12002121.423 8
  19303558.356   -18445322.965 7 -14191659.619 9
  18752312.122   -23700524.436 7 -18322639.884 9
  20952265.310   -11957898.713 5  -8957142.440 5
 95  2 19 18  1 29.9930000  0  5 18 14 22 29 19
  20058897.880   -20982820.446 6 -16152770.892 6
  18568469.591   -15515065.737 7 -12010153.052 8
  19300012.755   -18463974.496 7 -14206193.306 9
  18734561.435   -23793800.533 7 -18395322.553 9
  20926913.177   -12091132.254 5  -9060960.737 5
 95  2 19 18  1 59.9930000  0  5 18 14 22 29 19
  20033316.536   -21117257.570 6 -16257527.065 6
  18566601.864   -15524899.380 7 -12017815.677 8
  19296556.216   -18482111.090 7 -14220325.741 9
  18716847.833   -23886885.731 7 -18467856.483 9
  20901590.567   -12224197.827 5  -9164648.128 6
 95  2 19 18  2 29.9930000  0  5 18 14 22 29 19
  20007740.771   -21251659.285 6 -16362255.645 6
  18564815.810   -15534279.457 7 -12025124.859 8
  19293196.810   -18499773.395 7 -14234088.600 9
  18699165.653   -23979809.661 7 -18540264.734 9
  20876295.646   -12357112.761 5  -9268218.149 6
 95  2 19 18  2 59.9920000  0  5 18 14 22 29 19
  19982171.797   -21386020.940 6 -16466953.009 6
  18563118.766   -15543189.152 7 -12032067.507 9
  19289931.547   -18516942.664 7 -14247467.281 9
  18681517.930   -24072549.308 7 -18612529.398 9
  20851042.406   -12489859.415 6  -9371657.045 6
 95  2 19 18  3 29.9920000  0  5 18 14 22 29 19
  19956607.031   -21520380.874 6 -16571649.036 6
  18561512.352   -15551652.597 7 -12038662.429 9
  19286754.703   -18533619.697 7 -14260462.397 9
  18663900.664   -24165130.149 7 -18684670.312 9
  20825802.109   -12622462.886 5  -9474984.388 6
 95  2 19 18  3 59.9920000  0  5 18 14 22 29 19
  19931036.594   -21654741.274 6 -16676345.417 6
  18559978.281   -15559693.433 7 -12044928.062 9
  19283676.141   -18549810.033 7 -14273078.260 9
  18646309.102   -24257576.067 7 -18756706.091 9
  20800598.563   -12754938.966 5  -9578212.482 5
 95  2 19 18  4 29.9920000  0  5 18 14 22 29 19
  19905474.641   -21789060.556 6 -16781009.773 6
  18558535.336   -15567272.488 7 -12050833.844 9
  19280693.711   -18565494.372 7 -14285299.847 9
  18628746.883   -24349863.990 7 -18828618.749 9
  20775412.594   -12887268.754 5  -9681326.562 5
 95  2 19 18  4 59.9920000  0  5 18 14 22 29 19
  19879927.664   -21923317.586 6 -16885625.613 6
  18557181.016   -15574398.373 7 -12056386.513 9
  19277798.609   -18580689.521 7 -14297140.247 9
  18611208.141   -24442015.640 7 -18900425.226 9
  20750255.008   -13019471.527 5  -9784341.682 5
 95  2 19 18  5 29.9920000  0  5 18 14 22 29 19
  19854399.094   -22057478.005 6 -16990166.171 6
  18555917.680   -15581050.114 7 -12061569.711 9
  19274999.149   -18595400.504 7 -14308603.375 9
  18593701.711   -24534022.623 7 -18972118.975 9
  20725131.242   -13151519.735 5  -9887236.342 5
 95  2 19 18  5 59.9920000  0  5 18 14 22 29 19
  19828888.633   -22191527.496 6 -17094620.301 6
  18554746.359   -15587200.287 7 -12066362.082 9
  19272291.750   -18609632.200 7 -14319693.030 8
  18576225.016   -24625865.028 7 -19043684.478 9
  20700034.984   -13283378.001 5  -9989982.975 5
 95  2 19 18  6 29.9920000  0  5 18 14 22 29 19
  19803399.102   -22325487.714 6 -17199004.854 6
  18553668.055   -15592858.297 7 -12070770.958 9
  19269675.109   -18623401.551 7 -14330422.408 8
  18558777.852   -24717541.376 7 -19115120.589 9
  20674982.250   -13415037.622 5 -10092574.834 6
 95  2 19 18  6 59.9920000  0  5 18 14 22 29 19
  19777918.805   -22459375.074 6 -17303332.643 6
  18552681.813   -15598052.523 7 -12074818.440 9
  19267139.594   -18636708.452 7 -14340791.446 9
  18541363.984   -24809056.099 7 -19186430.758 9
  20649966.477   -13546503.881 5 -10195016.047 6
 95  2 19 18  7 29.9920000  0  5 18 14 22 29 19
  19752453.484   -22593194.081 6 -17407607.178 6
  18551783.398   -15602779.757 7 -12078502.047 8
  19264696.070   -18649539.189 7 -14350789.453 9
  18523981.578   -24900402.412 7 -19257609.694 9
  20624984.406   -13677778.478 5 -10297307.925 6
 95  2 19 18  7 59.9920000  0  5 18 14 22 29 19
  19727004.398   -22726932.805 6 -17511819.151 6
  18550968.125   -15607045.749 7 -12081826.227 8
  19262351.422   -18661872.992 7 -14360400.239 9
  18506634.680   -24991564.522 7 -19328645.101 9
  20600037.734   -13808868.654 5 -10399456.108 6
 95  2 19 18  8 29.9920000  0  5 18 14 22 29 19
  19701570.149   -22860597.759 6 -17615973.647 6
  18550238.234   -15610873.600 7 -12084809.012 8
  19260099.063   -18673719.079 7 -14369630.967 9
  18489321.969   -25082547.563 7 -19399540.978 9
  20575120.133   -13939810.644 5 -10501488.819 5
 95  2 19 18  8 59.9920000  0  5 18 14 22 29 19
  19676152.000   -22994176.201 6 -17720060.724 6
  18549599.078   -15614244.136 7 -12087435.450 8
  19257935.188   -18685077.576 7 -14378481.765 9
  18472046.211   -25173338.588 7 -19470287.220 9
  20550232.438   -14070603.547 6 -10603405.332 5
 95  2 19 18  9 29.9920000  0  5 18 14 22 29 19
  19650747.367   -23127669.863 6 -17824081.745 6
  18549049.484   -15617140.256 7 -12089692.207 8
  19255867.680   -18695944.526 7 -14386949.538 9
  18454809.141   -25263908.630 7 -19540861.291 9
  20525374.992   -14201226.547 6 -10705189.449 5
 95  2 19 18  9 59.9920000  0  5 18 14 22 29 19
  19625357.914   -23261082.407 6 -17928039.556 6
  18548589.234   -15619558.107 7 -12091576.290 8
  19253893.000   -18706317.245 7 -14395032.204 9
  18437621.492   -25354234.105 7 -19611244.777 9
  20500554.656   -14331670.365 5 -10806833.939 5
 95  2 19 18 10 29.9920000  0  5 18 14 22 29 19
  19599988.516   -23394409.948 6 -18031931.128 6
  18548225.727   -15621469.490 7 -12093065.714 8
  19252016.789   -18716183.401 7 -14402720.143 9
  18420479.086   -25444312.777 7 -19681435.946 9
  20475771.477   -14461910.413 6 -10908319.631 5
 95  2 19 18 10 59.9920000  0  5 18 14 22 29 19
  19574634.031   -23527656.288 6 -18135759.432 6
  18547958.555   -15622865.470 7 -12094153.536 8
  19250237.047   -18725539.462 7 -14410010.610 8
  18403380.180   -25534164.612 7 -19751450.373 9
  20451025.484   -14591939.498 5 -11009640.965 5
 95  2 19 18 11 29.9920000  0  5 18 14 22 29 19
  19549291.727   -23660825.841 6 -18239527.895 6
  18547784.789   -15623766.879 7 -12094855.977 8
  19248554.258   -18734388.290 7 -14416905.827 8
  18386322.680   -25623811.437 7 -19821305.042 9
  20426316.969   -14721782.176 5 -11110817.032 6
 95  2 19 18 11 59.9920000  0  5 18 14 22 29 19
  19523965.484   -23793921.665 6 -18343238.914 6
  18547705.023   -15624197.520 7
  19246960.899   -18742750.379 7 -14423421.767 8
  18369293.852   -25713297.659 7 -19891034.570 9
  20401639.570   -14851470.259 6 -11211872.662 6
 95  2 19 18 12 29.9920000  0  5 18 14 22 29 19
  19498653.367   -23926923.074 6 -18446876.360 6
  18547713.141   -15624153.989 7
  19245462.914   -18750618.955 7 -14429553.153 8
  18352297.797   -25802616.118 7 -19960633.371 9
  20376987.672   -14980995.072 5 -11312801.050 6
 95  2 19 18 12 59.9920000  0  5 18 14 22 29 19
  19473366.211   -24059813.217 6 -18550427.096 6
  18547811.070   -15623653.314 7
  19244057.992   -18758001.236 7 -14435305.602 8
  18335337.180   -25891741.613 7 -20030081.820 9
  20352372.195   -15110366.860 6 -11413610.206 6
 95  2 19 18 13 29.9920000  0  5 18 14 22 29 19
  19448098.961   -24192586.917 6 -18653887.103 6
  18547987.070   -15622728.393 7 -12094046.934 9
  19242741.977   -18764916.824 7 -14440694.408 8
  18318416.875   -25980657.444 7 -20099366.890 9
  20327779.445   -15239588.895 6 -11514302.670 6
 95  2 19 18 13 59.9920000  0  5 18 14 22 29 19
  19422860.586   -24325217.572 6 -18757235.638 7
  18548247.555   -15621356.079 7 -12092977.633 9
  19241517.609   -18771352.814 7 -14445709.495 8
  18301540.867   -26069335.858 7 -20168466.958 9
  20303228.367   -15368627.176 6 -11614851.927 6
 95  2 19 18 14 29.9920000  0  5 18 14 22 29 19
  19397649.172   -24457712.181 6 -18860478.180 6
  18548591.961   -15619545.015 7 -12091566.451 9
  19240378.711   -18777332.362 7 -14450368.919 8
  18284711.469   -26157780.237 7 -20237384.658 9
  20278707.781   -15497480.430 6 -11715257.009 6
 95  2 19 18 14 59.9920000  0  5 18 14 22 29 19
  19372463.430   -24590068.036 6 -18963612.584 7
  18549023.102   -15617288.157 7 -12089807.901 9
  19239329.523   -18782849.905 7 -14454668.327 8
  18267925.578   -26245991.656 7 -20306120.838 9
  20254225.367   -15626127.488 6 -11815501.411 5
 95  2 19 18 15 29.9910000  0  5 18 14 22 29 19
  19347295.761   -24722322.052 6 -19066667.637 7
  18549531.800   -15614606.451 7 -12087718.299 9
  19238363.378   -18787923.870 7 -14458622.099 8
  18251176.105   -26334011.203 7 -20374707.486 9
  20229782.073   -15754582.966 6 -11915596.524 5
 95  2 19 18 15 59.9910000  0  6 28 18 14 22 29 19
  22340953.940     -133758.766 3
  19322147.917   -24854463.644 6 -19169635.084 7
  18550129.534   -15611457.985 7 -12085264.997 8
  19237493.800   -18792513.398 7 -14462198.395 8
  18234466.355   -26421822.646 7 -20443131.993 9
  20205377.401   -15882829.717 6 -12015529.007 5
 95  2 19 18 16 29.9910000  0  6 28 18 14 22 29 19
  22315506.620     -267494.741 3        -0.38313
  19297019.440   -24986523.957 6 -19272539.214 7
  18550813.823   -15607870.674 7 -12082469.750 8
  19236705.401   -18796646.704 7 -14465419.173 8
  18217795.222   -26509429.832 7 -20511397.340 9
  20181007.284   -16010890.903 6 -12115316.895 5
 95  2 19 18 16 59.9910000  0  6 28 18 14 22 29 19
  22290057.987     -401196.602 3   -104183.515 3
  19271904.472   -25118505.533 6 -19375381.967 7
  18551582.831   -15603840.193 7 -12079329.162 8
  19236011.066   -18800300.419 7 -14468266.269 8
  18201166.105   -26596816.786 7 -20579491.076 9
  20156673.542   -16138777.573 6 -12214968.791 6
 95  2 19 18 17 29.9910000  0  6 28 18 14 22 29 19
  22264617.019     -534857.891 3   -208335.042 3
  19246807.800   -25250395.388 6 -19478153.266 7
  18552434.565   -15599358.900 7 -12075837.297 8
  19235407.105   -18803471.649 7 -14470737.383 8
  18184582.159   -26683969.670 7 -20647402.424 9
  20132365.784   -16266497.983 6 -12314491.155 6
 95  2 19 18 17 59.9910000  0  6 28 18 14 22 29 19
  22239198.347     -668478.639 3   -312454.987 3
  19221728.073   -25382184.429 6 -19580846.011 7
  18553373.698   -15594425.016 7 -12071992.766 8
  19234888.316   -18806184.780 7 -14472851.548 8
  18168041.276   -26770885.172 7 -20715128.796 9
  20108092.573   -16394053.746 6 -12413885.196 6
 95  2 19 18 18 29.9910000  0  6 28 18 14 22 29 19
  22213773.862     -802076.764 3   -416557.249 3
  19196663.417   -25513894.356 7 -19683477.102 7
  18554392.589   -15589069.346 7 -12067819.566 8
  19234450.972   -18808472.283 6 -14474634.045 8
  18151538.464   -26857601.781 7 -20782700.189 9
  20083849.941   -16521463.148 6 -12513165.219 6
 95  2 19 18 18 59.9910000  0  6 28 18 14 22 29 19
  22188355.464     -935660.324 3   -520648.212 2
  19171613.886   -25645526.295 7 -19786047.425 7
  18555487.347   -15583311.205 7 -12063332.764 8
  19234099.956   -18810343.053 6 -14476091.820 8
  18135069.448   -26944152.367 7 -20850142.197 9
  20059628.198   -16648732.656 5 -12612336.223 6
 95  2 19 18 19 29.9910000  0  6 28 18 14 22 29 19
  22162941.136    -1069212.507 4   -624714.778 2
  19146586.355   -25777050.487 7 -19888533.795 7
  18556661.034   -15577143.719 7 -12058526.982 8
  19233818.284   -18811803.493 6 -14477229.852 8
  18118636.042   -27030515.182 7 -20917437.899 9
  20035445.120   -16775830.718 5 -12711373.629 6
 95  2 19 18 19 59.9910000  0  6 28 18 14 22 29 19
  22137533.026    -1202739.595 3   -728761.723 2
  19121577.472   -25908478.904 7 -19990945.536 7
  18557910.136   -15570586.015 7 -12053417.130 8
  19233621.800   -18812855.831 7 -14478049.887 8
  18102235.120   -27116693.989 7 -20984590.221 9
  20011288.987   -16902759.099 5 -12810278.848 6
 95  2 19 18 20 29.9910000  0  6 28 18 14 22 29 19
  22112128.714    -1336211.988 2   -832766.072 2
  19096586.464   -26039794.309 7 -20093269.212 7
  18559233.878   -15563619.744 7 -12047988.909 8
  19233503.394   -18813461.123 6 -14478521.576 8
  18085879.019   -27202654.558 7 -21051572.482 9
  19987171.948   -17029501.028 6 -12909038.760 6
 95  2 19 18 20 59.9910000  0  6 28 18 14 22 29 19
  22086740.816    -1469643.493 2   -936738.531 2
  19071620.542   -26171004.293 7 -20195510.741 7
  18560634.105   -15556262.844 7 -12042256.305 8
  19233469.050   -18813654.408 7
  18069562.815   -27288387.096 7 -21118377.057 9
  19963079.972   -17156097.130 6 -13007685.026 6
 95  2 19 18 21 29.9910000  0  6 28 18 14 22 29 19
  22061366.917    -1603009.870 3  -1040660.240 3
  19046675.519   -26302086.066 7 -20297652.359 7
  18562112.394   -15548489.798 7 -12036199.420 8
  19233516.105   -18813419.214 6
  18053299.550   -27373859.571 7 -21184978.986 9
  19939020.355   -17282529.863 6 -13106204.008 6
 95  2 19 18 21 59.9910000  0  6 28 18 14 22 29 19
  22035999.620    -1736287.759 3  -1144512.985 2
  19021758.097   -26433029.127 7 -20399685.898 7
  18563673.667   -15540275.537 7 -12029798.752 9
  19233643.261   -18812729.707 6 -14477951.725 8
  18037085.589   -27459063.507 7 -21251371.660 9
  19914997.526   -17408783.203 6 -13204583.199 6
 95  2 19 18 22 29.9910000  0  6 28 18 14 22 29 19
  22010657.550    -1869487.842 3  -1248305.101 1
  18996864.151   -26563842.595 7 -20501618.455 7
  18565320.183   -15531624.145 7 -12023057.453 8
  19233856.620   -18811623.249 7 -14477089.575 8
  18020917.628   -27544016.663 7 -21317568.927 9
  19891002.300   -17534880.803 6 -13302841.024 6
 95  2 19 18 22 59.9910000  0  6 28 18 14 22 29 19
  21985322.589    -2002601.356 3  -1352029.780 2
  18971998.683   -26694516.347 7 -20603442.138 7
  18567050.761   -15522539.738 7 -12015978.746 8
  19234147.230   -18810093.902 7 -14475897.906 8
  18004802.331   -27628718.192 7 -21383570.120 9
  19867040.386   -17660800.704 6 -13400960.389 5
 95  2 19 18 23 29.9910000  0  6 28 18 14 22 29 19
  21960005.581    -2135638.547 3  -1455694.976 1
  18947152.355   -26825076.764 6 -20705177.513 7
  18568859.120   -15513034.645 7 -12008572.227 8
  19234520.855   -18808130.555 7 -14474368.060 8
  17988726.323   -27713198.444 7 -21449398.895 9
  19843113.347   -17786533.595 6 -13498934.044 6
 95  2 19 18 23 59.9910000  0  6 28 18 14 22 29 19
  21934709.190    -2268593.190 3  -1559295.821 2
  18922329.276   -26955519.902 6 -20806821.490 7
  18570750.487   -15503108.581 7 -12000837.686 8
  19234976.191   -18805730.023 7 -14472497.548 7
  17972691.472   -27797454.221 7 -21515052.741 9
  19819225.612   -17912074.770 6 -13596758.297 6
 95  2 19 18 24 29.9910000  0  6 28 18 14 22 29 19
  21909418.066    -2401481.405 3  -1662844.954 1
  18897531.831   -27085849.614 6 -20908377.091 8
  18572712.167   -15492786.518 7 -11992794.565 8
  19235512.855   -18802907.463 7 -14470298.183 7
  17956698.237   -27881497.719 7 -21580541.184 9
  19795364.980   -18037440.795 6 -13694446.073 6
 95  2 19 18 24 59.9910000  0  6 28 18 14 22 29 19
  21884141.956    -2534297.920 3  -1766338.207 2
  18872754.605   -27216050.305 6 -21009832.153 8
  18574753.448   -15482082.918 7 -11984454.151 8
  19236132.339   -18799646.572 6 -14467757.255 8
  17940745.011   -27965330.012 7 -21645865.049 9
  19771545.995   -18162619.854 6 -13791988.172 6
 95  2 19 18 25 29.9910000  0  6 28 18 14 22 29 19
  21858886.550    -2667040.448 3  -1869773.753 2
  18848006.800   -27346105.203 6 -21111173.602 8
  18576857.745   -15470995.580 7 -11975814.729 8
  19236838.401   -18795958.477 6 -14464883.453 8
  17924834.183   -28048948.783 7 -21711022.530 9
  19747760.222   -18287622.930 6 -13889393.145 6
 95  2 19 18 25 59.9910000  0  6 28 18 14 22 29 19
  21833644.448    -2799681.948 3  -1973130.620 2
  18823294.284   -27475970.440 6 -21212367.275 7
  18579043.308   -15459510.587 7 -11966865.431 7
  19237621.355   -18791840.760 6 -14461674.880 8
  17908968.815   -28132318.815 7 -21775986.193 9
  19724011.237   -18412423.124 6 -13986640.025 6
 95  2 19 18 26 29.9910000  0  6 28 18 14 22 29 19
  21808414.698    -2932238.142 2  -2076421.014 1
  18798610.917   -27605671.780 6 -21313433.232 7
  18581300.581   -15447655.233 7 -11957627.551 8
  19238481.394   -18787311.245 6 -14458145.429 8
  17893148.972   -28215453.761 7 -21840766.679 9
  19700295.464   -18537039.519 6 -14083743.685 6
 95  2 19 18 26 59.9910000  0  6 28 18 14 22 29 19
  21783211.190    -3064701.777 3  -2179639.235 1
  18773957.230   -27735223.950 6 -21414382.949 7
  18583630.948   -15435428.065 7 -11948099.942 7
  19239420.003   -18782384.076 6 -14454306.108 7
  17877375.480   -28298348.773 7 -21905360.200 9
  19676617.480   -18661476.713 6 -14180707.681 6
 95  2 19 18 27 29.9900000  0  6 28 18 14 22 29 19
  21758023.881    -3197068.475 3  -2282781.977 2
  18749329.225   -27864655.353 6 -21515238.573 7
  18586027.365   -15422821.348 7 -11938276.584 7
  19240429.631   -18777076.818 6 -14450170.619 7
  17861646.709   -28381001.259 7 -21969764.739 9
  19652968.147   -18785742.731 6 -14277538.298 6
 95  2 19 18 27 59.9900000  0  6 28 18 14 22 29 19
  21732851.568    -3329339.749 3  -2385850.341 4
  18724716.678   -27993988.111 7 -21616017.325 7
  18588499.725   -15409823.386 7 -11928148.367 7
  19241513.232   -18771390.671 6 -14445739.901 7
  17845964.975   -28463407.923 7 -22033977.731 9
  19629351.561   -18909852.651 6 -14374247.272 6
 95  2 19 18 28 29.9900000  0  6 28 18 14 22 29 19
  21707694.897    -3461509.309 2  -2488839.446 1
  18700123.568   -28123222.761 7 -21716719.635 7
  18591050.397   -15396429.868 7 -11917711.915 7
  19242666.006   -18765326.403 6 -14441014.547 7
  17830328.654   -28545570.975 7 -22098000.888 9
  19605762.147   -19033826.686 6 -14470850.365 6
 95  2 19 18 28 59.9900000  0  6 28 18 14 22 29 19
  21682566.139    -3593589.348 3  -2591758.816 2
  18675553.162   -28252354.643 7 -21817341.864 7
  18593673.115   -15382645.319 7 -11906970.767 8
  19243887.943   -18758906.141 6 -14436011.783 7
  17814736.881   -28627503.650 7 -22161844.536 9
  19582192.959   -19157682.833 6 -14567361.592 6
 95  2 19 18 29 29.9900000  0  6 28 18 14 22 29 19
  21657452.092    -3725571.383 3  -2694601.799 1
  18651004.045   -28381353.010 7 -21917860.057 7
  18596370.881   -15368469.224 7 -11895924.511 8
  19245181.686   -18752104.420 6 -14430711.772 7
  17799194.951   -28709192.455 7 -22225498.159 9
  19558647.787   -19281410.232 6 -14663772.501 6
 95  2 19 18 29 59.9900000  0  6 28 18 14 22 29 19
  21632353.107    -3857446.515 3  -2797361.487 1
  18626487.264   -28510184.885 7 -22018248.511 7
  18599140.584   -15353907.188 7 -11884577.518 8
  19246553.717   -18744901.412 6 -14425099.075 7
  17783696.264   -28790628.183 7 -22288954.584 9
  19535128.615   -19404990.087 6 -14760068.455 6
 95  2 19 18 30 29.9900000  0  6 28 18 14 22 29 19
  21607284.178    -3989219.823 3  -2900041.847 2
  18602003.295   -28638853.857 7 -22118510.040 7
  18601981.701   -15338983.526 7 -11872948.744 8
  19248000.342   -18737295.329 6 -14419172.299 7
  17768246.631   -28871825.701 7 -22352225.387 9
  19511644.053   -19528411.085 6 -14856240.625 6
 95  2 19 18 30 59.9900000  0  6 28 18 14 22 29 19
  21582216.326    -4120904.504 3  -3002653.098 1
  18577545.975   -28767383.379 7 -22218662.898 7
  18604885.647   -15323721.292 6 -11861056.145 8
  19249518.287   -18729308.654 6 -14412948.962 7
  17752837.459   -28952805.195 7 -22415326.297 9
  19488188.857   -19651671.294 6 -14952287.503 6
 95  2 19 18 31 29.9900000  0  6 28 18 14 22 29 19
  21557186.928    -4252479.699 3  -3105179.081 3
  18553115.170   -28895772.531 7 -22318706.393 7
  18607856.733   -15308106.315 6 -11848888.675 8
  19251113.858   -18720926.373 6 -14406417.368 7
  17737468.725   -29033554.063 7 -22478247.501 9
  19464768.014   -19774753.054 6 -15048195.331 6
 95  2 19 18 31 59.9900000  0  6 28 18 14 22 29 19
  21532166.951    -4383946.904 3  -3207620.906 3
  18528706.404   -29024039.803 7 -22418654.904 7
  18610896.717   -15292133.835 6 -11836442.632 8
  19252782.311   -18712166.854 6 -14399591.799 7
  17722146.131   -29114087.725 7 -22541001.006 9
  19441379.522   -19897658.720 6 -15143965.940 6
 95  2 19 18 32 29.9900000  0  6 28 18 14 22 29 19
  21507174.615    -4515298.816 3  -3309972.914 2
  18504321.420   -29152184.768 7 -22518508.112 7
  18614005.795   -15275790.795 6 -11823707.857 8
  19254519.100   -18703039.998 6 -14392480.012 7
  17706861.061   -29194404.123 7 -22603585.218 9
  19418021.232   -20020390.135 6 -15239600.769 6
 95  2 19 18 32 59.9900000  0  6 28 18 14 22 29 19
  21482191.678    -4646550.236 3  -3412246.618 3
  18479954.318   -29280221.738 7 -22618277.165 7
  18617184.826   -15259090.718 6 -11810694.859 7
  19256319.350   -18693580.131 6 -14385108.720 7
  17691618.865   -29274505.443 7 -22666001.849 9
  19394699.209   -20142970.506 6 -15335117.896 6
 95  2 19 18 33 29.9900000  0  6 28 18 14 22 29 19
  21457235.045    -4777700.821 3  -3514441.783 4
  18455610.662   -29408151.278 7 -22717962.512 8
  18620427.857   -15242039.907 6 -11797408.580 7
  19258185.084   -18683776.562 6 -14377469.626 7
  17676418.811   -29354386.269 7 -22728246.652 9
  19371399.186   -20265405.918 6 -15430522.073 6
 95  2 19 18 33 59.9900000  0  6 28 18 14 22 29 19
  21432299.186    -4908726.592 3  -3616539.623 3
  18431292.584   -29535945.395 7 -22817542.324 8
  18623737.889   -15224642.937 6 -11783852.568 7
  19260120.061   -18673610.902 6 -14369548.372 7
  17661265.334   -29434014.583 7 -22790294.702 9
  19348133.022   -20387665.510 6 -15525789.246 6
 95  2 19 18 34 29.9900000  0  6 28 18 14 22 29 19
  21407388.029    -5039625.861 3  -3718538.955 2
  18407000.186   -29663598.617 7 -22917012.356 8
  18627110.982   -15206926.967 6 -11770047.971 7
  19262117.232   -18663089.424 6 -14361349.869 7
  17646163.967   -29513373.821 7 -22852133.067 9
  19324903.514   -20509751.230 6 -15620920.952 6
 95  2 19 18 34 59.9900000  0  6 28 18 14 22 29 19
  21382517.850    -5170362.081 3  -3820411.222 3
  18382743.279   -29791074.470 7 -23016344.182 8
  18630546.568   -15188865.513 6 -11755974.171 7
  19264196.061   -18652180.768 6 -14352849.660 7
  17631122.100   -29592419.355 7 -22913726.988 9
  19301706.139   -20631636.542 6 -15715896.487 6
 95  2 19 18 35 29.9900000  0  6 28 18 14 22 29 19
  21357672.522    -5300938.917 3  -3922159.312 3
  18358520.943   -29918360.421 7 -23115528.033 8
  18634051.803   -15170470.630 7 -11741640.557 7
  19266345.084   -18640881.584 6 -14344045.164 7
  17616135.662   -29671165.164 7 -22975087.363 9
  19278549.709   -20753330.698 6 -15810723.101 6
 95  2 19 18 35 59.9900000  0  6 28 18 14 22 29 19
  21332843.178    -5431382.698 3  -4023803.726 2
  18334332.037   -30045471.878 7 -23214575.910 8
  18637607.639   -15151767.120 6 -11727066.459 7
  19268561.951   -18629244.173 6 -14334977.095 7
  17601205.748   -29749636.085 7 -23036233.534 9
  19255424.318   -20874857.047 6 -15905418.950 6
 95  2 19 18 36 29.9900000  0  6 28 18 14 22 29 19
  21308043.881    -5561685.516 3  -4125338.296 3
  18310181.365   -30172398.148 7 -23313479.487 8
  18641231.467   -15132725.762 6 -11712229.084 7
  19270840.881   -18617272.453 6 -14325648.533 7
  17586325.498   -29827828.778 7 -23097162.916 9
  19232326.428   -20996223.566 6 -15999990.266 6
 95  2 19 18 36 59.9900000  0  6 28 18 14 22 29 19
  21283280.654    -5691833.439 3  -4226752.162 3
  18286064.420   -30299124.656 7 -23412227.400 8
  18644923.748   -15113321.388 6 -11697108.854 7
  19273182.162   -18604954.356 6 -14316050.062 7
  17571499.397   -29905736.884 7 -23157870.535 9
  19209266.725   -21117425.213 6 -16094433.101 6
 95  2 19 18 37 29.9900000  0  6 28 18 14 22 29 19
  21258541.811    -5821855.302 3  -4328067.830 3
  18261982.373   -30425691.912 7 -23510851.224 8
  18648674.084   -15093596.755 6 -11681739.060 7
  19275590.420   -18592314.781 6 -14306201.089 7
  17556719.326   -29983403.343 7 -23218389.858 9
  19186226.936   -21238486.094 6 -16188766.237 6
 95  2 19 18 37 59.9900000  0  6 28 18 14 22 29 19
  21233817.795    -5951728.932 3  -4429267.983 4
  18237923.162   -30552105.744 7 -23609355.497 8
  18652495.881   -15073531.769 6 -11666104.078 7
  19278055.772   -18579345.374 6 -14296095.100 7
  17541990.475   -30060807.612 7 -23278704.877 9
  19163220.576   -21359398.014 6 -16282983.266 6
 95  2 19 18 38 29.9900000  0  6 28 18 14 22 29 19
  21209134.748    -6081463.896 4  -4530360.080 3
  18213893.959   -30678387.334 7 -23707756.725 8
  18656375.982   -15053146.166 6 -11650219.244 7
  19280589.865   -18566050.049 6 -14285735.161 7
  17527306.897   -30137970.307 7 -23338831.656 9
  19140234.076   -21480190.658 6 -16377107.362 6
 95  2 19 18 38 59.9900000  0  6 28 18 14 22 29 19
  21184488.037    -6211031.508 4  -4631321.796 3
  18189893.264   -30804511.696 7 -23806035.426 8
  18660319.951   -15032419.682 6 -11634068.793 7
  19283184.779   -18552403.583 6 -14275101.581 7
  17512671.748   -30214877.417 7 -23398759.283 9
  19117277.475   -21600829.773 6 -16471111.805 6
 95  2 19 18 39 29.9890000  0  6 28 18 14 22 29 19
  21159864.189    -6340420.558 4  -4732144.340 2
  18165923.853   -30930469.354 7 -23904184.238 7
  18664330.868   -15011347.340 6 -11617648.851 7
  19285846.165   -18538414.150 6 -14264200.779 8
  17498086.587   -30291527.497 7 -23458486.626 9
  19094353.235   -21721297.775 6 -16564982.943 6
 95  2 19 18 39 59.9890000  0  6 28 18 14 22 29 19
  21135275.150    -6469653.067 4  -4832844.948 4
  18141985.353   -31056272.501 7 -24002212.656 7
  18668402.868   -14989938.963 6 -11600967.056 7
  19288571.118   -18524108.898 6 -14253053.870 7
  17483546.181   -30367928.875 7 -23518020.171 9
  19071452.610   -21841620.100 6 -16658740.553 6
 95  2 19 18 40 29.9890000  0  6 28 18 14 22 29 19
  21110706.962    -6598733.027 4  -4933426.649 5
  18118075.439   -31181907.349 7 -24100109.927 7
  18672536.946   -14968214.936 6 -11584039.301 7
  19291347.431   -18509502.849 6 -14241672.578 7
  17469055.181   -30444089.038 7 -23577365.762 9
  19048589.564   -21961783.202 6 -16752374.106 6
 95  2 19 18 40 59.9890000  0  6 28 18 14 22 29 19
  21086167.267    -6727660.637 4  -5033889.673 4
  18094204.103   -31307371.085 7 -24197873.871 8
  18676727.024   -14946191.409 6 -11566878.170 7
  19294185.681   -18494593.262 6 -14230054.759 7
  17454610.446   -30519996.417 7 -23636514.368 9
  19025751.298   -22081787.224 6 -16845883.699 7
 95  2 19 18 41 29.9890000  0  6 28 18 14 22 29 19
  21061670.860    -6856412.353 4  -5134215.628 4
  18070362.009   -31432645.376 7 -24295490.199 8
  18680974.009   -14923867.141 6 -11549482.701 7
  19297086.728   -18479348.250 6 -14218175.574 7
  17440221.774   -30595605.373 7 -23695430.448 9
  19002950.649   -22201621.063 6 -16939260.689 6
 95  2 19 18 41 59.9890000  0  6 28 18 14 22 29 19
  21037200.470    -6985012.231 4  -5234423.257 4
  18046555.360   -31557753.735 7 -24392977.224 8
  18685273.392   -14901279.130 6 -11531881.710 7
  19300047.048   -18463789.789 6 -14206052.143 7
  17425887.407   -30670933.282 7 -23754127.521 9
  18980166.923   -22321323.340 6 -17032535.159 7
 95  2 19 18 42 29.9890000  0  7 28 18 14 31 22 29 19
  21012760.384    -7113435.741 4  -5334493.461 3
  18022783.767   -31682672.839 7 -24490316.786 8
  18689626.204   -14878409.027 6 -11514060.894 7
  21530736.868          -0.67813
  19303072.665   -18447896.983 6 -14193668.180 7
  17411609.689   -30745965.416 7 -23812594.125 9
  18957422.571   -22440874.472 6 -17125691.851 7
 95  2 19 18 42 59.9890000  0  7 28 18 14 31 22 29 19
  20988358.728    -7241666.850 4  -5434413.761 4
  17999050.907   -31807395.084 7 -24587502.940 8
  18694034.517   -14855241.546 6 -11496008.362 7
  21501773.790     -152170.458 3
  19306158.853   -18431664.582 6 -14181019.597 7
  17397389.470   -30820687.026 7 -23870818.763 9
  18934697.009   -22560270.866 6 -17218727.957 6
 95  2 19 18 43 29.9890000  0  7 28 18 14 31 22 29 19
  20963994.978    -7369698.034 4  -5534178.263 3
  17975356.290   -31931907.348 7 -24684525.479 8
  18698502.939   -14831758.490 6 -11477709.937 7
  21472794.610     -304450.781 4        -0.08114
  19309311.564   -18415105.358 6 -14168116.339 7
  17383227.673   -30895110.545 7 -23928811.124 9
  18912013.915   -22679485.886 6 -17311622.737 6
 95  2 19 18 43 59.9890000  0  7 28 18 14 31 22 29 19
  20939668.853    -7497549.618 4  -5633802.834 3
  17951699.001   -32056225.866 7 -24781397.039 8
  18703032.189   -14807974.145 6 -11459176.738 6
  21443792.657     -456874.858 5   -118771.893 5
  19312519.087   -18398255.651 6 -14154986.737 7
  17369111.384   -30969285.183 7 -23986609.555 9
  18889358.720   -22798528.480 6 -17404383.160 6
 95  2 19 18 44 29.9890000  0  7 28 18 14 31 22 29 19
  20915367.532    -7625226.942 4  -5733291.588 4
  17928077.337   -32180363.162 7 -24878127.391 8
  18707609.962   -14783900.686 6 -11440418.256 6
  21414754.321     -609447.315 5   -237659.351 4
  19315778.853   -18381126.859 6 -14141639.666 7
  17355042.446   -31043223.383 7 -24044223.735 9
  18866743.040   -22917396.038 6 -17497007.191 6
 95  2 19 18 44 59.9890000  0  7 28 18 14 31 22 29 19
  20891100.220    -7752760.842 4  -5832668.617 4
  17904481.634   -32304355.876 7 -24974745.076 8
  18712240.806   -14759571.964 6 -11421460.875 7
  21385695.384     -762183.511 5   -356674.397 4
  19319087.556   -18363738.223 6 -14128090.116 7
  17341012.368   -31116953.209 7 -24101675.552 9
  18844150.564   -23036128.451 6 -17589525.919 6
 95  2 19 18 45 29.9890000  0  7 28 18 14 31 22 29 19
  20866869.314    -7880105.168 5  -5931897.913 2
  17880922.962   -32428162.370 7 -25071217.666 8
  18716926.048   -14734947.484 6 -11402273.036 6
  21356611.360     -915019.392 4   -475767.175 4
  19322458.478   -18346032.903 6 -14114293.828 7
  17327030.212   -31190433.040 7 -24158932.572 9
  18821581.040   -23154694.969 6 -17681915.383 6
 95  2 19 18 45 59.9890000  0  7 28 18 14 31 22 29 19
  20842670.509    -8007254.097 4  -6030974.952 5
  17857395.329   -32551791.383 7 -25167551.958 8
  18721668.571   -14710033.579 6 -11382859.665 7
  21327510.626    -1067919.205 3   -594909.801 3
  19325886.087   -18328008.248 6 -14100248.675 6
  17313098.587   -31263641.365 7 -24215978.027 9
  18799051.407   -23273120.945 6 -17774195.346 7
 95  2 19 18 46 29.9890000  0  7 28 18 14 31 22 29 19
  20818512.720    -8134204.005 5  -6129896.896 4
  17833903.548   -32675248.984 7 -25263752.687 8
  18726462.743   -14684833.129 6 -11363223.012 6
  21298409.368    -1220872.377 3   -714093.961 2
  19329377.282   -18309670.217 6 -14085959.340 6
  17299222.595   -31336556.924 7 -24272795.352 9
  18776536.884   -23391422.069 6 -17866378.015 7
 95  2 19 18 46 59.9890000  0  7 28 18 14 31 22 29 19
  20794400.392    -8260939.200 5  -6228651.510 5
  17810445.243   -32798524.573 7 -25359811.589 8
  18731315.095   -14659340.526 6 -11343358.703 6
  21269290.642    -1373873.651 3   -833315.618 2
  19332924.978   -18291017.265 6 -14071424.623 7
  17285405.993   -31409167.789 7 -24329375.242 9
  18754048.993   -23509592.371 6 -17958458.739 7
 95  2 19 18 47 29.9890000  0  7 28 18 14 31 22 29 19
  20770319.673    -8387481.609 5  -6327255.945 5
  17787017.509   -32921627.512 7 -25455735.958 8
  18736214.337   -14633596.376 6 -11323298.383 6
  21240162.126    -1526959.392 3   -952603.040 1
  19336525.525   -18272099.106 6 -14056683.244 7
  17271641.931   -31481502.648 7 -24385740.078 9
  18731588.939   -23627640.359 6 -18050444.175 7
 95  2 19 18 47 59.9890000  0  7 28 18 14 31 22 29 19
  20746276.306    -8513805.462 5  -6425690.048 5
  17763632.400   -33044530.499 7 -25551504.524 8
  18741164.595   -14607585.014 6 -11303029.837 6
  21211001.251    -1680127.951 2  -1071955.017 1
  19340178.314   -18252900.955 6 -14041723.700 7
  17257932.821   -31553539.319 7 -24441872.553 9
  18709151.431   -23745534.306 6 -18142309.559 7
 95  2 19 18 48 29.9890000  0  7 28 18 14 31 22 29 19
  20722276.415    -8639916.397 5  -6523958.257 5
  17740282.524   -33167227.657 7 -25647112.699 9
  18746164.298   -14581321.919 6 -11282565.138 7
  21181840.767    -1833399.918 2  -1191387.582 2
  19343881.798   -18233433.543 6 -14026554.339 6
  17244279.025   -31625291.116 7 -24497783.046 9
  18686751.189   -23863253.205 6 -18234038.553 7
 95  2 19 18 48 59.9890000  0  7 28 18 14 31 22 29 19
  20698323.673    -8765822.829 5  -6622067.117 5
  17716973.993   -33289717.122 7 -25742559.034 9
  18751203.025   -14554824.914 6 -11261918.177 7
  21152643.853    -1986781.331 2  -1310905.369 1
  19347637.282   -18213709.096 6 -14011184.689 6
  17230675.446   -31696775.309 7 -24553485.020 9
  18664380.540   -23980803.383 6 -18325636.070 7
 95  2 19 18 49 29.9890000  0  7 28 18 14 31 22 29 19
  20674408.181    -8891506.805 5  -6720002.645 5
  17693708.064   -33411973.792 7 -25837823.964 9
  18756294.821   -14528073.874 6 -11241073.265 6
  21123464.024    -2140237.382 2  -1430481.393 2
  19351439.915   -18193715.706 6 -13995605.458 6
  17217130.032   -31767961.019 7 -24608954.406 9
  18642050.001   -24098166.070 6 -18417087.479 7
 95  2 19 18 49 59.9890000  0  6 28 18 14 22 29 19
  20650529.915    -9016984.018 5  -6817777.074 5
  17670478.212   -33534050.375 7 -25932948.564 9
  18761432.837   -14501069.965 6 -11220031.309 6
  19355295.345   -18173470.899 6 -13979830.351 6
  17203638.220   -31838859.869 7 -24664200.271 9
  18619748.064   -24215373.150 6 -18508417.638 7
 95  2 19 18 50 29.9890000  0  6 28 18 14 22 29 19
  20626688.501    -9142257.678 5  -6915392.871 4
  17647282.228   -33655946.466 7 -26027932.510 9
  18766617.587   -14473817.574 6 -11198795.738 6
  19359191.415   -18152989.860 6 -13963871.131 6
  17190204.282   -31909462.596 7 -24719215.392 9
  18597468.329   -24332432.022 6 -18599632.315 7
 95  2 19 18 50 59.9890000  0  6 28 18 14 22 29 19
  20602888.829    -9267311.641 5  -7012837.489 5
  17624125.939   -33777642.949 7 -26122760.933 9
  18771857.470   -14446303.459 6 -11177356.240 6
  19363137.259   -18132255.158 6 -13947714.277 7
  17176827.485   -31979752.042 7 -24773986.399 9
  18575220.071   -24449351.767 6 -18690738.572 7
 95  2 19 18 51 29.9880000  0  6 28 18 14 22 29 19
  20579138.910    -9392135.067 5  -7110102.448 5
  17601003.191   -33899135.599 7 -26217430.523 8
  18777137.785   -14418524.509 6 -11155710.370 6
  19367133.996   -18111252.602 6 -13931348.715 7
  17163512.863   -32049716.020 7 -24828503.798 9
  18552999.379   -24566121.889 6 -18781728.251 7
 95  2 19 18 51 59.9880000  0  7 28 18 14 31 22 29 19
  20555435.613    -9516693.500 5  -7207160.959 5
  17577934.371   -34020383.318 7 -26311909.258 8
  18782486.988   -14390440.580 6 -11133826.852 6
  20977230.379          -0.73114
  19371191.637   -18089927.716 6 -13914731.986 6
  17150265.324   -32119334.277 7 -24882751.799 9
  18530812.731   -24682709.268 6 -18872575.528 7
 95  2 19 18 52 29.9880000  0  8 28 18 14 31 22 29 19 27
  20531786.168    -9640977.848 5  -7304005.903 5
  17554913.106   -34141354.853 7 -26406172.790 8
  18787882.887   -14362061.482 6 -11111713.327 6
  20947958.871     -153824.783 3
  19375313.316   -18068276.808 6 -13897861.202 7
  17137081.496   -32188617.824 7 -24936738.983 9
  18508660.246   -24799117.673 6 -18963283.351 7
  21651017.262          -0.57914
 95  2 19 18 52 59.9880000  0  8 28 18 14 31 22 29 19 27
  20508185.746    -9764983.106 5  -7400633.357 5
  17531945.231   -34262045.863 7 -26500217.731 8
  18793338.965   -14333389.974 6 -11089371.934 6
  20918671.801     -307685.137 3        -0.20612
  19379495.731   -18046294.611 6 -13880732.260 6
  17123959.934   -32257572.974 7 -24990470.278 9
  18486547.942   -24915336.312 6 -19053843.312 7
  21623449.090     -144846.144 3        -0.28813
 95  2 19 18 53 29.9880000  0  8 28 18 14 31 22 29 19 27
  20484638.402    -9888717.237 5  -7497049.559 5
  17509027.832   -34382474.785 7 -26594058.449 8
  18798849.832   -14304439.516 6 -11066813.199 6
  20889399.410     -461570.497 3   -119910.665 2
  19383736.871   -18024007.444 6 -13863365.696 7
  17110898.535   -32326209.817 7 -25043953.544 9
  18464470.090   -25031367.198 6 -19144256.967 7
  21595891.004     -289643.595 3   -112829.395 3
 95  2 19 18 53 59.9880000  0  8 28 18 14 31 22 29 19 27
  20461144.949   -10012178.804 5  -7593253.368 5
  17486160.363   -34502649.174 7 -26687700.835 9
  18804413.887   -14275212.512 6 -11044038.979 6
  20860111.559     -615465.994 3   -239829.017 3
  19388031.121   -18001435.264 6 -13845777.047 7
  17097895.785   -32394537.469 7 -25097195.889 9
  18442418.840   -25147229.060 6 -19234538.918 7
  21568355.988     -434398.962 3   -225625.682 2
 95  2 19 18 54 29.9880000  0  8 28 18 14 31 22 29 19 27
  20437704.598   -10135370.941 5  -7689247.240 5
  17463339.613   -34622582.563 7 -26781155.424 9
  18810023.309   -14245727.249 6 -11021063.508 6
  20830822.238     -769365.000 3   -359750.142 1
  19392378.270   -17978594.877 6 -13827979.407 7
  17084952.184   -32462553.228 7 -25150195.194 9
  18420397.746   -25262935.919 6 -19324700.086 7
  21540816.699     -579122.484 3   -338397.214 2
 95  2 19 18 54 59.9880000  0  8 28 18 14 31 22 29 19 27
  20414313.496   -10258294.513 5  -7785031.838 5
  17440558.238   -34742287.385 7 -26874431.902 9
  18815680.496   -14215995.372 6 -10997895.872 6
  20801547.285     -923263.610 3   -479670.954 2
  19396773.887   -17955490.655 6 -13809976.175 6
  17072072.543   -32530240.193 7 -25202938.292 9
  18398410.012   -25378482.529 6 -19414736.382 7
  21513278.871     -723797.903 3   -451131.289 2
 95  2 19 18 55 29.9880000  0  8 28 18 14 31 22 29 19 27
  20390990.348   -10380874.238 5  -7880548.513 5
  17417832.613   -34861697.521 7 -26967478.754 9
  18821400.012   -14185944.728 6 -10974479.849 6
  20772268.121    -1077105.111 3   -599547.296 2
  19401233.785   -17932057.421 6 -13791716.550 6
  17059268.496   -32597526.455 7 -25255369.152 9
  18376469.520   -25493801.257 6 -19504595.112 7
  21485773.035     -868339.826 2   -563761.343 1
 95  2 19 18 55 59.9880000  0  8 28 18 14 31 22 29 19 27
  20367713.738   -10503192.012 5  -7975861.053 5
  17395155.035   -34980886.061 7 -27060352.935 9
  18827160.215   -14155666.845 6 -10950886.763 6
  20742981.418    -1231001.220 3   -719466.255 2
  19405739.481   -17908381.091 6 -13773267.526 6
  17046527.332   -32664488.867 7 -25307547.662 9
  18354549.770   -25608971.656 6 -19594338.259 7
  21458273.465                          -0.42011
 95  2 19 18 56 29.9880000  0  7 28 18 14 31 22 29 19
  20344483.613   -10625250.822 5  -8070971.812 5
  17372518.106   -35099843.366 7 -27153046.932 9
  18832961.457   -14125171.814 6 -10927124.461 6
  20713678.676    -1384960.510 3   -839434.440 2
  19410290.770   -17884463.917 6 -13754630.828 6
  17033847.566   -32731116.688 7 -25359465.454 9
  18332664.848   -25723979.714 6 -19683954.905 7
 95  2 19 18 56 59.9880000  0  7 28 18 14 31 22 29 19
  20321310.106   -10747049.570 5  -8165879.915 5
  17349926.363   -35218561.590 7 -27245554.632 9
  18838807.754   -14094454.639 6 -10903189.053 6
  20684376.121    -1538976.650 3   -959446.972 1
  19414886.356   -17860320.375 6 -13735817.727 6
  17021232.535   -32797409.164 7 -25411121.934 8
  18310811.410   -25838813.967 6 -19773436.117 7
 95  2 19 18 57 29.9880000  0  7 28 18 14 31 22 29 19
  20298173.918   -10868615.144 5  -8260606.322 5
  17327376.551   -35337064.062 7 -27337894.214 9
  18844690.121   -14063536.002 6 -10879096.677 6
  20655050.285    -1693064.366 4  -1079515.282 2
  19419517.129   -17835984.749 6 -13716854.970 7
  17008674.004   -32863400.824 7 -25462544.021 9
  18288990.074   -25953510.942 6 -19862810.368 7
 95  2 19 18 57 59.9880000  0  8 28 18 14 31 22 29 19 27
  20275084.238   -10989940.680 5  -8355145.675 4
  17304870.332   -35455338.024 7 -27430055.748 9
  18850612.832   -14032420.087 6 -10854850.562 6
  20625723.035    -1847184.633 5  -1199608.966 2
  19424183.785   -17811446.212 6 -13697734.099 6
  16996174.629   -32929085.190 7 -25513726.651 9
  18267186.457   -26068067.352 6 -19952075.097 7
  21348330.441          -0.37113
 95  2 19 18 58 29.9880000  0  8 28 18 14 31 22 29 19 27
  20252052.543   -11110995.028 5  -8449473.699 5
  17282408.926   -35573359.926 7 -27522020.870 9
  18856581.527   -14001074.429 6 -10830425.433 6
  20596399.215    -2001284.593 4  -1319686.800 2
  19428897.606   -17786671.771 6 -13678429.394 6
  16983736.926   -32994446.943 7 -25564657.894 9
  18245422.652   -26182449.378 6 -20041203.935 7
  21320858.817     -144426.074 3        -0.24511
 95  2 19 18 58 59.9880000  0  8 28 18 14 31 22 29 19 27
  20229057.832   -11231804.636 5  -8543611.036 5
  17259992.723   -35691164.314 7 -27613816.498 8
  18862583.606   -13969536.423 6 -10805850.427 6
  20567075.988    -2155393.035 4  -1439771.264 2
  19433652.910   -17761696.671 6 -13658968.342 6
  16971351.535   -33059533.266 7 -25615374.526 9
  18223682.676   -26296699.533 6 -20130230.003 7
  21293366.809     -288856.239 3   -112543.158 1
 95  2 19 18 59 29.9880000  0  8 28 18 14 31 22 29 19 27
  20206117.535   -11352367.785 5  -8637556.300 5
  17237618.074   -35808755.907 7 -27705446.318 8
  18868615.223   -13937825.721 6 -10781140.855 6
  20537745.840    -2309524.722 4  -1559873.814 2
  19438444.801   -17736515.822 6 -13639346.948 6
  16959017.371   -33124348.266 7 -25665879.732 9
  18201961.793   -26410825.898 6 -20219159.627 7
  21265891.840     -433287.013 3   -225086.530 1
 95  2 19 18 59 59.9880000  0  8 28 18 14 31 22 29 19 27
  20183223.637   -11472664.398 5  -8731293.877 4
  17215283.043   -35926118.414 7 -27796897.629 9
  18874683.887   -13905945.097 6 -10756298.880 6
  20508409.051    -2463674.284 3  -1679990.308 2
  19443278.035   -17711121.580 6 -13619559.279 6
  16946735.863   -33188879.717 7 -25716163.988 9
  18180271.442   -26524809.340 6 -20307977.881 7
  21238411.043     -577695.023 3   -337612.126 1
 95  2 19 19  0 29.9880000  0  8 28 18 14 31 22 29 19 27
  20160384.434   -11592675.071 5  -8824808.645 5
  17192994.465   -36043237.165 7 -27888159.000 9
  18880781.340   -13873879.567 6 -10731312.821 6
  20479079.356    -2617837.581 3  -1800117.497 2
  19448152.762   -17685503.456 6 -13599597.154 6
  16934514.637   -33253109.060 7 -25766212.837 8
  18158612.910   -26638643.644 6 -20396679.922 7
  21210943.254     -722058.788 3   -450103.192 2
 95  2 19 19  0 59.9880000  0  8 28 18 14 31 22 29 19 27
  20137601.668   -11712414.991 5  -8918112.432 5
  17170748.231   -36160135.293 7 -27979248.431 9
  18886914.902   -13841656.017 6 -10706203.621 6
  20449730.317    -2772036.819 4  -1920272.679 2
  19453062.895   -17659693.418 6 -13579485.500 6
  16922351.145   -33317033.225 7 -25816023.887 9
  18136972.379   -26752359.699 6 -20485289.807 7
  21183474.574     -866398.346 2   -562575.499 1
 95  2 19 19  1 29.9880000  0  8 28 18 14 31 22 29 19 27
  20114879.606   -11831843.155 5  -9011173.284 5
  17148553.988   -36276778.212 7 -28070139.013 9
  18893085.613   -13809229.760 6 -10680936.480 5
  20420384.770    -2926227.935 5  -2040421.528 4
  19458014.277   -17633651.112 6 -13559192.854 6
  16910253.934   -33380606.352 7 -25865561.403 9
  18115365.738   -26865907.857 6 -20573768.885 7
  21156005.988    -1010686.111 1   -675007.428 3
 95  2 19 19  1 59.9880000  0  8 28 18 14 31 22 29 19 27
  20092209.457   -11950977.288 5  -9104005.022 5
  17126403.520   -36393179.640 7 -28160841.419 9
  18899297.465   -13776602.479 6 -10655512.700 5
  20391053.199    -3080413.248 5  -2160565.828 3
  19463014.590   -17607394.527 5 -13538733.226 6
  16898220.004   -33443847.643 7 -25914840.348 9
  18093784.527   -26979307.822 6 -20662132.481 7
  21128563.582          -0.23212
 95  2 19 19  2 29.9880000  0  8 28 18 14 31 22 29 19 27
  20069590.871   -12069811.992 5  -9196603.470 5
  17104302.395   -36509323.635 7 -28251343.226 9
  18905544.941   -13743757.940 6 -10629919.620 6
  20361704.223    -3234583.199 5  -2280698.174 4
  19468052.699   -17580919.990 5 -13518103.803 6
  16886248.285   -33506747.988 7 -25963853.624 9
  18072235.871   -27092550.207 6 -20750373.286 7
  21101117.129     -144233.150 3
 95  2 19 19  2 59.9880000  0  8 28 18 14 31 22 29 19 27
  20047044.418   -12188298.966 5  -9288930.938 5
  17082263.856   -36625149.567 7 -28341597.191 9
  18911846.777   -13710647.441 6 -10604119.303 6
  20332383.606    -3388696.486 5  -2400786.333 5
  19473141.395   -17554192.383 6 -13497277.183 6
  16874352.856   -33569257.498 7 -26012562.349 9
  18050726.817   -27205573.247 6 -20838443.183 7
  21073681.559     -288392.810 3        -0.29014
 95  2 19 19  3 29.9870000  0  8 28 18 14 31 22 29 19 27
  20024559.234   -12306456.589 5  -9381001.797 5
  17060281.382   -36740657.439 7 -28431603.321 9
  18918193.312   -13677290.296 6 -10578126.801 6
  20303064.335    -3542771.229 4  -2520844.497 4
  19478272.429   -17527222.701 5 -13476261.926 6
  16862527.898   -33631407.084 7 -26060990.611 9
  18029257.007   -27318399.336 6 -20926359.597 7
  21046261.038     -432504.685 4   -112295.195 4
 95  2 19 19  3 59.9870000  0  8 28 18 14 31 22 29 19 27
  20002133.585   -12424315.415 5  -9472839.825 5
  17038353.859   -36855874.320 7 -28521382.700 9
  18924583.788   -13643713.345 6 -10551963.012 6
  20273750.327    -3696844.561 4  -2640901.512 2
  19483441.062   -17500044.266 5 -13455083.982 6
  16850765.273   -33693219.813 7 -26109156.395 9
  18007817.976   -27431081.151 6 -21014163.600 7
  21018828.390     -576606.384 3   -224582.157 2
 95  2 19 19  4 29.9870000  0  8 28 18 14 31 22 29 19 27
  19979769.015   -12541838.161 5  -9564415.968 5
  17016494.952   -36970771.800 7 -28610913.204 9
  18931017.030   -13609901.914 6 -10525616.500 6
  20244431.054    -3850888.638 4  -2760935.772 2
  19488659.398   -17472634.154 5 -13433725.534 6
  16839072.382   -33754662.814 7 -26157034.066 9
  17986403.234   -27543587.738 6 -21101831.063 7
  20991427.874     -720657.413 4   -336829.625 3
 95  2 19 19  4 59.9870000  0  8 28 18 14 31 22 29 19 27
  19957467.562   -12659033.799 5  -9655737.232 5
  16994680.593   -37085374.675 7 -28700214.152 9
  18937489.648   -13575878.588 6 -10499104.888 6
  20215124.038    -4004906.280 5  -2880949.398 2
  19493917.155   -17445000.775 5 -13412193.123 6
  16827448.515   -33815745.830 7 -26204631.239 9
  17965027.609   -27655940.322 6 -21189378.523 7
  20964015.038     -864665.051 3   -449043.319 2
 95  2 19 19  5 29.9870000  0  8 28 18 14 31 22 29 19 27
  19935226.976   -12775912.020 5  -9746811.133 5
  16972926.593   -37199709.256 7 -28789306.036 9
  18944003.382   -13541672.515 6 -10472450.865 6
  20185818.694    -4158893.934 5  -3000939.669 3
  19499218.507   -17417149.163 6 -13390490.668 6
  16815889.421   -33876490.631 7 -26251964.862 9
  17943669.452   -27768161.223 6 -21276823.377 7
  20936626.413    -1008640.054 3   -561231.578 2
 95  2 19 19  5 59.9870000  0  8 28 18 14 31 22 29 19 27
  19913047.851   -12892436.270 5  -9837609.238 5
  16951226.726   -37313746.323 7 -28878166.090 9
  18950545.898   -13507270.305 6 -10445644.028 6
  20156530.452    -4312805.855 5  -3120870.896 3
  19504563.233   -17389059.406 6 -13368602.616 6
  16804400.819   -33936865.355 7 -26299010.113 9
  17922346.163   -27880202.599 6 -21364128.345 7
  20909239.343    -1152532.969 3   -673355.831 2
 95  2 19 19  6 29.9870000  0  8 28 18 14 31 22 29 19 27
  19890950.155   -13008605.400 5  -9928130.613 5
  16929584.179   -37427474.528 7 -28966785.469 9
  18957128.593   -13472687.678 6 -10418696.597 6
  20127259.734    -4466631.772 5  -3240735.150 4
  19509956.952   -17360725.338 6 -13346524.200 6
  16792981.554   -33996874.356 7 -26345770.395 9
  17901070.280   -27992041.878 6 -21451275.833 7
  20881868.390    -1296335.107 3   -785409.413 3
 95  2 19 19  6 59.9870000  0  8 28 18 14 31 22 29 19 27
  19868909.648   -13124411.857 5 -10018369.413 5
  16908002.530   -37540878.356 7 -29055152.079 9
  18963744.491   -13437922.128 6 -10391606.636 5
  20098008.898    -4620357.714 5  -3360521.493 2
  19515396.984   -17332147.974 5 -13324256.222 6
  16781634.898   -34056509.385 7 -26392239.262 9
  17879827.554   -28103674.343 6 -21538262.167 7
  20854525.476    -1440048.714 3   -897393.952 3
 95  2 19 19  7 29.9870000  0  8 28 18 14 31 22 29 19 27
  19846935.359   -13239865.690 5 -10108333.414 5
  16886483.030   -37653961.966 7 -29143269.172 9
  18970391.569   -13402986.133 6 -10364383.860 6
  20068770.343    -4774001.170 4  -3480243.585 4
  19520876.913   -17303346.637 6 -13301813.712 6
  16770353.671   -34115785.555 7 -26438428.504 9
  17858624.632   -28215105.340 6 -21625091.508 7
  20827194.562    -1583688.837 3  -1009321.281 4
 95  2 19 19  7 59.9870000  0  8 28 18 14 31 22 29 19 27
  19825039.819   -13354954.410 5 -10198012.927 5
  16865029.702   -37766709.251 7 -29231124.191 9
  18977076.296   -13367860.252 6 -10337013.129 5
  20039551.569    -4927547.102 4  -3599889.668 4
  19526397.937   -17274322.898 6 -13279197.885 6
  16759142.671   -34174691.110 7 -26484328.951 9
  17837455.194   -28326322.610 6 -21711754.316 7
  20799872.687    -1727252.541 4  -1121189.026 2
 95  2 19 19  8 29.9870000  0  8 28 18 14 31 22 29 19 27
  19803206.554   -13469677.929 5 -10287407.865 5
  16843636.085   -37879130.593 7 -29318725.235 9
  18983799.155   -13332529.620 6 -10309482.849 5
  20010350.335    -5081003.839 5  -3719466.269 4
  19531962.062   -17245086.833 6 -13256416.639 6
  16748005.679   -34233228.219 7 -26529942.298 9
  17816333.655   -28437339.525 7 -21798261.001 7
  20772558.929    -1870758.088 3  -1233011.467 5
 95  2 19 19  8 59.9870000  0  8 28 18 14 31 22 29 19 27
  19781449.804   -13584004.820 5 -10376493.729 5
  16822305.437   -37991223.124 7 -29406070.063 9
  18990568.577   -13296951.844 6 -10281759.994 5
  19981169.812    -5234346.559 5  -3838954.021 4
  19537568.968   -17215618.432 5 -13233454.319 6
  16736942.234   -34291361.451 7 -26575240.939 9
  17795246.398   -28548141.348 7 -21884600.076 7
  20745276.562    -2014182.123 3  -1344770.404 2
 95  2 19 19  9 29.9870000  0  8 28 18 14 31 22 29 19 27
  19759775.866   -13697921.077 5 -10465259.632 5
  16801043.093   -38102974.111 7 -29493148.758 9
  18997388.733   -13261118.702 6 -10253838.154 5
  19952006.718    -5387568.272 4  -3958347.512 4
  19543222.890   -17185909.603 5 -13210304.652 6
  16725958.952   -34349077.279 7 -26620214.328 9
  17774203.109   -28658716.273 7 -21970762.350 7
  20717999.726    -2157506.945 3  -1456451.998 3
 95  2 19 19  9 59.9870000  0  8 28 18 14 31 22 29 19 27
  19738160.327   -13811475.201 5 -10553743.348 5
  16779830.632   -38214433.600 7 -29580000.316 9
  19004246.460   -13225086.252 5 -10225761.005 5
  19922865.101    -5540715.314 4  -4077682.822 4
  19548908.913   -17156024.762 5 -13187017.855 6
  16715047.866   -34406419.461 7 -26664896.557 9
  17753193.460   -28769124.868 7 -22056795.010 7
  20690738.054    -2300778.626 3  -1568092.220 1
 95  2 19 19 10 29.9870000  0  8 28 18 14 31 22 29 19 27
  19716621.523   -13924689.530 5 -10641962.283 5
  16758670.640   -38325630.633 7 -29666647.369 9
  19011133.116   -13188890.346 5 -10197556.497 5
  19893731.437    -5693820.663 5  -4196985.623 5
  19554624.843   -17125986.588 5 -13163611.572 6
  16704207.796   -34463395.595 7 -26709293.557 9
  17732212.827   -28879387.681 7 -22142714.075 7
  20663473.593    -2444026.831 3  -1679714.146 1
 95  2 19 19 10 59.9870000  0  8 28 18 14 31 22 29 19 27
  19695143.616   -14037559.890 5 -10729913.186 5
  16737564.765   -38436552.176 7 -29753079.741 9
  19018050.819   -13152546.111 5 -10169236.387 5
  19864605.843    -5846878.319 5  -4316251.279 3
  19560373.546   -17095783.438 5 -13140076.718 6
  16693435.819   -34519996.748 7 -26753398.372 9
  17711256.749   -28989505.029 7 -22228519.792 7
  20636225.405    -2587253.677 4  -1791319.440 3
 95  2 19 19 11 29.9870000  0  8 28 18 14 31 22 29 19 27
  19673733.851   -14150089.566 5 -10817598.624 5
  16716510.655   -38547178.487 7 -29839282.066 9
  19024991.577   -13116083.633 5 -10140824.152 5
  19835487.499    -5999888.908 5  -4435480.244 4
  19566148.405   -17065421.839 5 -13116418.407 6
  16682731.398   -34576238.272 7 -26797222.953 9
  17690328.226   -29099486.244 7 -22314219.436 7
  20608971.788    -2730465.374 4  -1902912.887 4
 95  2 19 19 11 59.9870000  0  8 28 18 14 31 22 29 19 27
  19652383.124   -14262248.984 5 -10904995.551 5
  16695519.546   -38657488.289 7 -29925237.755 9
  19031952.405   -13079486.336 5 -10112306.851 6
  19806389.616    -6152811.105 5  -4554640.341 4
  19571963.569   -17034869.493 5 -13092611.440 6
  16672101.101   -34632106.982 7 -26840757.022 9
  17669433.218   -29209302.430 7 -22399790.485 7
  20581717.343    -2873641.325 3  -2014478.522 4
 95  2 19 19 12 29.9870000  0  8 28 18 14 31 22 29 19 27
  19631112.546   -14374022.773 5 -10992091.967 6
  16674595.366   -38767455.275 7 -30010926.314 9
  19038944.265   -13042733.546 5 -10083668.392 5
  19777311.960    -6305625.336 5  -4673716.318 3
  19577819.421   -17004099.985 5 -13068635.289 6
  16661541.648   -34687597.231 7 -26883996.194 9
  17648567.116   -29318936.423 7 -22485219.563 7
  20554488.554    -3016775.278 3  -2126011.396 5
 95  2 19 19 12 59.9870000  0  8 28 18 14 31 22 29 19 27
  19609916.874   -14485397.577 5 -11078877.502 6
  16653741.319   -38877049.714 7
  19045968.343   -13005821.650 5 -10054905.957 6
  19748255.085    -6458309.883 5  -4792691.227 5
  19583720.202   -16973096.400 5 -13044476.715 6
  16651052.968   -34742714.324 7 -26926944.590 9
  17627740.351   -29428378.795 7
  20527262.257    -3159832.996 3  -2237484.870 4
 95  2 19 19 13 29.9870000  0  8 28 18 14 31 22 29 19 27
  19588802.843   -14596383.671 5 -11165360.142 6
  16632954.476   -38986279.086 7
  19053022.382   -12968755.462 5 -10026023.317 5
  19719221.202    -6610862.933 5  -4911563.681 4
  19589659.632   -16941887.080 5 -13020157.862 6
  16640634.866   -34797467.521 7 -26969609.433 9
  17606951.038   -29537625.998 6
  20500055.984    -3302813.908 2  -2348898.526 5
 95  2 19 19 13 59.9870000  0  7 28 18 14 31 22 29 19
  19567751.437   -14706998.569 5 -11251553.521 6
  16612232.187   -39095169.782 7 -30266288.281 9
  19060107.163   -12931533.249 5  -9997019.093 5
  19690212.984    -6763299.087 5  -5030345.025 5
  19595632.530   -16910501.604 5 -12995701.742 6
  16630283.335   -34851869.727 7 -27012000.782 9
  17586200.390   -29646681.809 7 -22740605.550 7
 95  2 19 19 14 29.9870000  0  7 28 18 14 31 22 29 19
  19546773.085   -14817265.582 5 -11337475.829 5
  16591570.054   -39203740.322 7 -30350888.702 9
  19067217.859   -12894168.306 5  -9967903.658 5
  19661227.359    -6915647.406 5  -5149057.949 2
  19601632.343   -16878970.897 5 -12971132.444 6
  16619994.757   -34905914.905 7 -27054113.931 9
  17565482.694   -29755567.394 7 -22825451.458 7
 95  2 19 19 14 59.9860000  0  7 28 18 14 31 22 29 19
  19525855.244   -14927171.189 5 -11423116.507 5
  16570970.619   -39311998.693 7 -30435245.873 9
  19074356.158   -12856666.322 5  -9938681.437 5
  19632256.611    -7067890.500 5  -5267688.884 5
  19607658.502   -16847303.948 5 -12946456.990 6
  16609783.369   -34959584.799 7 -27095934.652 9
  17544793.244   -29864272.930 7 -22910157.069 7
 95  2 19 19 15 29.9860000  0  8 28 18 14 31 22 29 19 27
  19505010.682   -15036720.380 5 -11508479.473 5
  16550427.947   -39419962.231 7 -30519373.304 9
  19081519.627   -12819015.257 5  -9909343.057 5
  19603299.088    -7220040.177 5  -5386247.020 4
  19613706.197   -16815516.636 5 -12921687.751 6
  16599643.283   -35012878.152 7 -27137461.954 9
  17524136.213   -29972822.092 7 -22994740.827 7
  20391289.346          -0.48813
 95  2 19 19 15 59.9860000  0  8 28 18 14 31 22 29 19 27
  19484226.291   -15145912.347 5 -11593564.064 6
  16529935.893   -39527639.004 7 -30603277.282 9
  19088707.932   -12781235.676 5  -9879904.515 5
  19574362.580    -7372101.967 5  -5504736.665 4
  19619777.151   -16783605.394 5 -12896821.937 6
  16589572.705   -35065806.014 7 -27178704.460 9
  17503509.588   -30081238.678 7 -23079221.271 7
  20364110.924     -142827.461 3
 95  2 19 19 16 29.9860000  0  8 28 18 14 31 22 29 19 27
  19463517.127   -15254743.832 5 -11678367.773 5
  16509502.010   -39635026.826 7 -30686956.110 9
  19095920.674   -12743346.948 5  -9850380.944 5
  19545447.221    -7524065.623 5  -5623149.859 3
  19625876.502   -16751573.979 5 -12871862.510 6
  16579569.908   -35118368.961 7 -27219662.618 9
  17482897.580   -30189541.573 7 -23163613.133 7
  20336939.479     -285618.182 4        -0.20114
 95  2 19 19 16 59.9860000  0  8 28 18 14 31 22 29 19 27
  19442884.627   -15363202.201 5
  16489120.174   -39742124.655 7 -30770408.964 9
  19103150.299   -12705353.332 5  -9820775.628 5
  19516547.541    -7675925.320 5  -5741482.023 3
  19631991.838   -16719417.210 5 -12846805.375 6
  16569633.377   -35170580.807 7 -27260347.188 8
  17462306.479   -30297732.301 7
  20309781.275     -428368.741 3   -111234.354 2
 95  2 19 19 17 29.9860000  0  8 28 18 14 31 22 29 19 27
  19422315.697   -15471277.150 5
  16468798.307   -39848912.136 7 -30853619.980 9
  19110396.979   -12667253.870 5  -9791087.842 5
  19487668.611    -7827680.718 5  -5859732.889 4
  19638138.174   -16687124.229 5 -12821642.092 6
  16559765.393   -35222440.394 7 -27300757.271 9
  17441744.158   -30405799.470 7
  20282628.400     -571065.357 3   -222426.479 3
 95  2 19 19 17 59.9860000  0  8 28 18 14 31 22 29 19 27
  19401817.900   -15578981.501 5 -11931020.303 5
  16448534.783   -39955411.529 7 -30936606.520 9
  19117666.252   -12629066.992 5  -9761331.936 5
  19458810.854    -7979343.898 5  -5977911.932 3
  19644307.041   -16654715.400 5 -12796388.561 6
  16549959.221   -35273958.262 7 -27340901.081 8
  17421206.604   -30513743.228 7 -23416237.767 7
  20255475.916     -713716.404 3   -333583.096 3
 95  2 19 19 18 29.9860000  0  8 28 18 14 31 22 29 19 27
  19381393.994   -15686306.460 5 -12014650.106 5
  16428323.619   -40061609.825 7 -31019358.435 9
  19124948.713   -12590783.594 5  -9731500.828 5
  19429968.799    -8130907.681 5  -6096013.509 4
  19650497.010   -16622186.380 5 -12771041.393 6
  16540223.018   -35325123.038 7 -27380769.764 9
  17400691.408   -30621547.522 7 -23500241.108 7
  20228337.885     -856329.185 3   -444709.903 3
 95  2 19 19 18 59.9860000  0  8 28 18 14 31 22 29 19 27
  19361047.736   -15793258.007 5 -12097988.920 6
  16408173.783   -40167504.594 7 -31101873.828 9
  19132257.065   -12552404.731 5  -9701595.314 5
  19401144.861    -8282382.368 5  -6214045.669 4
  19656711.854   -16589528.000 5 -12745593.398 5
  16530554.596   -35375938.331 7 -27420366.107 9
  17380202.400   -30729202.145 7 -23584127.814 7
  20201206.299     -998919.204 3   -555818.970 4
 95  2 19 19 19 29.9860000  0  8 28 18 14 31 22 29 19 27
  19340766.713   -15899808.104 5 -12181014.920 6
  16388090.072   -40273055.341 7 -31184121.157 9
  19139581.947   -12513900.164 5  -9671591.868 5
  19372346.893    -8433717.129 5  -6331968.825 5
  19662957.736   -16556710.517 5 -12720021.391 5
  16520959.018   -35426367.785 7 -27459661.795 9
  17359750.838   -30836676.034 7 -23667873.693 8
  20174082.260    -1141452.963 3   -666884.210 5
 95  2 19 19 19 59.9860000  0  8 28 18 14 31 22 29 19 27
  19320564.447   -16005969.550 5 -12263738.073 6
  16368066.049   -40378262.418 7 -31266100.703 9
  19146930.330   -12475289.772 5  -9641505.969 5
  19343574.994    -8584907.476 5  -6449779.416 5
  19669229.010   -16523746.659 5 -12694335.325 5
  16511436.455   -35476413.902 7 -27498658.786 8
  17339334.408   -30943981.749 7 -23751488.529 8
  20146968.783    -1283953.933 4   -777923.897 3
 95  2 19 19 20 29.9860000  0  8 28 18 14 31 22 29 19 27
  19300439.025   -16111738.630 5 -12346155.487 5
  16348120.400   -40483100.367 7 -31347792.607 9
  19154293.354   -12436588.646 5  -9611349.369 5
  19314834.994    -8735941.006 5  -6567467.833 5
  19675533.111   -16490623.600 5 -12668525.242 5
  16501986.033   -35526073.281 7 -27537354.422 8
  17318941.572   -31051116.718 7 -23834970.320 8
  20119853.299    -1426415.162 3   -888932.604 3
 95  2 19 19 20 59.9860000  0  8 28 18 14 31 22 29 19 27
  19280378.049   -16217127.939 5 -12428276.992 6
  16328234.807   -40587585.137 7 -31429209.310 9
  19161671.815   -12397808.328 5  -9581131.059 5
  19286121.932    -8886825.024 5  -6685039.713 5
  19681860.799   -16457369.995 5 -12642613.412 5
  16492606.041   -35575361.108 7 -27575760.552 8
  17298591.979   -31158094.358 7 -23918329.508 8
  20092749.994    -1568854.652 3   -999924.374 4
 95  2 19 19 21 29.9860000  0  8 28 18 14 31 22 29 19 27
  19260403.346   -16322112.750 5 -12510083.289 5
  16308422.135   -40691695.661 7 -31510334.393 9
  19169069.932   -12358932.426 5  -9550838.287 5
  19257444.908    -9037533.586 5  -6802474.881 5
  19688210.416   -16423991.827 5 -12616604.562 5
  16483300.557   -35624259.670 7 -27613863.349 9
  17278263.143   -31264905.933 7 -24001559.302 8
  20065652.197    -1711250.282 4  -1110881.947 3
 95  2 19 19 21 59.9860000  0  8 28 18 14 31 22 29 19 27
  19240504.768   -16426692.979 5 -12591574.332 5
  16288686.221   -40795432.232 7 -31591168.089 9
  19176487.627   -12319965.448 5  -9520474.519 5
  19228793.354    -9188086.502 5  -6919788.771 5
  19694583.455   -16390510.073 5 -12590514.953 5
  16474066.268   -35672782.384 7 -27651673.273 9
  17257964.518   -31371554.191 7 -24084661.839 8
  20038566.143    -1853612.902 4  -1221813.790 3
 95  2 19 19 22 29.9860000  0  8 28 18 14 31 22 29 19 27
  19220683.221   -16530847.827 5 -12672733.900 6
  16269013.900   -40898794.585 7 -31671710.177 9
  19183924.604   -12280877.999 5  -9490016.884 5
  19200173.065    -9338480.141 5  -7036978.534 5
  19700978.877   -16356918.228 5 -12564339.601 5
  16464906.752   -35720927.798 7 -27689189.197 9
  17237706.182   -31478032.895 7 -24167632.258 8
  20011480.565    -1995928.507 4  -1332708.981 3
 95  2 19 19 22 59.9860000  0  8 28 18 14 31 22 29 19 27
  19200943.557   -16634597.659 5 -12753577.885 6
  16249408.736   -41001814.006 7 -31751985.048 9
  19191383.361   -12241682.555 5  -9459475.107 5
  19171577.596    -9488750.562 5  -7154072.274 5
  19707382.783   -16323250.759 5 -12538105.289 5
  16455813.291   -35768722.758 7 -27726432.049 9
  17217473.096   -31584370.331 7 -24250492.591 8
  19984400.424    -2138211.859 3  -1443579.099 4
 95  2 19 19 23 29.9860000  0  8 28 18 14 31 22 29 19 27
  19181287.119   -16737910.969 5 -12834081.702 6
  16229876.791   -41104450.507 7 -31831961.536 9
  19198866.111   -12202365.849 5  -9428838.855 5
  19143014.307    -9638866.348 5  -7271045.504 4
  19713806.713   -16289484.513 5 -12511793.989 5
  16446788.479   -35816133.462 7 -27763375.478 9
  17197267.736   -31690544.616 7 -24333225.799 8
  19957344.072    -2280425.380 4  -1554394.783 4
 95  2 19 19 23 59.9860000  0  8 28 18 14 31 22 29 19 27
  19161703.908   -16840790.197 5 -12914247.271 6
  16210420.994   -41206719.366 7 -31911651.554 9
  19206365.049   -12162945.171 5  -9398121.574 5
  19114474.885    -9788835.618 5  -7387904.603 5
  19720253.057   -16255603.342 5 -12485393.149 5
  16437840.377   -35863158.068 7 -27800018.063 8
  17177090.627   -31796554.834 7 -24415831.164 8
  19930291.666    -2422576.172 4  -1665161.583 5
 95  2 19 19 24 29.9860000  0  8 28 18 14 31 22 29 19 27
  19142209.893   -16943233.776 5 -12994073.371 6
  16191024.736   -41308622.738 7 -31991056.786 9
  19213881.299   -12123429.615 5  -9367330.342 4
  19085970.869    -9938644.376 5  -7504638.588 5
  19726728.580   -16221591.558 5 -12458890.553 5
  16428969.338   -35909775.898 7 -27836343.665 9
  17156951.783   -31902399.847 7 -24498307.793 8
  19903256.283    -2564657.743 4  -1775874.472 5
 95  2 19 19 24 59.9860000  0  8 28 18 14 31 22 29 19 27
  19122796.916   -17045244.782 5 -13073562.402 6
  16171702.893   -41410156.031 7 -32070173.638 9
  19221419.182   -12083837.771 5  -9336479.667 4
  19057497.010   -10088274.527 5  -7621233.402 5
  19733222.619   -16187446.582 5 -12432284.171 5
  16420179.244   -35955970.092 7 -27872339.160 9
  17136844.713   -32008073.022 7 -24580650.530 8
  19876232.416    -2706674.267 4  -1886536.647 5
 95  2 19 19 25 29.9860000  0  8 28 18 14 31 22 29 19 27
  19103466.330   -17146832.458 5 -13152721.551 5
  16152453.619   -41511325.478 7 -32149006.968 9
  19228964.354   -12044188.100 5  -9305583.979 5
  19029052.783   -10237724.354 5  -7737687.720 5
  19739749.041   -16153172.841 5 -12405577.449 5
  16411467.166   -36001756.202 7 -27908016.674 9
  17116760.408   -32113589.470 7 -24662871.131 8
  19849207.502    -2848660.368 4  -1997175.120 5
 95  2 19 19 25 59.9860000  0  8 28 18 14 31 22 29 19 27
  19084212.604   -17247995.509 5 -13231549.825 5
  16133272.369   -41612134.882 7 -32227559.750 9
  19236520.252   -12004478.786 5  -9274641.776 4
  19000647.893   -10386999.370 5  -7854005.809 5
  19746293.393   -16118765.435 5 -12378766.588 5
  16402827.791   -36047144.107 7 -27943383.899 9
  17096712.971   -32218941.845 7 -24744963.882 8
  19822195.604    -2990620.796 3  -2107793.598 4
 95  2 19 19 26 29.9850000  0  8 28 18 14 31 22 29 19 27
  19065052.411   -17348701.617 5 -13310022.038 6
  16114165.919   -41712535.779 7 -32305794.226 9
  19244098.060   -11964673.734 5  -9243624.999 5
  18972283.653   -10536050.364 5  -7970149.346 5
  19752869.818   -16084218.455 5 -12351846.915 5
  16394271.591   -36092115.975 7 -27978426.934 9
  17076704.107   -32324105.812 7 -24826909.823 8
  19795197.692    -3132523.080 4  -2218366.746 2
 95  2 19 19 26 59.9850000  0  8 28 18 14 31 22 29 19 27
  19045971.575   -17448965.831 5 -13388149.931 6
  16095130.880   -41812544.721 7 -32383723.272 9
  19251688.278   -11924788.120 5  -9212545.456 5
  18943959.638   -10684902.151 5  -8086137.652 5
  19759465.044   -16049552.559 5 -12324834.617 5
  16385786.192   -36136708.223 7 -28013174.169 9
  17056725.653   -32429105.342 7 -24908727.624 8
  19768200.161    -3274382.798 3  -2328906.773 1
 95  2 19 19 27 29.9850000  0  8 28 18 14 31 22 29 19 27
  19026972.435   -17548821.585 5
  16076168.669   -41912203.005 7
  19259284.122   -11884871.770 5  -9181441.953 5
  18915664.247   -10833593.447 5  -8202000.910 5
  19766076.802   -16014813.418 5 -12297765.239 5
  16377362.458   -36180978.067 7 -28047670.169 9
  17036762.685   -32533984.370 7 -24990451.536 8
  19741211.169    -3416226.669 4  -2439434.434 2
 95  2 19 19 27 59.9850000  0  8 28 18 14 31 22 29 19 27
  19008053.942   -17648233.115 5
  16057275.966   -42011485.441 7
  19266889.458   -11844903.260 5  -9150297.798 5
  18887405.560   -10982081.607 5  -8317705.884 5
  19772707.536   -15979967.168 5 -12270612.398 5
  16369008.427   -36224871.737 7 -28081873.060 9
  17016838.786   -32638699.574 7 -25072047.793 8
  19714229.427    -3558002.252 5  -2549908.841 3
 95  2 19 19 28 29.9850000  0  8 28 18 14 31 22 29 19 27
  18989223.802   -17747186.174 5
  16038457.310   -42110384.744 7
  19274509.771   -11804872.672 5  -9119105.297 5
  18859195.060   -11130337.249 5  -8433229.677 5
  19779359.677   -15944996.434 5 -12243362.593 5
  16360733.942   -36268360.951 7 -28115760.788 9
  16996941.052   -32743244.948 7 -25153511.712 8
  19687263.919    -3699695.153 5  -2660318.859 3
 95  2 19 19 28 59.9850000  0  8 28 18 14 31 22 29 19 27
  18970477.997   -17845681.180 5
  16019706.450   -42208916.856 7
  19282133.903   -11764796.251 5  -9087877.076 5
  18831027.036   -11278366.946 5  -8548577.413 5
  19786041.841   -15909903.527 5 -12216017.570 5
  16352536.794   -36311436.793 7 -28149326.398 9
  16977082.278   -32847615.763 7 -25234839.615 8
  19660318.099    -3841299.913 5  -2770660.184 5
 95  2 19 19 29 29.9850000  0  8 28 18 14 31 22 29 19 27
  18951829.950   -17943701.096 5
  16001027.896   -42307068.871 7
  19289774.747   -11724644.077 5  -9056589.810 4
  18802906.778   -11426147.486 5  -8663730.995 5
  19792741.646   -15874679.017 5 -12188569.998 5
  16344426.278   -36354059.981 7 -28182539.296 9
  16957260.302   -32951790.064 7 -25316014.386 8
  19633389.950    -3982819.613 5  -2880935.247 5
 95  2 19 19 29 59.9850000  0  8 28 18 14 31 22 29 19 27
  18933258.067   -18041295.460 5 -13849705.048 6
  15982415.013   -42404882.082 7 -32845284.836 9
  19297429.247   -11684450.307 5  -9025270.144 5
  18774819.544   -11573724.293 5  -8778725.826 5
  19799456.552   -15839387.018 5 -12161069.809 5
  16336392.028   -36396273.058 7 -28215432.637 9
  16937464.067   -33055811.052 7 -25397069.691 8
  19606464.185    -4124313.370 5  -2991190.093 5
 95  2 19 19 30 29.9850000  0  8 28 18 14 31 22 29 19 27
  18914766.786   -18138441.768 5 -13925403.409 6
  15963872.810   -42502329.509 7 -32921217.905 9
  19305082.919   -11644175.656 5  -8993887.444 5
  18746780.372   -11721076.838 5  -8893545.906 5
  19806188.817   -15804026.662 5 -12133516.394 5
  16328436.849   -36438070.547 7 -28248002.132 9
  16917698.341   -33159670.617 7 -25477999.224 8
  19579546.122    -4265764.650 5  -3101411.853 5
 95  2 19 19 30 59.9850000  0  8 28 18 14 31 22 29 19 27
  18896372.317   -18235124.070 5 -14000740.215 6
  15945401.263   -42599388.187 7 -32996848.045 8
  19312764.622   -11603804.015 4  -8962429.169 5
  18718787.044   -11868191.986 5  -9008181.016 5
  19812929.146   -15768599.451 4 -12105910.836 5
  16320566.732   -36479439.577 7 -28280237.767 9
  16897969.521   -33263352.056 7 -25558789.953 8
  19552634.857    -4407164.111 4  -3211593.239 5
 95  2 19 19 31 29.9850000  0  8 28 18 14 31 22 29 19 27
  18878062.294   -18331330.144 5 -14075705.925 5
  15927010.388   -42696025.674 7 -33072149.985 9
  19320477.474   -11563314.694 5  -8930879.201 4
  18690838.427   -12015058.125 5  -9122622.084 5
  19819684.708   -15733091.772 5 -12078242.655 5
  16312776.786   -36520378.415 7 -28312138.188 9
  16878278.497   -33366842.481 7 -25639431.845 8
  19525740.989    -4548512.851 5  -3321735.088 4
 95  2 19 19 31 59.9850000  0  8 28 18 14 31 22 29 19 27
  18859845.013   -18427069.752 5 -14150308.148 5
  15908700.575   -42792247.809 7 -33147128.270 9
  19328196.185   -11522736.081 5  -8899259.662 3
  18662940.130   -12161684.497 5  -9236876.325 5
  19826457.107   -15697511.493 4 -12050517.855 5
  16305061.857   -36560918.251 7 -28343727.704 9
  16858619.278   -33470152.770 7 -25719933.372 8
  19498855.169    -4689794.822 5  -3431824.892 4
 95  2 19 19 32 29.9850000  0  8 28 18 14 31 22 29 19 27
  18841713.122   -18522348.013 5 -14224550.899 6
  15890471.341   -42888060.239 7 -33221787.312 9
  19335933.411   -11482092.744 5  -8867589.673 3
  18635075.521   -12308083.307 5  -9350953.242 5
  19833244.818   -15661846.650 5 -12022727.157 5
  16297422.919   -36601059.375 7 -28375006.530 9
  16838989.052   -33573296.734 7 -25800305.287 8
  19471982.278    -4831008.906 5  -3541861.777 5
 95  2 19 19 32 59.9850000  0  8 28 18 14 31 22 29 19 27
  18823665.466   -18617196.350 5 -14298458.642 6
  15872311.177   -42983489.447 7 -33296147.737 9
  19343671.044   -11441436.387 5  -8835909.536 1
  18607253.192   -12454293.638 5  -9464883.307 5
  19840043.411   -15626110.849 4 -11994881.194 5
  16289853.286   -36640833.307 7 -28405999.234 9
  16819388.716   -33676295.206 7 -25880563.839 8
  19445117.263    -4972194.638 5  -3651876.602 3
 95  2 19 19 33 29.9850000  0  8 28 18 14 31 22 29 19 27
  18805705.341   -18711587.171 5 -14372009.867 5
  15854227.989   -43078521.503 7 -33370198.687 9
  19351409.528   -11400749.633 5  -8804205.700 2
  18579470.044   -12600293.451 5  -9578649.334 5
  19846870.497   -15590258.011 5 -11966943.992 5
  16282358.239   -36680227.521 7 -28436696.053 9
  16799819.591   -33779127.083 7 -25960692.568 8
  19418262.771    -5113313.300 5  -3761839.179 2
 95  2 19 19 33 59.9850000  0  8 28 18 14 31 22 29 19 27
  18787827.239   -18805527.288 5 -14445209.935 6
  15836213.075   -43173178.500 7 -33443957.386 9
  19359151.607   -11360054.881 5  -8772495.677 3
  18551729.278   -12746085.096 5  -9692253.134 5
  19853714.255   -15554290.856 4 -11938917.742 5
  16274936.599   -36719231.401 7 -28467088.715 9
  16780282.239   -33881809.813 7 -26040705.088 8
  19391421.614    -5254369.453 5  -3871753.024 2
 95  2 19 19 34 29.9850000  0  8 28 18 14 31 22 29 19 27
  18770043.989   -18898987.982 5 -14518036.419 6
  15818277.099   -43267428.285 7 -33517398.782 8
  19366907.396   -11319321.354 5  -8740755.413 3
  18524033.075   -12891637.057 5  -9805670.160 5
  19860579.575   -15518185.439 3 -11910783.783 5
  16267593.521   -36757812.515 7 -28497151.953 9
  16760774.896   -33984325.820 7 -26120587.692 8
  19364592.708    -5395362.244 4  -3981617.507 3
 95  2 19 19 34 59.9850000  0  8 28 18 14 31 22 29 19 27
  18752350.552   -18991972.863 5 -14590492.145 6
  15800419.192   -43361273.821 7 -33590525.179 8
  19374664.591   -11278550.983 5  -8708986.468 4
  18496376.138   -13036946.877 5  -9918898.502 5
  19867471.310   -15481978.876 3 -11882570.998 5
  16260328.966   -36795992.588 7 -28526902.695 9
  16741296.505   -34086677.927 7 -26200342.585 8
  19337770.161    -5536293.556 5  -4091434.078 4
 95  2 19 19 35 29.9850000  0  8 28 18 14 31 22 29 19 27
  18734734.794   -19084489.241 5 -14662582.810 6
  15782639.732   -43454718.144 7 -33663338.939 8
  19382424.294   -11237750.934 5  -8677194.390 4
  18468773.638   -13182011.116 5 -10031935.482 5
  19874371.200   -15445709.946 4 -11854309.626 5
  16253137.630   -36833774.482 7 -28556343.164 9
  16721846.950   -34188885.378 7 -26279984.755 8
  19310962.060    -5677174.859 5  -4201211.706 5
 95  2 19 19 35 59.9850000  0  8 28 18 14 31 22 29 19 27
  18717228.817   -19176530.153 5 -14734302.986 6
  15764935.185   -43547740.203 7 -33735823.664 9
  19390197.192   -11196916.777 5  -8645375.732 5
  18441219.575   -13326811.027 5 -10144766.494 5
  19881281.888   -15409405.860 4 -11826020.830 5
  16246028.138   -36871142.586 7 -28585461.197 9
  16702427.099   -34290945.059 7 -26359511.792 8
  19284164.325    -5818022.818 5  -4310963.328 5
 95  2 19 19 36 29.9850000  0  8 28 18 14 31 22 29 19 27
  18699806.216   -19268067.117 5 -14805630.458 6
  15747320.185   -43640315.225 7 -33807960.042 9
  19397982.271   -11156020.041 5  -8613508.332 4
  18413717.396   -13471316.644 5 -10257368.175 5
  19888192.849   -15373055.784 3 -11797696.193 3
  16238998.833   -36908081.382 7 -28614244.701 9
  16683039.411   -34392826.591 7 -26438899.990 8
  19257369.630    -5958806.096 4  -4420664.556 5
 95  2 19 19 36 59.9850000  0  8 28 18 14 31 22 29 19 27
  18682479.505   -19359107.628 5 -14876571.092 6
  15729788.208   -43732456.294 7 -33879758.281 9
  19405771.364   -11115084.811 4  -8581610.898 4
  18386276.567   -13615529.765 5 -10369741.944 5
  19895127.247   -15336664.349 3 -11769339.353 2
  16232049.513   -36944593.640 7 -28642695.849 9
  16663683.880   -34494518.645 7 -26518140.551 8
  19230590.552    -6099528.568 4  -4530318.400 5
 95  2 19 19 37 29.9850000  0  8 28 18 14 31 22 29 19 27
  18665261.575   -19449615.882 5 -14947096.991 6
  15712340.911   -43824128.408 7 -33951191.099 9
  19413571.192   -11074093.232 4  -8549669.576 4
  18358898.067   -13759411.492 6 -10481857.489 5
  19902069.232   -15300171.771 3 -11740903.672 5
  16225192.591   -36980629.906 7 -28670776.082 9
  16644380.646   -34595978.980 7 -26597200.552 8
  19203824.482    -6240169.003 4  -4639908.330 5
 95  2 19 19 37 59.9840000  0  8 28 18 14 31 22 29 19 27
  18648139.344   -19539589.276 5 -15017206.101 6
  15694986.149   -43915328.681 7 -34022256.257 9
  19421384.289   -11033049.220 4  -8517687.392 4
  18331580.719   -13902961.899 6 -10593714.852 5
  19909031.141   -15263562.713 3 -11712377.258 5
  16218424.141   -37016200.193 7 -28698493.221 9
  16625120.328   -34697187.072 7 -26676063.999 8
  19177085.781    -6380707.862 4  -4749419.118 5
 95  2 19 19 38 29.9840000  0  8 28 18 14 31 22 29 19 27
  18631121.102   -19629016.301 5 -15086889.493 6
  15677722.688   -44006043.154 7 -34092942.861 8
  19429204.844   -10991942.445 3  -8485656.293 3
  18304325.539   -14046182.024 6 -10705314.851 5
  19916029.039   -15226799.843 3 -11683730.992 5
  16211746.039   -37051295.453 7 -28725840.208 9
  16605916.242   -34798116.420 7 -26754710.244 8
  19150361.328    -6521116.849 4  -4858828.712 5
 95  2 19 19 38 59.9840000  0  8 28 18 14 31 22 29 19 27
  18614206.883   -19717907.563 5 -15156155.381 6
  15660557.399   -44096264.344 7 -34163245.087 8
  19437033.625   -10950800.346 4  -8453597.669 4
  18277133.188   -14189085.942 5 -10816668.452 5
  19923056.336   -15189902.799 3 -11654980.148 5
  16205157.117   -37085927.846 7 -28752826.525 9
  16586757.172   -34898786.752 7 -26833154.652 8
  19123669.070    -6661405.376 5  -4968144.418 5
 95  2 19 19 39 29.9840000  0  8 28 18 14 31 22 29 19 27
  18597392.797   -19806270.560 5 -15225009.647 6
  15643480.391   -44186003.421 7 -34233171.653 8
  19444874.938   -10909617.908 4  -8421507.616 4
  18249997.414   -14331688.190 5 -10927786.989 5
  19930094.000   -15152900.070 4 -11626147.019 5
  16198654.391   -37120099.069 7 -28779453.477 9
  16567643.086   -34999233.100 7 -26911424.527 8
  19096999.360    -6801570.217 5  -5077363.744 5
 95  2 19 19 39 59.9840000  0  8 28 18 14 31 22 29 19 27
  18580684.922   -19894076.511 5 -15293429.827 6
  15626498.234   -44275236.880 7 -34302704.227 8
  19452711.633   -10868358.615 3  -8389357.670 3
  18222922.516   -14473953.395 5 -11038642.896 5
  19937161.453   -15115782.073 4 -11597224.030 5
  16192245.766   -37153779.676 7 -28805698.132 9
  16548574.297   -35099446.883 7 -26989513.178 8
  19070349.453    -6941587.001 5  -5186467.691 5
 95  2 19 19 40 29.9840000  0  8 28 18 14 31 22 29 19 27
  18564076.945   -19981321.019 5 -15361412.516 6
  15609611.063   -44363974.225 7 -34371850.213 9
  19460590.328   -10827035.796 3  -8357158.232 4
  18195917.055   -14615866.781 5 -11149224.657 5
  19944243.180   -15078564.410 4 -11568223.362 5
  16185929.844   -37186957.654 7 -28831551.128 9
  16529543.969   -35199448.435 7 -27067436.461 8
  19043736.820    -7081471.265 5  -5295468.388 5
 95  2 19 19 40 59.9840000  0  8 28 18 14 31 22 29 19 27
  18547578.383   -20068023.674 5 -15428972.997 6
  15592816.461   -44452250.002 7 -34440636.532 9
  19468452.242   -10785663.051 3  -8324919.879 4
  18168980.789   -14757435.550 6 -11259537.908 5
  19951334.070   -15041289.705 4 -11539178.259 4
  16179706.844   -37219655.661 7 -28857030.125 9
  16510546.024   -35299272.033 7 -27145221.081 8
  19017132.047    -7221263.937 5  -5404397.701 5
 95  2 19 19 41 29.9840000  0  8 28 18 14 31 22 29 19 27
  18531185.055   -20154174.842 5 -15496103.746 6
  15576103.328   -44540071.221 7 -34509068.654 9
  19476342.875   -10744221.647 3  -8292628.060 3
  18142110.500   -14898641.706 6 -11369568.591 5
  19958441.383   -15003951.549 5 -11510083.688 4
  16173578.070   -37251877.403 7 -28882138.004 9
  16491587.883   -35398898.915 7 -27222852.418 8
  18990546.461    -7360971.170 4  -5513260.468 5
 95  2 19 19 41 59.9840000  0  8 28 18 14 31 22 29 19 27
  18514898.414   -20239763.903 5 -15562796.492 6
  15559476.102   -44627425.188 7 -34577136.680 8
  19484243.617   -10702713.862 3  -8260284.516 2
  18115312.000   -15039472.926 6 -11479307.128 5
  19965563.195   -14966531.764 4 -11480925.528 3
  16167534.359   -37283630.647 7 -28906880.819 9
  16472671.899   -35498308.725 7 -27300314.603 8
  18963978.649    -7500588.829 4  -5622053.447 5
 95  2 19 19 42 29.9840000  0  8 28 18 14 31 22 29 19 27
  18498719.547   -20324792.019 5 -15629052.132 6
  15542943.359   -44714310.351 7 -34644839.412 8
  19492150.938   -10661145.026 3  -8227893.395 2
  18088579.274   -15179934.393 6 -11588757.552 5
  19972699.727   -14929019.649 3 -11451695.409 4
  16161577.133   -37314932.475 7 -28931271.877 9
  16453800.672   -35597481.876 7 -27377592.385 8
  18937436.117    -7640099.323 5  -5730762.913 5
 95  2 19 19 42 59.9840000  0  8 28 18 14 31 22 29 19 27
  18482646.234   -20409271.571 6 -15694880.318 6
  15526499.516   -44800737.546 7 -34712185.282 8
  19500078.297   -10619509.613 4  -8195450.369 1
  18061917.883   -15320044.312 6 -11697934.046 5
  19979854.922   -14891408.367 3 -11422388.064 4
  16155705.172   -37345798.127 7 -28955323.052 9
  16434972.570   -35696424.715 7 -27454690.694 8
  18910898.734    -7779506.150 5  -5839391.600 5
 95  2 19 19 43 29.9840000  0  8 28 18 14 31 22 29 19 27
  18466674.602   -20493203.324 6 -15760281.641 6
  15510142.586   -44886695.955 7 -34779165.861 8
  19508011.320   -10577824.576 5  -8162968.670 2
  18035320.680   -15459816.507 6 -11806847.373 5
  19987036.938   -14853686.042 3 -11392994.202 5
  16149915.399   -37376221.364 7 -28979029.497 9
  16416185.289   -35795139.824 7 -27531611.557 8
  18884401.219    -7918790.181 5  -5947924.609 5
 95  2 19 19 43 59.9840000  0  8 28 18 14 31 22 29 19 27
  18450806.070   -20576572.616 6 -15825244.693 6
  15493875.664   -44972159.671 7 -34845760.961 8
  19515956.219   -10536088.515 5  -8130447.199 1
  18008789.016   -15599242.492 6
  19994238.133   -14815826.644 3 -11363493.502 4
  16144216.602   -37406171.880 7 -29002367.600 9
  16397449.774   -35893616.821 7 -27608346.886 8
  18857919.836    -8057925.423 5
 95  2 19 19 44 29.9840000  0  8 28 18 14 31 22 29 19 27
  18435051.711   -20659366.678 6 -15889759.512 6
  15477714.195   -45057109.013 7 -34911955.252 8
  19523908.594   -10494287.677 5  -8097875.262 1
  17982328.524   -15738298.780 6
  20001468.555   -14777830.718 3 -11333886.445 4
  16138610.367   -37435635.206 7 -29025326.060 9
  16378754.688   -35991850.573 7 -27684892.677 8
  18831475.133    -8196904.818 5
 95  2 19 19 44 59.9840000  0  8 28 18 14 31 22 29 19 27
  18419403.274   -20741601.170 6 -15953838.306 6
  15461647.367   -45141549.059 7 -34977752.681 8
  19531868.625   -10452442.947 5  -8065269.146 2
  17955933.274   -15877004.189 6 -12131928.471 5
  20008716.383   -14739738.174 3 -11304204.051 5
  16133092.172   -37464617.880 7 -29047909.987 9
  16360098.680   -36089880.621 7 -27761279.725 8
  18805052.445    -8335764.930 5  -6272839.916 5
 95  2 19 19 45 29.9840000  0  8 28 18 14 31 22 29 19 27
  18403861.164   -20823289.818 6 -16017491.774 6
  15445675.149   -45225480.892 7 -35043154.116 8
  19539834.610   -10410588.584 3  -8032655.541 2
  17929604.453   -16015372.524 6 -12239747.881 6
  20015979.477   -14701579.473 4 -11274470.117 5
  16127666.031   -37493141.024 7 -29070135.843 9
  16341479.484   -36187721.219 7 -27837519.160 8
  18778643.711    -8474524.532 5  -6380964.260 5
 95  2 19 19 45 59.9840000  0  8 28 18 14 31 22 29 19 27
  18388418.883   -20904428.506 6 -16080716.695 6
  15429800.172   -45308899.625 7 -35108155.730 8
  19547801.047   -10368705.686 3  -8000019.733 3
  17903341.297   -16153368.310 6 -12347276.994 6
  20023253.688   -14663351.722 4 -11244682.390 5
  16122323.836   -37521214.106 7 -29092010.993 9
  16322898.250   -36285370.383 7 -27913609.421 8
  18752256.555    -8613192.360 5  -6489017.077 5
 95  2 19 19 46 29.9840000  0  8 28 18 14 31 22 29 19 27
  18373085.680   -20985011.019 5 -16143508.245 6
  15414024.227   -45391798.663 7 -35172752.391 8
  19555773.445   -10326797.020 3  -7967363.813 2
  17877156.625   -16290966.500 6 -12454496.296 6
  20030536.383   -14625063.594 4 -11214847.630 5
  16117064.391   -37548841.330 7 -29113538.725 9
  16304356.320   -36382821.535 7 -27989545.385 8
  18725887.195    -8751773.184 5  -6597002.121 5
 95  2 19 19 46 59.9840000  0  8 28 18 14 31 22 29 19 27
  18357854.641   -21065042.668 5 -16205870.540 6
  15398346.063   -45474185.589 7 -35236950.002 8
  19563753.969   -10284887.901 3  -7934707.569 4
  17851050.133   -16428174.030 6 -12561411.194 6
  20037837.438   -14586700.982 3 -11184954.801 4
  16111892.938   -37576022.893 7 -29134719.194 9
  16285848.875   -36480074.780 7 -28065327.144 8
  18699530.430    -8890275.066 5  -6704925.636 5
 95  2 19 19 47 29.9840000  0  8 28 18 14 31 22 29 19 27
  18342727.320   -21144527.741 6 -16267806.933 6
  15382763.977   -45556077.405 7 -35300761.821 8
  19571723.313   -10242988.594 3  -7902058.975 2
  17825016.008   -16564976.863 6 -12668010.732 6
  20045156.195   -14548257.157 2 -11154998.696 2
  16106806.086   -37602758.616 7 -29155552.262 9
  16267379.820   -36577122.338 7 -28140948.626 8
  18673188.672    -9028686.221 5  -6812778.469 5
 95  2 19 19 47 59.9840000  0  8 28 18 14 31 22 29 19 27
  18327705.664   -21223478.946 6 -16329327.330 6
  15367269.774   -45637496.612 7 -35364205.358 8
  19579694.758   -10201112.243 3  -7869428.240 3
  17799058.328   -16701380.506 6 -12774299.213 6
  20052487.024   -14509747.126 3 -11124991.008 4
  16101801.875   -37629051.889 7 -29176040.559 9
  16248947.836   -36673980.952 7 -28216422.886 8
  18646867.922    -9167018.698 5  -6920569.993 5
 95  2 19 19 48 29.9840000  0  7 28 18 14 31 29 19 27
  18312787.274   -21301883.882 6 -16390422.079 6
  15351866.805   -45718435.400 7 -35427274.555 8
  19587652.938   -10159261.904 3  -7836817.765 3
  17773174.578   -16837395.020 6 -12880284.491 6
  16096889.422   -37654872.993 7 -29196160.937 9
  16230556.664   -36770639.448 7 -28291741.200 8
  18620560.875    -9305264.757 5  -7028294.178 5
 95  2 19 19 48 59.9840000  0  7 28 18 14 31 29 19 27
  18297968.102   -21379754.275 6 -16451100.282 6
  15336549.875   -45798919.878 7 -35489989.747 8
  19595613.289   -10117427.939 3  -7804220.035 2
  17747361.625   -16973048.677 6 -12985988.573 6
  16092064.914   -37680233.173 7 -29215922.144 9
  16212197.070   -36867119.109 7 -28366920.153 8
  18594270.078    -9443426.020 5  -7135952.265 6
 95  2 19 19 49 29.9830000  0  7 28 18 14 31 29 19 27
  18283251.542   -21457083.356 5 -16511356.697 6
  15321320.917   -45878951.688 7 -35552352.206 8
  19603579.776   -10075597.554 2  -7771625.127 2
  17721616.050   -17108340.040 6 -13091410.358 6
  16087326.292   -37705127.981 7 -29235320.727 9
  16193873.034   -36963415.011 7 -28441955.924 8
  18567995.253    -9581496.786 5  -7243539.850 5
 95  2 19 19 49 59.9830000  0  6 28 18 31 29 19 27
  18268637.472   -21533879.657 5 -16571197.962 6
  15306179.081   -45958537.786 7 -35614367.359 8
  17695936.105   -17243294.944 6 -13196569.965 6
  16082675.433   -37729568.326 7 -29254365.189 9
  16175579.816   -37059526.977 7 -28516848.364 8
  18541732.401    -9719500.010 5  -7351074.799 5
 95  2 19 19 50 29.9830000  0  7 28 18 14 31 29 19 27
  18254122.144   -21610138.546 5 -16630620.473 6
  15291119.331   -46037673.633 7 -35676031.668 7
  19619504.480          -0.04513
  17670319.394   -17377911.561 6 -13301465.979 6
  16078108.816   -37753563.343 7 -29273062.637 9
  16157328.605   -37155441.317 7 -28591586.809 8
  18515485.511    -9857431.726 5  -7458554.036 5
 95  2 19 19 50 59.9830000  0  7 28 18 14 31 29 19 27
  18239715.816   -21685852.690 6 -16689618.497 6
  15276148.847   -46116352.519 7 -35737339.898 8
  19627458.409          -0.11713
  17644770.261   -17512174.936 6 -13406086.728 6
  16073627.253   -37777116.651 7 -29291415.898 9
  16139117.503   -37251138.604 7 -28666156.129 8
  18489255.112    -9995273.517 5  -7565963.213 5
 95  2 19 19 51 29.9830000  0  7 28 18 14 31 29 19 27
  18225413.644   -21761029.127 5 -16748197.543 6
  15261265.058   -46194560.482 7 -35798281.181 8
  19635402.901       41757.574 3
  17619286.073   -17646080.945 6 -13510429.020 6
  16069227.487   -37800235.217 7 -29309430.401 9
  16120950.034   -37346615.929 7 -28740554.041 8
  18463040.597   -10133030.768 5  -7673306.517 5
 95  2 19 19 51 59.9830000  0  7 28 18 14 31 29 19 27
  18211213.800   -21835640.870 6 -16806336.565 6
  15246477.706   -46272254.716 7 -35858822.152 8
  19643340.230       83493.834 3        -0.18011
  17593882.605   -17779582.599 6 -13614456.215 6
  16064913.878   -37822902.827 7 -29327093.506 8
  16102830.214   -37441854.561 7 -28814765.962 9
  18436847.925   -10270669.179 5  -7780557.219 5
 95  2 19 19 52 29.9830000  0  7 28 18 14 31 29 19 27
  18197120.097   -21909711.238 6 -16864053.732 6
  15231790.769   -46349446.987 7 -35918971.982 8
  19651269.417      125175.699 2     32479.020 1
  17568555.784   -17912682.284 6 -13718170.202 6
  16060680.941   -37845152.503 7 -29344430.951 9
  16084738.362   -37536905.861 7 -28888831.908 8
  18410674.706   -10408208.946 5  -7887731.047 5
 95  2 19 19 52 59.9830000  0  7 28 18 14 31 29 19 27
  18183117.909   -21983261.709 5 -16921365.799 6
  15217195.542   -46426147.756 7 -35978738.824 8
  19659198.878      166777.451 3     64895.690 4
  17543302.659   -18045386.385 6 -13821575.931 6
  16056521.683   -37867007.095 7 -29361460.534 8
  16066680.667   -37631800.237 7 -28962775.574 9
  18384517.339   -10545674.363 5  -7994846.961 5
 95  2 19 19 53 29.9830000  0  7 28 18 14 31 29 19 27
  18169227.448   -22056281.151 6 -16978264.079 6
  15202698.323   -46502338.446 7 -36038108.204 8
  19667104.417      208331.702 3     97275.402 4
  17518126.136   -18177686.084 6 -13924666.540 6
  16052438.245   -37888461.365 7 -29378178.186 9
  16048648.472   -37726545.089 7 -29036602.732 9
  18358374.651   -10683072.172 5  -8101910.163 5
 95  2 19 19 53 59.9830000  0  7 28 18 14 31 29 19 27
  18155435.464   -22128762.883 6 -17034743.360 6
  15188292.323   -46578030.351 7 -36097088.920 7
  19675007.316      249849.223 4    129626.435 3
  17493028.503   -18309585.753 6 -14027445.440 6
  16048432.230   -37909516.465 7 -29394584.790 9
  16030652.253   -37821143.036 7 -29110315.414 9
  18332236.378   -10820411.342 5  -8208927.696 5
 95  2 19 19 54 29.9830000  0  7 28 18 14 31 29 19 27
  18141744.120   -22200704.363 5 -17090801.665 6
  15173982.105   -46653230.734 7 -36155686.635 8
  19682894.448      291315.568 4    161937.641 4
  17468001.753   -18441099.645 6 -14129923.729 6
  16044504.394   -37930163.716 7 -29410673.594 9
  16012680.167   -37915579.298 7 -29183902.113 9
  18306111.573   -10957701.905 5  -8315907.342 5
 95  2 19 19 54 59.9830000  0  7 28 18 14 31 29 19 27
  18128159.128   -22272108.493 5 -17146441.250 6
  15159759.870   -46727954.327 7 -36213912.828 8
  19690777.948      332727.407 3    194206.398 2
  17443041.870   -18572253.168 6 -14232121.228 6
  16040655.019   -37950396.701 7 -29426439.591 9
  15994746.503   -38009840.813 7 -29257352.637 9
  18279993.784   -11094948.914 5  -8422853.065 5
 95  2 19 19 55 29.9830000  0  8 28 18 14 31  2 29 19 27
  18114673.323   -22342987.795 6 -17201671.873 6
  15145625.636   -46802235.113 7 -36271793.979 8
  19698645.722      374066.098 3    226418.137 2
  17418150.925   -18703073.570 6 -14334059.138 6
  19806186.230          -0.29113
  16036881.370   -37970222.833 7 -29441888.569 9
  15976837.816   -38103942.807 7 -29330678.865 9
  18253882.745   -11232157.473 5  -8529768.818 6
 95  2 19 19 55 59.9830000  0  8 28 18 14 31  2 29 19 27
  18101284.917   -22413332.948 6 -17256486.274 6
  15131576.136   -46876074.438 7 -36329331.125 8
  19706491.105      415321.395 2    258564.883 1
  17393320.409   -18833533.670 6 -14435716.302 6
  19775393.956     -161789.623 3
  16033188.808   -37989620.901 7 -29457003.982 9
  15958966.917   -38197860.400 7 -29403861.407 9
  18227784.737   -11369303.160 5  -8636635.581 6
 95  2 19 19 56 29.9830000  0  7 28 18 31  2 29 19 27
  18088001.612   -22483140.384 6 -17310881.671 6
  15117608.792   -46949458.206 7 -36386513.288 8
  17368568.448   -18963614.713 6 -14537078.093 6
  19744639.441     -323408.611 3        -0.23414
  16029582.675   -38008571.963 7 -29471771.078 8
  15941132.331   -38291579.671 7 -29476889.414 9
  18201701.589   -11506368.133 5  -8743439.447 5
 95  2 19 19 56 59.9830000  0  7 28 18 31  2 29 19 27
  18074819.112   -22552411.230 6 -17364858.941 6
  15103735.644   -47022381.360 7 -36443336.536 8
  17343888.191   -19093301.987 6 -14638133.044 6
  19713915.284     -484857.731 3   -125804.688 4
  16026061.956   -38027082.857 7 -29486195.187 9
  15923330.237   -38385110.399 7 -29549770.491 9
  18175638.112   -11643340.668 5  -8850171.286 5
 95  2 19 19 57 29.9830000  0  7 28 18 31  2 29 19 27
  18061733.769   -22621151.446 6 -17418422.746 6
  15089944.464   -47094842.498 7 -36499799.782 8
  17319289.542   -19222585.352 6 -14738873.280 6
  19683218.800     -646164.818 3   -251498.442 5
  16022619.550   -38045167.710 7 -29500287.320 8
  15905569.464   -38478470.894 7 -29622518.927 9
  18149591.441   -11780238.579 5  -8956844.987 5
 95  2 19 19 57 59.9830000  0  7 28 18 31  2 29 19 27
  18048759.917   -22689350.599 6 -17471564.939 6
  15076247.886   -47166815.881 7 -36555882.948 8
  17294766.378   -19351446.480 6 -14839284.501 6
  19652550.925     -807338.337 3   -377088.092 5
  16019260.003   -38062820.085 6 -29514042.450 9
  15887837.456   -38571650.424 7 -29695126.359 9
  18123552.401   -11917053.475 5  -9063453.989 5
 95  2 19 19 58 29.9830000  0  7 28 18 31  2 29 19 27
  18035884.901   -22757005.979 6 -17524283.404 6
  15062647.956   -47238293.447 7 -36611579.768 7
  17270324.003   -19479892.595 6 -14939372.325 6
  19621907.425     -968380.153 3   -502575.127 5
  16015982.394   -38080049.570 7 -29527468.053 8
  15870135.245   -38664665.666 7 -29767605.771 9
  18097528.347   -12053791.812 5  -9170003.339 5
 95  2 19 19 58 59.9830000  0  7 28 18 31  2 29 19 27
  18023114.401   -22824117.553 5 -17576578.130 6
  15049136.230   -47309287.264 7 -36666899.639 7
  17245959.159   -19607927.912 6 -15039140.051 6
  19591286.105    -1129298.913 3   -627966.261 4
  16012777.909   -38096879.702 7 -29540582.479 9
  15852465.159   -38757534.530 7 -29839971.122 9
  18071528.300   -12190471.131 5  -9276506.692 5
 95  2 19 19 59 29.9830000  0  7 28 18 31  2 29 19 27
  18010447.144   -22890684.223 6 -17628448.256 6
  15035720.487   -47379811.004 7 -36721853.219 7
  17221670.901   -19735561.642 6 -15138594.860 6
  19560699.011    -1290089.192 2   -753257.195 4
  16009653.753   -38113303.377 7 -29553380.186 8
  15834816.730   -38850253.191 7 -29912219.436 9
  18045526.120   -12327099.476 5  -9382970.309 5
 95  2 19 19 59 59.9830000  0  7 28 18 31  2 29 19 27
  17997888.198   -22956699.257 5 -17679888.536 6
  15022387.073   -47449854.195 7 -36776432.351 7
  17197462.972   -19862781.944 6 -15237727.505 6
  19530119.284    -1450719.405 2   -878423.406 1
  16006608.167   -38129308.442 7 -29565851.698 9
  15817211.128   -38942801.708 7 -29984335.165 9
  18019536.503   -12463659.525 5  -9489380.715 5
 95  2 19 20  0 29.9830000  0  7 28 18 31  2 29 19 27
  17985426.167   -23022167.122 6 -17730902.454 6
  15009150.214   -47519411.443 7 -36830632.821 8
  17173332.901   -19989582.195 6 -15336532.859 6
  19499581.558    -1611184.600 3  -1003461.051 1
  16003640.823   -38144903.435 7 -29578003.671 9
  15799632.112   -39035179.371 7 -30056317.763 9
  17993560.847   -12600165.238 5  -9595748.764 5
 95  2 19 20  0 59.9820000  0  7 28 18 31  2 29 19 27
  17973068.443   -23087103.775 5 -17781502.434 6
  14996008.326   -47588484.400 7 -36884455.919 7
  17149282.287   -20115967.255 6 -15435014.665 6
  19469078.990    -1771495.791 4  -1128378.725 2
  16000748.233   -38160099.131 7 -29589844.513 8
  15782083.451   -39127389.093 7 -30128169.492 9
  17967594.662   -12736623.624 5  -9702079.941 5
 95  2 19 20  1 29.9820000  0  7 28 18 31  2 29 19 27
  17960817.373   -23151491.814 6 -17831674.933 6
  14982962.717   -47657039.017 7 -36937875.114 8
  17125316.943   -20241915.102 6 -15533155.808 6
  19438605.225    -1931635.452 4  -1253162.825 1
  15997941.600   -38174849.999 7 -29601338.730 8
  15764573.037   -39219401.928 7 -30199867.804 9
  17941640.006   -12873004.124 5  -9808350.428 5
 95  2 19 20  1 59.9820000  0  7 28 18 31  2 29 19 27
  17948666.428   -23215351.467 6 -17881435.688 6
  14970018.115   -47725076.241 7 -36990891.151 8
  17101431.248   -20367433.191 6 -15630962.068 6
  19408161.139    -2091621.410 4  -1377827.101 3
  15995214.990   -38189180.242 7 -29612505.185 8
  15747093.498   -39311241.704 7 -30271431.262 9
  17915702.475   -13009321.338 5  -9914571.588 6
 95  2 19 20  2 29.9820000  0  7 28 18 31  2 29 19 27
  17936607.068   -23278683.935 5 -17930785.673 6
  14957165.756   -47792609.089 7 -37043514.164 8
  17077625.412   -20492527.703 6 -15728438.268 6
  19377743.053    -2251465.127 3  -1502380.572 2
  15992567.225   -38203096.468 7 -29623349.034 8
  15729651.959   -39402914.636 7 -30342864.717 9
  17889770.842   -13145570.209 5 -10020739.524 6
 95  2 19 20  2 59.9820000  0  7 28 18 31  2 29 19 27
  17924658.561   -23341490.753 6 -17979726.058 6
  14944403.662   -47859668.405 7 -37095768.198 8
  17053901.420   -20617203.301 6 -15825588.035 6
  19347348.061    -2411172.468 3  -1626827.708 3
  15989998.608   -38216592.643 7 -29633865.573 8
  15712237.084   -39494430.120 7 -30414175.481 9
  17863860.834   -13281748.166 5 -10126852.195 6
 95  2 19 20  3 29.9820000  0  7 28 18 31  2 29 19 27
  17912808.623   -23403778.118 6 -18028261.688 6
  14931730.006   -47926272.942 7 -37147667.860 8
  17030252.889   -20741469.489 6 -15922418.787 6
  19316986.826    -2570749.029 3  -1751173.017 2
  15987508.022   -38229686.119 7 -29644068.324 8
  15694848.920   -39585801.017 7 -30485373.581 9
  17837952.529   -13417879.280 5 -10232928.377 6
 95  2 19 20  3 59.9820000  0  7 28 18 31  2 29 19 27
  17901057.592   -23465531.219 6 -18076380.987 6
  14919143.233   -47992418.816 7 -37199210.108 8
  17006687.795   -20865305.404 6 -16018914.265 6
  19286643.373    -2730192.537 3  -1875414.632 3
  15985091.647   -38242384.399 7 -29653963.126 8
  15677487.483   -39677026.892 7 -30556458.669 9
  17812057.756   -13553957.966 5 -10338963.698 6
 95  2 19 20  4 29.9820000  0  7 28 18 31  2 29 19 27
  17889412.904   -23526733.805 6 -18124071.312 7
  14906641.842   -48058102.186 7 -37250391.969 8
  16983209.569   -20988686.800 6 -16115055.578 6
  19256330.358    -2889492.745 3  -1999544.526 2
  15982752.662   -38254670.132 7 -29663536.466 8
  15660160.959   -39768089.060 7 -30627416.199 9
  17786178.943   -13689972.648 5 -10444949.145 6
 95  2 19 20  4 59.9820000  0  7 28 18 31  2 29 19 27
  17877863.615   -23587418.264 6 -18171357.891 6
  14894230.295   -48123341.245 7 -37301227.611 8
  16959811.334   -21111637.518 6 -16210861.293 6
  19226038.514    -3048689.340 3  -2123593.738 5
  15980487.701   -38266570.346 6 -29672809.397 8
  15642853.373   -39859026.362 7 -30698276.439 9
  17760298.717   -13825971.152 5 -10550921.978 6
 95  2 19 20  5 29.9820000  0  7 28 18 31  2 29 19 27
  17866417.233   -23647580.472 6 -18218237.526 6
  14881905.092   -48188102.081 7 -37351690.617 8
  16936502.639   -21234155.194 6 -16306329.570 6
  19195758.358    -3207784.826 2  -2247564.137 4
  15978296.647   -38278085.694 7 -29681782.425 8
  15625573.045   -39949829.937 7 -30769032.465 9
  17734424.709   -13961939.357 5 -10656871.192 6
 95  2 19 20  5 59.9820000  0  7 28 18 31  2 29 19 27
  17855072.686   -23707206.629 6 -18264699.461 6
  14869675.858   -48252369.353 7 -37401769.026 8
  16913271.123   -21356221.258 6 -16401445.944 6
  19165512.709    -3366758.103 2  -2371439.283 4
  15976180.725   -38289198.611 6 -29690441.884 8
  15608325.459   -40040480.816 7 -30839669.505 9
  17708562.061   -14097849.235 5 -10762774.950 6
 95  2 19 20  6 29.9820000  0  7 28 18 31  2 29 19 27
  17843828.889   -23766272.834 5 -18310725.069 6
  14857544.147   -48316112.678 7 -37451439.159 8
  16890128.576   -21477827.507 6 -16496204.024 6
  19135287.975    -3525552.411 3  -2495174.982 5
  15974150.279   -38299882.611 7 -29698767.121 8
  15591114.209   -40130937.076 7 -30910154.902 9
  17682713.311   -14233682.342 5 -10868618.885 5
 95  2 19 20  6 59.9820000  0  7 28 18 31  2 29 19 27
  17832691.701   -23824791.129 5 -18356323.732 6
  14845516.061   -48379336.900 7 -37500704.793 7
  16867069.623   -21598999.277 6 -16590623.538 6
  19105107.334    -3684163.033 3  -2618767.571 5
  15972194.240   -38310163.685 6 -29706778.386 8
  15573933.936   -40221210.039 7 -30980497.469 9
  17656877.100   -14369449.581 5 -10974411.488 5
 95  2 19 20  7 29.9820000  0  7 28 18 31  2 29 19 27
  17821659.326   -23882774.289 5 -18401505.414 6
  14833579.631   -48442056.237 7 -37549577.013 8
  16844091.123   -21719751.445 6 -16684716.081 6
  19074959.162    -3842581.058 4  -2742210.099 4
  15970305.818   -38320071.459 6 -29714498.774 8
  15556789.068   -40311308.092 7 -31050703.748 8
  17631055.592   -14505154.420 5 -11080155.472 5
 95  2 19 20  7 59.9820000  0  7 28 18 31  2 29 19 27
  17810725.803   -23940220.177 5 -18446268.432 6
  14821737.498   -48504287.716 7 -37598069.075 8
  16821193.545   -21840080.887 6 -16778479.236 6
  19044856.881    -4000778.497 4  -2865480.767 2
  15968491.365   -38329606.661 6 -29721928.827 8
  15539678.217   -40401229.091 7 -31120772.067 8
  17605239.748   -14640813.249 5 -11185863.605 6
 95  2 19 20  8 29.9820000  0  7 28 18 31  2 29 19 27
  17799894.584   -23997134.021 5 -18490616.883 6
  14809988.975   -48566036.687 7 -37646185.163 8
  16798382.858   -21959984.291 6 -16871910.402 6
  19014794.818    -4158770.927 4  -2988591.673 4
  15966750.061   -38338769.158 6 -29729068.474 8
  15522598.381   -40490974.104 7 -31190703.256 8
  17579430.818   -14776422.371 5 -11291533.015 5
 95  2 19 20  8 59.9820000  0  7 28 18 31  2 29 19 27
  17789166.678   -24053499.978 5 -18534538.410 6
  14798328.334   -48627293.834 7 -37693918.014 7
  16775647.967   -22079426.126 6 -16964981.909 6
  18984768.295    -4316570.807 4  -3111552.549 4
  15965082.318   -38347532.940 6 -29735897.435 8
  15505557.483   -40580544.387 7 -31260498.288 8
  17553637.983   -14911953.758 5 -11397141.857 6
 95  2 19 20  9 29.9820000  0  7 28 18 31  2 29 19 27
  17778549.256   -24109330.038 6 -18578042.364 6
  14786761.850   -48688086.670 7 -37741289.061 7
  16753005.936   -22198404.901 6 -17057692.582 6
  18954766.694    -4474204.096 3  -3234383.620 4
  15963489.147   -38355898.469 6 -29742416.067 8
  15488541.967   -40669943.386 7 -31330159.861 8
  17527862.256   -15047425.205 5 -11502703.997 6
 95  2 19 20  9 59.9820000  0  7 28 18 31  2 29 19 27
  17768027.350   -24164623.765 6 -18621128.388 6
  14775279.108   -48748423.320 7 -37788304.641 7
  16730455.287   -22316913.475 6 -17150036.862 6
  18924800.240    -4631694.326 3  -3357103.204 4
  15961976.983   -38363849.293 6 -29748611.553 8
  15471562.647   -40759170.623 7 -31399687.589 8
  17502093.428   -15182831.920 5 -11608215.694 6
 95  2 19 20 10 29.9820000  0  7 28 18 31  2 29 19 27
  17757604.701   -24219376.728 6 -18663793.056 6
  14763888.928   -48808284.810 7 -37834949.976 7
  16707996.592   -22434933.334 6 -17242000.330 6
  18894850.959    -4789065.365 3  -3479729.942 2
  15960546.608   -38371375.035 6 -29754475.806 8
  15454616.936   -40848224.045 7 -31469079.877 8
  17476340.428   -15318153.363 5 -11713660.957 6
 95  2 19 20 10 59.9820000  0  7 28 18 31  2 29 19 27
  17747287.740   -24273587.782 6 -18706035.461 6
  14752588.428   -48867664.010 7 -37881219.497 7
  16685632.006   -22552473.428 6 -17333589.949 6
  18864925.615    -4946317.882 3  -3602264.265 3
  15959192.342   -38378483.891 7 -29760015.221 8
  15437700.389   -40937106.062 7 -31538338.595 9
  17450608.990   -15453394.896 5 -11819043.950 6
 95  2 19 20 11 29.9820000  0  7 28 18 31  2 29 19 27
  17737079.443   -24327253.884 6 -18747853.233 6
  14741387.826   -48926539.633 7 -37927096.618 7
  16663354.053   -22669535.648 6 -17424807.207 6
  18835032.600    -5103440.652 4  -3724697.522 2
  15957919.037   -38385182.242 7 -29765234.756 8
  15420819.615   -41025812.988 7 -31607460.874 9
  17424885.053   -15588559.600 5 -11924367.075 6
 95  2 19 20 11 59.9820000  0  7 28 18 31  2 29 19 27
  17726965.193   -24380377.659 6 -18789248.418 6
  14730283.451   -48984891.107 7 -37972565.317 7
  16641167.240   -22786126.716 6 -17515657.315 6
  18805154.068    -5260424.966 4  -3847022.882 3
  15956721.100   -38391475.560 7 -29770138.684 8
  15403974.522   -41114360.343 7 -31676458.806 9
  17399184.256   -15723637.090 5 -12029622.225 6
 95  2 19 20 12 29.9810000  0  7 28 18 31  2 29 19 27
  17716962.876   -24432967.752 5 -18830227.750 6
  14719276.321   -49042720.427 7 -38017627.145 7
  16619067.259   -22902255.995 6 -17606147.603 7
  18775313.517    -5417257.058 3  -3969229.647 4
  15955596.454   -38397384.349 7 -29774742.974 8
  15387150.626   -41202761.073 7 -31745342.478 9
  17373492.134   -15858643.635 5 -12134822.098 6
 95  2 19 20 12 59.9810000  0  7 28 18 31  2 29 19 27
  17707053.853   -24485010.761 5 -18870780.781 6
  14708375.204   -49100016.856 7 -38062273.752 7
  16597060.251   -23017917.223 6 -17696273.188 7
  18745498.204    -5573906.639 3  -4091294.191 5
  15954546.118   -38402898.371 7 -29779039.666 8
  15370357.829   -41291003.295 7 -31814102.645 9
  17347810.150   -15993588.179 5 -12239973.667 6
 95  2 19 20 13 29.9810000  0  7 28 18 31  2 29 19 27
  17697255.478   -24536520.311 5 -18910918.117 6
  14697569.501   -49156797.851 7 -38106518.698 7
  16575140.360   -23133110.558 6 -17786034.179 7
  18715725.610    -5730366.845 3  -4213211.149 4
  15953571.931   -38408019.663 7 -29783030.322 8
  15353594.548   -41379098.898 7 -31882748.564 9
  17322144.525   -16128484.203 5 -12345087.423 6
 95  2 19 20 13 59.9810000  0  7 28 18 31  2 29 19 27
  17687559.587   -24587483.090 5 -18950629.395 6
  14686860.196   -49213065.654 7 -38150363.767 7
  16553309.032   -23247816.113 6 -17875415.075 7
  18685993.673    -5886620.531 4  -4334967.228 4
  15952674.775   -38412729.099 7 -29786700.053 8
  15336864.720   -41467018.273 7 -31951257.161 9
  17296486.298   -16263319.005 5 -12450153.483 6
 95  2 19 20 14 29.9810000  0  7 28 18 31  2 29 19 27
  17677959.821   -24637907.665 5 -18989921.295 6
  14676246.251   -49268838.214 7 -38193822.918 7
  16531575.478   -23362029.065 6 -17964412.126 7
  18656297.157    -6042680.900 4  -4456572.683 3
  15951855.064   -38417037.821 6 -29790057.542 8
  15320170.087   -41554761.507 7 -32019628.497 9
  17270834.829   -16398109.518 5 -12555185.010 6
 95  2 19 20 14 59.9810000  0  7 28 18 31  2 29 19 27
  17668471.079   -24687793.771 5 -19028793.612 6
  14665726.853   -49324119.985 7 -38236899.635 8
  16509937.306   -23475747.053 6 -18053023.494 6
  18626628.485    -6198555.576 3  -4578033.433 4
  15951113.720   -38420945.355 6 -29793102.415 8
  15303508.282   -41642312.122 7 -32087849.743 9
  17245192.220   -16532853.616 5 -12660180.386 6
 95  2 19 20 15 29.9810000  0  7 28 18 31  2 29 19 27
  17659077.978   -24737140.365 5 -19067245.520 6
  14655299.978   -49378912.157 7 -38279594.850 8
  16488391.712   -23588966.501 6 -18141246.391 7
  18597005.142    -6354247.294 4  -4699351.590 3
  15950444.181   -38424451.804 6 -29795834.760 8
  15286883.556   -41729674.658 7 -32155924.437 9
  17219563.064   -16667540.775 5 -12765131.391 6
 95  2 19 20 15 59.9810000  0  7 28 18 31  2 29 19 27
  17649784.235   -24785975.795 5 -19105299.124 6
  14644963.900   -49433239.660 7 -38321927.986 7
  16466938.415   -23701712.735 6 -18229100.552 7
  18567405.376    -6509791.840 5  -4820555.044 3
  15949842.681   -38427617.030 6 -29798301.209 8
  15270284.704   -41816886.306 7 -32223881.558 8
  17193938.392   -16802205.008 5 -12870064.519 6
 95  2 19 20 16 29.9810000  0  7 28 18 31  2 29 19 27
  17640595.376   -24834285.144 5 -19142942.779 6
  14634715.954   -49487082.227 7 -38363883.250 7
  16445576.212   -23813973.376 6 -18316576.337 7
  18537841.735    -6665164.727 5  -4941624.768 3
  15949305.165   -38430435.578 6 -29800497.516 7
  15253720.845   -41903954.235 7 -32291726.690 8
  17168318.314   -16936832.684 5 -12974969.147 6
 95  2 19 20 16 59.9810000  0  7 28 18 31  2 29 19 27
  17631497.501   -24882058.945 5 -19180169.126 6
  14624567.579   -49540424.222 7 -38405448.453 7
  16424301.493   -23925755.575 6 -18403679.305 7
  18508310.306    -6820343.438 5  -5062543.183 4
  15948837.235   -38432899.456 6 -29802417.469 7
  15237179.415   -41990881.497 7 -32359462.218 8
  17142709.134   -17071414.457 5 -13079838.027 6
 95  2 19 20 17 29.9810000  0  7 28 18 31  2 29 19 27
  17622512.431   -24929292.364 5 -19216974.388 6
  14614512.306   -49593259.492 7 -38446618.801 8
  16403124.915   -24037054.248 6 -18490405.506 7
  18478819.993    -6975314.151 4  -5183299.534 4
  15948440.048   -38434999.993 6 -29804054.289 7
  15220660.415   -42077681.091 7 -32427098.266 8
  17117113.087   -17205936.069 5 -13184660.010 6
 95  2 19 20 17 59.9810000  0  7 28 18 31  2 29 19 27
  17613628.517   -24975986.793 5 -19253359.669 6
  14604554.275   -49645593.184 7 -38487398.308 7
  16382034.634   -24147877.340 6 -18576761.123 7
  18449374.415    -7130079.852 3  -5303896.136 5
  15948107.392   -38436737.215 6 -29805408.005 7
  15204168.368   -42164339.822 7 -32494624.548 8
  17091522.962   -17340395.490 5 -13289433.530 6
 95  2 19 20 18 29.9810000  0  7 28 18 31  2 29 19 27
  17604837.485   -25022159.782 5 -19289338.649 6
  14594686.907   -49697446.154 7 -38527803.241 7
  16361030.423   -24258248.631 6 -18662764.689 7
  18419955.853    -7284655.624 4  -5424344.725 5
  15947851.329   -38438099.233 6 -29806469.360 7
  15187705.345   -42250857.975 7 -32562041.293 8
  17065949.470   -17474796.070 5 -13394161.194 6
 95  2 19 20 18 59.9810000  0  7 28 18 31  2 29 19 27
  17596161.923   -25067770.453 5 -19324879.460 6
  14584920.884   -49748776.268 7 -38567800.742 7
  16340125.470   -24368112.047 6 -18748372.509 7
  18390586.071    -7439011.427 4  -5544621.891 5
  15947671.876   -38439031.639 6 -29807195.953 7
  15171278.478   -42337177.422 7 -32629303.197 8
  17040392.821   -17609088.680 6 -13498804.747 6
 95  2 19 20 19 29.9810000  0  7 28 18 31  2 29 19 27
  17587588.712   -25112837.162 5 -19359996.410 6
  14575247.337   -49799604.044 7 -38607406.821 7
  16319318.642   -24477464.682 6 -18833582.315 7
  18361244.806    -7593183.342 5  -5664755.742 5
  15947573.368   -38439546.218 6 -29807596.976 8
  15154889.423   -42423304.862 7 -32696415.504 8
  17014856.384   -17743291.870 6 -13603378.612 6
 95  2 19 20 19 59.9810000  0  7 28 18 31  2 29 19 27
  17579112.071   -25157365.667 5 -19394693.995 6
  14565671.564   -49849929.230 7 -38646621.263 7
  16298605.423   -24586304.653 6 -18918392.659 7
  18331942.025    -7747183.667 5  -5784755.890 4
  15947556.470   -38439650.417 6
  15138536.657   -42509238.699 7 -32763376.941 8
  16989330.860   -17877421.616 6 -13707895.262 6
 95  2 19 20 20 29.9810000  0  7 28 18 31  2 29 19 27
  17570733.931   -25201368.157 5 -19428981.678 6
  14556190.134   -49899747.398 7 -38685440.641 7
  16277989.782   -24694630.192 6 -19002802.141 7
  18302666.790    -7901025.774 5  -5904632.790 4
  15947607.712   -38439351.329 6
  15122215.860   -42595008.280 7 -32830210.385 9
  16963818.728   -18011496.111 6 -13812368.841 6
 95  2 19 20 20 59.9810000  0  7 28 18 31  2 29 19 27
  17562466.400   -25244827.892 5 -19462846.434 6
  14546810.001   -49949043.327 7 -38723853.070 7
  16257477.970   -24802417.356 6 -19086792.122 7
  18273421.806    -8054699.254 5  -6024378.310 4
  15947747.829   -38438642.563 6 -29806892.979 8
  15105924.657   -42680613.454 7 -32896915.717 9
  16938316.548   -18145510.870 6 -13916795.890 6
 95  2 19 20 21 29.9810000  0  7 28 18 31  2 29 19 27
  17554300.642   -25287758.890 5 -19496299.191 6
  14537523.118   -49997837.701 7 -38761874.683 7
  16237069.017   -24909689.169 6 -19170380.545 7
  18244205.431    -8208216.494 3  -6144002.084 4
  15947949.579   -38437556.310 6 -29806046.599 7
  15089663.220   -42766072.187 7 -32963506.941 9
  16912820.337   -18279482.158 6 -14021189.071 6
 95  2 19 20 21 59.9810000  0  7 28 18 31  2 29 19 27
  17546236.298   -25330138.774 5 -19529322.504 6
  14528335.610   -50046117.539 7 -38799495.355 7
  16216758.454   -25016422.130 6 -19253549.062 7
  18215034.884    -8361541.836 4  -6263476.321 5
  15948231.993   -38436084.679 6 -29804899.920 8
  15073432.517   -42851365.237 7 -33029969.064 9
  16887347.282   -18413379.794 6 -14125524.861 6
 95  2 19 20 22 29.9810000  0  7 28 18 31  2 29 19 27
  17538268.657   -25371985.404 5 -19561930.288 6
  14519244.782   -50093897.668 7 -38836726.639 7
  16196545.595   -25122625.837 6 -19336305.183 7
  18185889.150    -8514688.358 4  -6382811.244 5
  15948583.056   -38434242.472 6 -29803464.481 8
  15057230.470   -42936507.661 7 -33096313.817 9
  16861875.626   -18547210.160 6 -14229808.229 6
 95  2 19 20 22 59.9810000  0  7 28 18 31  2 29 19 27
  17530408.485   -25413303.150 5 -19594125.960 6
  14510244.110   -50141197.731 7 -38873583.850 8
  16176438.025   -25228306.289 6 -19418653.585 7
  18156777.751    -8667658.916 4  -6502009.053 5
  15948999.314   -38432046.825 6 -29801753.637 7
  15041059.743   -43021486.231 7 -33162530.881 9
  16836422.446   -18680971.676 6 -14334037.941 6
 95  2 19 20 23 29.9810000  0  7 28 18 31  2 29 19 27
  17522643.189   -25454097.191 5 -19625913.531 6
  14501338.384   -50188007.094 7 -38910058.697 7
  16156426.360   -25333464.593 6 -19500595.111 7
  18127700.478    -8820435.314 4  -6621055.545 5
  15949481.556   -38429505.661 6 -29799773.560 7
  15024920.118   -43106288.524 7 -33228610.590 9
  16810977.798   -18814669.050 6 -14438217.678 6
 95  2 19 20 23 59.9800000  0  7 28 18 31  2 29 19 27
  17514980.168   -25494369.172 5 -19657294.315 6
  14492526.293   -50234310.351 7 -38946139.168 8
  16136512.684   -25438102.898 6 -19582131.452 7
  18098676.434    -8973008.272 5  -6739943.509 5
  15950033.496   -38426604.309 6 -29797512.810 7
  15008818.520   -43190909.196 7 -33294548.772 8
  16785546.527   -18948306.342 6 -14542350.596 6
 95  2 19 20 24 29.9800000  0  7 28 18 31  2 29 19 27
  17507413.504   -25534124.700 6 -19688272.654 6
  14483813.145   -50280101.652 7 -38981820.718 8
  16116696.652   -25542238.943 6 -19663276.421 7
  18069675.621    -9125388.253 5  -6858681.091 4
  15950656.942   -38423343.067 6 -29794971.636 7
  14992748.582   -43275349.988 7 -33360346.795 8
  16760130.801   -19081902.769 6 -14646451.683 6
 95  2 19 20 24 59.9800000  0  7 28 18 31  2 29 19 27
  17499949.902   -25573365.664 5 -19718850.026 6
  14475192.332   -50325394.742 7 -39017114.046 8
  16096972.285   -25645875.968 6 -19744032.535 7
  18040717.387    -9277577.395 5  -6977269.986 5
  15951342.762   -38419736.061 6 -29792161.024 7
  14976718.082   -43359612.457 7 -33426005.859 8
  16734712.723   -19215465.367 6 -14750526.389 6
 95  2 19 20 25 29.9800000  0  7 28 18 31  2 29 19 27
  17492582.723   -25612083.349 6 -19749019.645 6
  14466670.762   -50370176.732 7 -39052009.115 8
  16077351.590   -25749002.203 6 -19824390.627 7
  18011791.824    -9429570.972 5  -7095706.489 5
  15952099.426   -38415768.148 6 -29789069.191 7
  14960713.848   -43443697.114 7 -33491526.357 8
  16709301.207   -19348982.509 6 -14854565.671 6
 95  2 19 20 25 59.9800000  0  7 28 18 31  2 29 19 27
  17485312.793   -25650287.913 5 -19778789.443 6
  14458240.418   -50414475.239 7 -39086527.455 8
  16057825.457   -25851620.532 6 -19904352.953 7
  17982900.707    -9581402.204 5  -7214016.493 5
  15952916.934   -38411450.635 6 -29785704.951 7
  14944741.856   -43527634.828 7 -33556932.380 8
  16683906.496   -19482450.529 6 -14958566.684 6
 95  2 19 20 26 29.9800000  0  7 28 18 31  2 29 19 27
  17478137.395   -25687991.230 5 -19808168.647 6
  14449899.051   -50458311.666 7 -39120685.731 8
  16038393.754   -25953727.099 6 -19983916.499 7
  17954034.738    -9733080.519 5  -7332207.364 5
  15953803.152   -38406810.518 6 -29782089.329 7
  14928793.934   -43611448.077 7 -33622241.412 8
  16658516.363   -19615881.547 6 -15062538.856 6
 95  2 19 20 26 59.9800000  0  7 28 18 31  2 29 19 27
  17471061.082   -25725177.835 5 -19837145.239 6
  14441650.020   -50501668.133 7 -39154470.002 8
  16019060.879   -26055301.733 6 -20063065.554 7
  17925206.817    -9884590.131 4  -7450266.777 5
  15954751.160   -38401830.542 6 -29778208.893 7
  14912871.926   -43695124.918 7 -33687444.144 8
  16633131.160   -19749258.551 6 -15166468.938 6
 95  2 19 20 27 29.9800000  0  7 28 18 31  2 29 19 27
  17464080.160   -25761853.378 5 -19865723.598 6
  14433490.942   -50544535.799 7 -39187873.402 8
  15999837.395   -26156343.975 6 -20141799.757 7
  17896408.762   -10035909.309 4  -7568177.784 5
  15955764.996   -38396507.142 6 -29774060.852 7
  14896970.152   -43778668.952 7 -33752543.394 8
  16607760.098   -19882583.883 6 -15270358.752 6
 95  2 19 20 27 59.9800000  0  7 28 18 31  2 29 19 27
  17457200.988   -25798015.562 5 -19893901.953 6
  14425429.207   -50586902.958 7 -39220886.788 8
  15980710.207   -26256850.197 6 -20220116.280 7
  17867650.902   -10187017.691 5  -7685924.545 4
  15956841.777   -38390838.856 6 -29769644.061 7
  14881098.426   -43862070.295 7 -33817531.458 8
  16582398.887   -20015865.006 6 -15374214.122 6
 95  2 19 20 28 29.9800000  0  7 28 18 31  2 29 19 27
  17450416.215   -25833675.073 5 -19921688.610 6
  14417461.496   -50628775.407 7 -39253514.700 8
  15961685.387   -26356840.960 6 -20298031.135 7
  17838938.176   -10337902.886 5  -7803497.355 5
  15957984.285   -38384834.682 6 -29764965.539 7
  14865259.059   -43945315.761 7 -33882398.054 8
  16557043.551   -20149112.731 6 -15478043.470 6
 95  2 19 20 28 59.9800000  0  7 28 18 31  2 29 19 27
  17443729.035   -25868813.461 5 -19949069.213 6
  14409593.231   -50670125.957 7 -39285735.937 8
  15942755.809   -26456295.162 6 -20375527.892 7
  17810274.442   -10488548.851 5  -7920883.734 5
  15959195.113   -38378468.721 6 -29760005.108 7
  14849455.699   -44028378.250 7 -33947122.072 8
  16531699.582   -20282288.259 6 -15581816.560 6
 95  2 19 20 29 29.9800000  0  7 28 18 31  2 29 19 27
  17437133.387   -25903451.118 5 -19976059.641 6
  14401817.824   -50710984.086 7 -39317573.462 8
  15923932.145   -26555230.415 6 -20452620.279 7
  17781647.832   -10638984.907 5  -8038106.575 5
  15960473.348   -38371755.727 6 -29754774.269 7
  14833676.629   -44111281.516 7 -34011722.020 8
  16506370.402   -20415402.746 6 -15685542.085 6
 95  2 19 20 29 59.9800000  0  7 28 18 31  2 29 19 27
  17430640.426   -25937573.847 5 -20002648.835 6
  14394137.270   -50751343.925 7 -39349022.710 8
  15905205.293   -26653638.404 6 -20529301.797 7
  17753060.902   -10789226.487 5  -8155177.902 5
  15961817.965   -38364683.022 6 -29749263.122 7
  14817934.942   -44194013.004 7 -34076188.105 8
  16481054.676   -20548431.181 6 -15789200.561 6
 95  2 19 20 30 29.9800000  0  7 28 18 31  2 29 19 27
  17424243.942   -25971193.525 5 -20028846.044 6
  14386548.199   -50791226.473 7 -39380100.038 8
  15886578.074   -26751522.566 6 -20605575.152 7
  17724499.074   -10939302.060 5  -8272119.869 5
  15963232.371   -38357263.391 6 -29743481.642 7
  14802219.738   -44276594.461 7 -34140537.298 9
  16455756.551   -20681377.384 6 -15892794.962 6
 95  2 19 20 30 59.9800000  0  7 28 18 31  2 29 19 27
  17417946.559   -26004282.760 5 -20054629.921 6
  14379055.418   -50830606.967 7 -39410786.164 8
  15868057.270   -26848841.796 6 -20681408.294 7
  17695971.434   -11089204.125 5  -8388926.651 5
  15964717.020   -38349466.126 6 -29737405.898 7
  14786537.020   -44359012.502 7 -34204759.145 8
  16430476.012   -20814227.601 6 -15996314.564 6
 95  2 19 20 31 29.9800000  0  7 28 18 31  2 29 19 27
  17411752.254   -26036832.347 5 -20079993.274 6
  14371652.707   -50869497.411 7 -39441090.434 8
  15849649.035   -26945591.159 6 -20756797.384 7
  17667487.113   -11238917.310 5  -8505586.264 5
  15966274.067   -38341282.492 6 -29731029.100 7
  14770885.520   -44441260.389 7 -34268848.406 8
  16405211.520   -20946988.429 6 -16099764.520 6
 95  2 19 20 31 59.9800000  0  8 28 18 16 31  2 29 19 27
  17405661.082   -26068852.893 5 -20104944.374 6
  14364345.504   -50907897.869 7 -39471012.888 8
  18667139.027     -123034.868 3
  15831346.215   -27041768.779 6 -20831740.951 7
  17639034.684   -11388430.633 5  -8622090.091 5
  15967901.770   -38332730.639 6 -29724365.369 7
  14755265.707   -44523334.892 7 -34332802.569 8
  16379959.270   -21079683.665 6 -16203163.360 6
 95  2 19 20 32 29.9800000  0  8 28 18 16 31  2 29 19 27
  17399669.192   -26100355.752 5 -20129492.089 6
  14357131.824   -50945807.739 7 -39500553.070 8
  18643813.551     -245623.130 3        -0.40812
  15813151.738   -27137367.051 6 -20906233.095 7
  17610623.543   -11537731.872 5  -8738428.637 5
  15969594.473   -38323829.886 6 -29717429.771 7
  14739681.574   -44605239.862 7 -34396624.624 8
  16354718.676   -21212334.841 6 -16306527.879 6
 95  2 19 20 32 59.9800000  0  8 28 18 16 31  2 29 19 27
  17393773.082   -26131333.764 5 -20153630.840 6
  14350013.020   -50983220.167 7 -39529705.634 8
  18620573.707     -367752.304 3    -95165.979 1
  15795073.324   -27232389.112 6 -20980276.244 7
  17582253.176   -11686803.233 5  -8854588.066 5
  15971354.613   -38314572.810 6 -29710216.522 7
  14724130.707   -44686949.685 7 -34460294.601 8
  16329484.926   -21344932.075 6 -16409850.351 7
 95  2 19 20 33 29.9800000  0  8 28 18 16 31  2 29 19 27
  17387977.637   -26161768.984 5 -20177346.632 5
  14342993.152   -51020110.236 7 -39558451.175 8
  18597423.090     -489408.440 3   -189962.968 1
  15777102.504   -27326824.653 6 -21053862.363 7
  17553937.942   -11835610.121 5  -8970541.435 5
  15973186.027   -38304951.281 6 -29702719.284 7
  14708625.137   -44768433.535 7 -34523788.521 8
  16304270.059   -21477442.977 6 -16513105.556 7
 95  2 19 20 33 59.9800000  0  8 28 18 16 31  2 29 19 27
  17382288.067   -26191673.200 5 -20200648.650 6
  14336074.637   -51056475.822 7 -39586788.007 8
  18574366.535     -610596.018 3   -284394.876 2
  15759237.301   -27420687.391 6 -21127002.144 7
  17525669.559   -11984178.442 5  -9086308.889 5
  15975085.723   -38294974.451 6 -29694945.184 7
  14693160.402   -44849703.439 7 -34587115.717 8
  16279070.621   -21609869.044 6 -16616294.658 7
 95  2 19 20 34 29.9800000  0  8 28 18 16 31  2 29 19 27
  17376698.223   -26221056.927 5 -20223545.103 5
  14329247.762   -51092336.335 7 -39614731.293 8
  18551390.910     -731320.663 3   -378466.022 1
  15741481.715   -27514007.479 6 -21199719.096 7
  17497434.356   -12132537.083 5  -9201912.954 5
  15977050.238   -38284642.962 6 -29686894.739 6
  14677734.121   -44930782.755 7 -34650294.407 8
  16253884.660   -21742211.423 6 -16719418.560 7
 95  2 19 20 34 59.9800000  0  8 28 18 16 31  2 29 19 27
  17371202.027   -26249943.224 5 -20246053.930 5
  14322513.356   -51127725.852 7 -39642307.566 8
  18528493.832     -851603.170 3   -472192.644 2
  15723822.098   -27606819.618 6 -21272040.223 7
  17469238.051   -12280710.284 5  -9317372.543 5
  15979080.340   -38273973.213 6 -29678580.717 6
  14662332.410   -45011704.011 7 -34713349.917 8
  16228712.527   -21874485.442 6 -16822489.179 7
 95  2 19 20 35 29.9790000  0  8 28 18 16 31  2 29 19 27
  17365800.921   -26278328.668 5 -20268172.488 5
  14315874.280   -51162622.427 7 -39669499.730 8
  18505693.640     -971446.274 3   -565576.863 3
  15706256.648   -27699106.927 6 -21343952.396 7
  17441082.812   -12428676.055 5  -9432670.483 5
  15981176.382   -38262966.253 6 -29670003.924 6
  14646963.765   -45092480.768 7 -34776292.839 8
  16203557.710   -22006689.746 6 -16925505.497 7
 95  2 19 20 35 59.9790000  0  8 28 18 16 31  2 29 19 27
  17360492.476   -26306214.942 5 -20289902.078 5
  14309330.382   -51197018.047 7 -39696301.540 8
  18482969.585    -1090852.936 3   -658621.021 1
  15688798.234   -27790860.117 6 -21415448.377 7
  17412961.155   -12576439.930 5  -9547811.082 6
  15983337.140   -38251613.687 6 -29661157.842 6
  14631618.374   -45173119.301 7 -34839128.055 8
  16178409.444   -22138842.025 6 -17028481.255 7
 95  2 19 20 36 29.9790000  0  8 28 18 16 31  2 29 19 27
  17355282.859   -26333595.108 5 -20311237.315 5
  14302881.577   -51230899.176 7 -39722702.451 8
  18460334.101    -1209806.450 3   -751312.059 1
  15671445.413   -27882050.454 6 -21486505.782 7
  17384889.218   -12723962.382 5  -9662763.569 5
  15985560.960   -38239927.010 6 -29652051.415 6
  14616302.038   -45253599.604 7 -34901839.977 8
  16153273.538   -22270943.992 6 -17131417.816 7
 95  2 19 20 36 59.9790000  0  8 28 18 16 31  2 29 19 27
  17350168.796   -26360472.293 5 -20332180.626 6
  14296531.187   -51264263.373 7 -39748700.545 8
  18437788.085    -1328298.296 3   -843643.366 2
  15654200.390   -27972658.739 6 -21557109.634 7
  17356865.366   -12871242.456 5  -9777527.206 5
  15987845.398   -38227928.047 6 -29642701.643 6
  14601020.194   -45333914.286 7 -34964422.839 8
  16128143.640   -22402996.289 6 -17234315.680 7
 95  2 19 20 37 29.9790000  0  8 28 18 16 31  2 29 19 27
  17345152.280   -26386834.534 5 -20352722.674 5
  14290285.093   -51297089.527 7 -39774279.385 8
  18415325.077    -1446310.399 3   -935600.815 1
  15637075.796   -28062671.101 6 -21627249.130 7
  17328879.773   -13018286.755 5  -9892107.124 5
  15990188.484   -38215605.394 6 -29633099.634 6
  14585770.952   -45414038.152 7 -35026857.022 8
  16103026.663   -22534984.112 6 -17337163.287 7
 95  2 19 20 37 59.9790000  0  8 28 18 16 31  2 29 19 27
  17340232.898   -26412684.590 5 -20372865.603 5
  14284138.343   -51329392.914 7 -39799450.885 8
  18392969.538    -1563841.544 3  -1027183.565 1
  15620059.913   -28152088.776 6 -21696925.243 7
  17300941.257   -13165114.627 5 -10006518.398 5
  15992594.523   -38202959.087 6 -29623245.444 6
  14570563.812   -45493963.416 7 -35089136.444 8
  16077927.265   -22666889.817 6 -17439946.909 7
 95  2 19 20 38 29.9790000  0  8 28 18 16 31  2 29 19 27
  17335410.226   -26438009.892 5 -20392599.645 5
  14278089.679   -51361172.601 7 -39824214.302 8
  18370692.226    -1680890.128 3  -1118390.303 1
  15603158.476   -28240906.366 6 -21766133.734 7
  17273042.187   -13311719.964 5 -10120756.265 5
  15995066.148   -38189982.393 6 -29613133.816 6
  14555391.882   -45573681.615 7 -35151254.518 8
  16052847.132   -22798682.434 6 -17542642.412 7
 95  2 19 20 38 59.9790000  0  8 28 18 16 31  2 29 19 27
  17330691.679   -26462823.755 5 -20411935.171 6
  14272142.101   -51392438.838 7 -39848577.631 8
  18348507.093    -1797474.267 3  -1209235.027 1
  15586364.468   -28329142.408 6 -21834889.093 7
  17245185.101   -13458130.403 5 -10234842.256 5
  15997597.444   -38176666.307 6 -29602757.706 6
  14540259.694   -45653213.205 7 -35213227.177 8
  16027788.413   -22930357.859 6 -17645246.591 7
 95  2 19 20 39 29.9790000  0  8 28 18 16 31  2 29 19 27
  17326068.280   -26487118.599 5 -20430866.275 6
  14266288.616   -51423192.134 7 -39872541.255 8
  18326415.523    -1913592.221 3  -1299716.567 1
  15569689.773   -28416781.684 6 -21903179.440 7
  17217362.312   -13604322.709 5 -10348758.294 5
  16000200.273   -38162991.055 6 -29592101.736 7
  14525159.265   -45732551.471 7 -35275049.208 8
  16002756.202   -23061908.540 6 -17747753.569 7
 95  2 19 20 39 59.9790000  0  8 28 18 16 31  2 29 19 27
  17321544.273   -26510895.781 5 -20449394.006 6
  14260533.069   -51453436.946 7 -39896108.658 8
  18304406.640    -2029241.151 3  -1389832.596 2
  15553131.140   -28503806.522 6 -21970990.993 7
  17189591.890   -13750278.168 5 -10462489.767 5
  16002870.163   -38148960.576 6 -29581168.980 7
  14510097.960   -45811697.328 7 -35336721.305 8
  15977742.054   -23193347.702 6 -17850173.650 7
 95  2 19 20 40 29.9790000  0  8 28 18 16 31  2 29 19 27
  17317119.812   -26534142.156 5 -20467508.089 6
  14254877.327   -51483161.481 7 -39919270.652 8
  18282494.913    -2144382.081 3  -1479552.762 1
  15536689.718   -28590195.169 6 -22038306.824 7
  17161863.421   -13895976.544 5 -10576020.899 5
  16005611.507   -38134559.483 6 -29569947.415 7
  14495077.249   -45890637.251 7 -35398232.933 8
  15952751.484   -23324680.885 6 -17952511.139 7
 95  2 19 20 40 59.9790000  0  8 28 18 16 31  2 29 19 27
  17312795.023   -26556853.387 5 -20485205.214 6
  14249321.562   -51512360.159 7 -39942022.888 8
  18260680.023    -2258988.080 3  -1568856.115 1
  15520372.163   -28675943.119 6 -22105123.403 7
  17134186.312   -14041402.035 5 -10689339.380 5
  16008425.187   -38119780.174 6 -29558431.133 7
  14480099.773   -45969364.755 7 -35459579.047 8
  15927778.062   -23455919.138 6 -18054774.669 7
 95  2 19 20 41 29.9790000  0  8 28 18 16 31  2 29 19 27
  17308577.015   -26579031.832 5 -20502487.163 5
  14243862.593   -51541038.531 7 -39964369.689 8
  18238978.249    -2373066.374 3  -1657748.346 1
  15504175.390   -28761060.720 6 -22171448.803 7
  17106565.460   -14186551.942 5 -10802443.136 5
  16011306.726   -38104640.835 6 -29546634.313 7
  14465155.249   -46047885.068 7 -35520763.709 8
  15902820.851   -23587072.324 6 -18156971.903 7
 95  2 19 20 41 59.9790000  0  8 28 18 16 31  2 29 19 27
  17304452.234   -26600722.978 5 -20519389.365 5
  14238497.913   -51569227.478 7 -39986335.121 8
  18217360.679    -2486659.460 3  -1746262.382 1
  15488083.366   -28845619.545 6 -22237338.785 7
  17078989.749   -14331472.265 5 -10915368.005 6
  16014247.351   -38089187.702 6 -29534592.973 7
  14450243.788   -46126246.622 7 -35581824.653 8
  15877873.093   -23718172.192 6 -18259127.596 7
 95  2 19 20 42 29.9790000  0  8 28 18 16 31  2 29 19 27
  17300417.296   -26621916.623 5 -20535903.923 5
  14233228.140   -51596920.419 7 -40007914.061 8
  18195839.507    -2599759.958 4  -1834392.638 1
  15472095.569   -28929626.969 6 -22302799.111 7
  17051457.929   -14476151.058 5 -11028104.650 6
  16017248.023   -38073414.350 6 -29522302.112 6
  14435361.984   -46204444.065 7 -35642757.719 8
  15852942.569   -23849183.722 6 -18361214.448 7
 95  2 19 20 42 59.9790000  0  8 28 18 16 31  2 29 19 27
  17296480.359   -26642600.242 5 -20552021.085 5
  14228056.569   -51624104.935 7 -40029096.807 8
  18174405.109    -2712382.057 3  -1922150.115 2
  15456220.140   -29013076.610 6 -22367824.813 7
  17023973.562   -14620576.234 5 -11140643.696 6
  16020311.554   -38057316.236 6 -29509758.186 6
  14420515.077   -46282460.635 7 -35703549.847 8
  15828035.319   -23980079.100 6 -18463210.794 7
 95  2 19 20 43 29.9790000  0  8 28 18 16 31  2 29 19 27
  17292640.702   -26662767.665 5 -20567736.003 6
  14222982.687   -51650771.377 7 -40049875.881 8
  18153066.484    -2824519.702 3  -2009530.085 1
  15440446.734   -29095958.005 6 -22432407.719 7
  16996542.796   -14764744.263 5 -11252982.380 6
  16023434.538   -38040889.309 6 -29496958.045 6
  14405708.187   -46360277.846 7 -35764186.630 8
  15803150.390   -24110829.527 6 -18565094.199 7
 95  2 19 20 43 59.9790000  0  8 28 18 16 31  2 29 19 27
  17288899.062   -26682450.507 5 -20583073.321 6
  14217999.694   -51676958.099 7 -40070281.131 8
  18131812.366    -2936190.127 3  -2096545.947 1
  15424776.616   -29178289.899 6 -22496562.441 7
  16969152.655   -14908683.514 5 -11365142.767 6
  16026618.874   -38024158.159 6 -29483920.865 6
  14390938.015   -46437910.629 7 -35824679.698 8
  15778295.273   -24241454.574 6 -18666879.896 7
 95  2 19 20 44 29.9790000  0  8 28 18 16 31  2 29 19 27
  17285247.523   -26701667.466 5 -20598047.630 6
  14213102.171   -51702688.398 7 -40090330.739 8
  18110651.476    -3047398.323 3  -2183201.636 1
  15409218.476   -29260055.051 6 -22560275.549 7
  16941799.499   -15052413.462 5 -11477140.056 5
  16029861.765   -38007138.654 6 -29470658.981 6
  14376195.296   -46515365.175 7 -35885033.890 8
  15753454.452   -24371992.037 6 -18768597.352 7
 95  2 19 20 44 59.9790000  0  8 28 18 16 31  2 29 19 27
  17281681.569   -26720383.056 5 -20612631.257 6
  14208300.812   -51727913.790 7 -40109986.913 8
  18089590.780    -3158093.877 3  -2269457.879 1
  15393776.351   -29341206.700 6 -22623510.594 7
  16914491.773   -15195898.937 5 -11588946.849 5
  16033162.859   -37989788.236 6 -29457139.262 6
  14361500.015   -46592594.330 7 -35945212.444 8
  15728633.366   -24502429.654 6 -18870237.009 7
 95  2 19 20 45 29.9790000  0  8 28 18 16 31  2 29 19 27
  17278212.265   -26738601.713 5 -20626827.662 5
  14203599.687   -51752632.035 7 -40129247.908 8
  18068622.265    -3268270.062 3  -2355309.405 3
  15378452.405   -29421744.737 6 -22686267.513 7
  16887239.819   -15339139.765 5 -11700563.006 5
  16036528.124   -37972095.964 6 -29443353.159 6
  14346846.343   -46669596.714 7 -36005214.301 8
  15703829.155   -24632781.329 6 -18971809.707 7
 95  2 19 20 45 59.9790000  0  8 28 18 16 31  2 29 19 27
  17274838.546   -26756320.725 5 -20640634.727 6
  14198992.069   -51776835.939 7 -40148108.116 8
  18047754.312    -3377940.034 3  -2440766.473 2
  15363246.179   -29501655.818 6 -22748535.895 7
  16860027.327   -15482128.905 5 -11811983.016 5
  16039962.819   -37954051.587 6 -29429292.690 6
  14332232.624   -46746387.350 7 -36065051.159 8
  15679034.984   -24763068.800 6 -19073332.374 7
 95  2 19 20 46 29.9780000  0  8 28 18 16 31  2 29 19 27
  17271561.440   -26773557.189 5 -20654065.792 6
  14194481.033   -51800538.187 7 -40166577.422 8
  18026981.213    -3487123.591 3  -2525844.531 2
  15348154.666   -29580954.740 6 -22810327.250 7
  16832859.619   -15624876.843 5 -11923215.062 6
  16043460.166   -37935677.818 6 -29414975.562 6
  14317659.104   -46822983.771 7 -36124736.678 8
  15654248.791   -24893316.214 6 -19174823.827 7
 95  2 19 20 46 59.9780000  0  8 28 18 16 31  2 29 19 27
  17268375.776   -26790294.779 5 -20667108.100 6
  14190070.447   -51823722.581 7 -40184643.206 8
  18006291.190    -3595828.624 3  -2610549.724 2
  15333176.666   -29659655.381 6 -22871652.420 7
  16805742.229   -15767376.115 5 -12034253.377 5
  16047021.018   -37916964.583 6 -29400393.889 6
  14303120.705   -46899384.490 7 -36184269.701 8
  15629477.205   -25023498.340 6 -19276264.412 7
 95  2 19 20 47 29.9780000  0  8 28 18 16 31  2 29 19 27
  17265287.651   -26806549.741 5 -20679774.370 6
  14185755.151   -51846408.134 7 -40202320.284 9
  17985686.354    -3704084.371 3  -2694904.808 3
  15318310.432   -29737768.347 6 -22932519.672 7
  16778673.994   -15909637.155 5 -12145106.035 6
  16050640.424   -37897938.428 6 -29385568.399 6
  14288617.135   -46975606.808 7 -36243663.716 8
  15604717.307   -25153614.931 6 -19377653.926 7
 95  2 19 20 47 59.9780000  0  8 28 18 16 31  2 29 19 27
  17262274.416   -26822344.870 5 -20692082.293 6
  14181526.213   -51868622.026 7 -40219629.838 9
  17965179.072    -3811900.826 3  -2778917.582 2
  15303556.338   -29815302.339 6 -22992935.760 7
  16751646.932   -16051685.409 5 -12255792.889 6
  16054310.135   -37878645.691 6 -29370535.169 6
  14274139.877   -47051681.386 7 -36302942.605 8
  15579965.666   -25283679.825 6 -19479003.163 7
 95  2 19 20 48 29.9780000  0  8 28 18 16 31  2 29 19 27
  17259358.869   -26837675.636 5 -20704028.388 5
  14177389.799   -51890362.931 7 -40236570.829 9
  17944743.541    -3919251.731 3  -2862567.609 2
  15288917.244   -29892256.089 6 -23052899.718 7
  16724651.010   -16193531.022 6 -12366321.836 6
  16058030.244   -37859097.995 6 -29355303.273 6
  14259693.627   -47127587.470 7 -36362090.199 8
  15555228.252   -25413674.957 6 -19580298.034 7
 95  2 19 20 48 59.9780000  0  8 28 18 16 31  2 29 19 27
  17256534.674   -26852520.206 5 -20715595.620 5
  14173348.229   -51911596.778 7 -40253116.708 9
  17924406.252    -4026099.914 3  -2945825.911 2
  15274385.994   -29968604.533 6 -23112391.999 7
  16697699.994   -16335151.047 6 -12476675.010 5
  16061801.026   -37839279.423 5 -29339860.302 6
  14245286.986   -47203307.556 7 -36421092.860 8
  15530511.479   -25543564.632 6 -19681510.741 7
 95  2 19 20 49 29.9780000  0  8 28 18 16 31  2 29 19 27
  17253796.033   -26866918.719 5 -20726815.299 5
  14169395.682   -51932370.366 7 -40269303.934 9
  17904171.830    -4132467.839 3  -3028709.961 1
  15259970.526   -30044363.414 6
  16670789.026   -16476582.449 6 -12586881.198 6
  16065612.143   -37819220.945 5 -29324230.377 6
  14230905.065   -47278870.007 7
  15505806.549   -25673385.442 6 -19782669.789 7
 95  2 19 20 49 59.9780000  0  8 28 18 16 31  2 29 19 27
  17251144.338   -26880871.269 5 -20737687.482 5
  14165528.533   -51952690.969 7 -40285138.191 9
  17884023.408    -4238341.806 3  -3111209.108 3
  15245663.799   -30119542.260 6 -23230005.782 7
  16643908.713   -16617822.069 5 -12696937.945 6
  16069481.955   -37798910.671 5 -29308404.254 6
  14216556.611   -47354281.818 7 -36538735.145 8
  15481117.651   -25803124.951 6 -19883765.477 7
 95  2 19 20 50 29.9780000  0  8 28 18 16 31  2 29 19 27
  17248576.565   -26894350.451 5 -20748190.801 5
  14161753.580   -51972521.056 7 -40300590.235 9
  17863980.424    -4343705.485 3  -3193310.636 3
  15231470.697   -30194137.108 6 -23288131.626 7
  16617079.369   -16758828.961 5 -12806813.347 6
  16073406.994   -37778300.923 5 -29292344.788 6
  14202240.088   -47429507.210 7 -36597352.338 8
  15456452.080   -25932746.041 6 -19984768.885 7
 95  2 19 20 50 59.9780000  0  8 28 18 16 31  2 29 19 27
  17246100.455   -26907365.648 5 -20758332.571 5
  14158070.510   -51991882.370 7 -40315677.001 8
  17844016.283    -4448579.843 3  -3275030.870 3
  15217383.838   -30268156.481 6 -23345809.047 7
  16590290.963   -16899589.587 5 -12916496.885 6
  16077388.072   -37757383.931 6 -29276045.908 6
  14187959.369   -47504558.762 7 -36655834.061 8
  15431807.994   -26062252.152 6 -20085682.704 7
 95  2 19 20 51 29.9780000  0  8 28 18 16 31  2 29 19 27
  17243710.572   -26919917.575 5 -20768113.361 5
  14154473.760   -52010791.552 7 -40330411.451 8
  17824148.268    -4552978.753 3  -3356380.649 3
  15203405.244   -30341606.768 6 -23403043.025 7
  16563553.065   -17040106.478 5 -13025990.486 6
  16081428.627   -37736149.523 6 -29259499.681 6
  14173711.299   -47579437.964 7 -36714181.494 8
  15407183.721   -26191654.980 6 -20186516.037 7
 95  2 19 20 51 59.9780000  0  8 28 18 16 31  2 29 19 27
  17241407.018   -26932009.554 5 -20777535.750 5
  14150964.330   -52029231.193 7 -40344780.033 8
  17804376.049          -0.54712
  15189535.221   -30414492.285 6 -23459836.923 7
  16536859.252   -17180381.360 6 -13135295.497 6
  16085525.861   -37714616.281 6 -29242720.607 6
  14159491.955   -47654158.346 7 -36772405.166 8
  15382578.127   -26320959.833 6 -20287273.024 7
 95  2 19 20 52 29.9780000  0  8 28 18 16 31  2 29 19 27
  17239197.393   -26943632.514 5 -20786592.674 5
  14147546.135   -52047189.624 7 -40358773.643 8
  17784684.815     -103438.925 2
  15175781.588   -30486785.521 6 -23516169.300 7
  16510213.143   -17320402.144 6 -13244402.531 6
  16089682.510   -37692779.443 6 -29225704.960 6
  14145304.440   -47728701.502 7 -36830490.737 8
  15357989.104   -26450176.951 6 -20387961.641 7
 95  2 19 20 52 59.9780000  0  7 28 18 31  2 29 19 27
  17237072.940   -26954802.587 5 -20795296.684 5
  14144217.674   -52064685.652 7 -40372406.942 8
  15162139.494   -30558479.046 6 -23572034.374 7
  16483611.385   -17460188.048 6 -13353326.538 6
  16093890.330   -37670662.306 6 -29208470.915 6
  14131152.385   -47803077.468 7 -36888446.021 8
  15333410.221   -26579335.274 6 -20488604.448 7
 95  2 19 20 53 29.9780000  0  8 28 18 16 31  2 29 19 27
  17235037.783   -26965511.568 5 -20803641.400 5
  14140979.986   -52081693.154 7 -40385659.576 8
  17745602.815     -102452.939 1
  15148612.877   -30629555.173 6 -23627418.357 7
  16457062.815   -17599736.131 6 -13462065.238 6
  16098153.010   -37648257.437 6 -29191012.667 6
  14117032.901   -47877274.305 7 -36946261.729 8
  15308842.463   -26708431.478 6 -20589198.853 7
 95  2 19 20 53 59.9780000  0  8 28 18 16 31  2 29 19 27
  17233091.096   -26975749.298 5 -20811618.903 5
  14137838.932   -52098190.979 7 -40398515.045 8
  17726212.041     -204373.227 2        -0.47813
  15135208.986   -30699994.563 6 -23682306.189 7
  16430551.596   -17739022.348 6 -13570599.894 6
  16102475.291   -37625540.424 6 -29173311.168 6
  14102953.744   -47951260.640 7 -37003913.407 8
  15284295.377   -26837442.855 6 -20689727.152 7
 95  2 19 20 54 29.9780000  0  7 28 18 31  2 29 19 27
  17231226.197   -26985528.241 5 -20819238.915 5
  14134792.151   -52114209.163 7 -40410996.776 8
  15121921.643   -30769811.536 6 -23736709.013 7
  16404095.518   -17878058.597 6 -13678939.774 6
  16106857.744   -37602509.255 6 -29155364.901 6
  14088915.830   -48025028.453 7 -37061394.811 8
  15259757.283   -26966386.879 6 -20790202.969 7
 95  2 19 20 54 59.9780000  0  7 28 18 31  2 29 19 27
  17229451.330   -26994844.349 5 -20826498.259 5
  14131839.221   -52129733.774 7 -40423093.901 8
  15108755.119   -30838995.966 6 -23790618.955 7
  16377690.713   -18016835.803 6 -13787077.794 6
  16111300.424   -37579169.500 6 -29137178.154 5
  14074925.627   -48098560.835 7 -37118692.766 8
  15235235.471   -27095247.320 6 -20890613.658 7
 95  2 19 20 55 29.9780000  0  7 28 18 31  2 29 19 27
  17227767.963   -27003703.817 5 -20833401.787 5
  14128977.822   -52144773.126 7 -40434812.900 8
  15095708.166   -30907558.637 6 -23844044.404 7
  16351327.963   -18155363.831 6 -13895021.651 6
  16115799.002   -37555529.995 6 -29118757.841 5
  14060975.299   -48171866.852 7 -37175814.331 8
  15210729.822   -27224015.887 6 -20990952.761 7
 95  2 19 20 55 59.9780000  0  7 28 18 31  2 29 19 27
  17226172.799   -27012103.071 5 -20839946.687 5
  14126206.510   -52159331.575 7 -40446157.161 8
  15082783.455   -30975505.275 6 -23896989.834 7
  16325010.229   -18293641.826 6 -14002770.672 6
  16120350.158   -37531609.373 5 -29100118.469 5
  14047067.299   -48244943.107 7 -37232756.857 8
  15186248.596   -27352679.564 6 -21091210.132 8
 95  2 19 20 56 29.9780000  0  7 28 18 31  2 29 19 27
  17224657.393   -27020041.925 5 -20846132.854 5
  14123527.127   -52173411.118 7 -40457128.262 9
  15069966.307   -31042836.518 6 -23949455.729 7
  16298744.088   -18431673.848 5 -14110328.033 6
  16124950.338   -37507439.762 5 -29081285.072 6
  14033204.408   -48317800.171 7 -37289528.585 8
  15161784.565   -27481239.270 7 -21191386.492 7
 95  2 19 20 56 59.9780000  0  7 28 18 31  2 29 19 27
  17223230.611   -27027548.991 5 -20851982.586 5
  14120933.026   -52187039.433 7 -40467747.752 9
  15057262.416   -31109590.964 6 -24001472.178 7
  16272523.924   -18569481.544 6 -14217710.585 6
  16129591.291   -37483055.889 5 -29062284.730 6
  14019375.002   -48390476.577 7 -37346159.540 8
  15137338.854   -27609700.304 7 -21291485.958 7
 95  2 19 20 57 29.9780000  0  7 28 18 31  2 29 19 27
  17221890.080   -27034593.264 5 -20857471.645 5
  14118429.822   -52200199.193 7 -40478002.130 9
  15044671.854   -31175759.689 6 -24053032.234 7
  16246344.283   -18707041.231 6 -14324899.892 6
  16134279.119   -37458424.494 5 -29043091.502 6
  14005584.033   -48462950.786 7 -37402632.931 8
  15112920.549   -27738016.073 7 -21391472.241 7
 95  2 19 20 57 59.9770000  0  7 28 18 31  2 29 19 27
  17220638.638   -27041186.579 5 -20862609.343 5
  14116013.099   -52212898.588 7 -40487897.789 9
  15032194.200   -31241345.568 6 -24104138.126 7
  16220216.528   -18844346.595 6 -14431891.029 6
  16139012.857   -37433554.129 5 -29023712.062 6
  13991828.482   -48535225.020 7 -37458950.510 8
  15088532.114   -27866188.870 7 -21491347.112 7
 95  2 19 20 58 29.9770000  0  7 28 18 31  2 29 19 27
  17219461.505   -27047358.645 5 -20867418.786 4
  14113684.185   -52225155.001 7 -40497448.258 9
  15019817.341   -31306367.254 6 -24154804.381 7
  16194131.161   -18981426.528 6 -14538706.482 6
  16143791.716   -37408446.947 5 -29004148.094 6
  13978106.333   -48607329.976 7 -37515136.189 8
  15064159.896   -27994259.864 7 -21591142.665 8
 95  2 19 20 58 59.9770000  0  7 28 18 31  2 29 19 27
  17218364.411   -27053115.891 5 -20871904.978 5
  14111431.825   -52236968.331 7 -40506653.482 8
  15007551.544   -31370825.872 6 -24205031.881 7
  16168089.614   -19118286.357 6 -14645350.440 6
  16148610.950   -37383098.069 5 -28984395.776 6
  13964420.505   -48679271.335 7 -37571194.382 8
  15039806.607   -28122228.412 7 -21690858.376 8
 95  2 19 20 59 29.9770000  0  7 28 18 31  2 29 19 27
  17217351.349   -27058437.714 5 -20876051.910 5
  14109276.802   -52248305.775 7 -40515487.881 8
  14995399.669   -31434682.913 6 -24254790.618 7
  16142091.575   -19254904.656 6 -14751806.208 6
  16153491.466   -37357474.534 5 -28964429.475 5
  13950764.419   -48751025.664 7 -37627106.846 8
  15015474.739   -28250099.349 7 -21790498.032 8
 95  2 19 20 59 59.9770000  0  7 28 18 31  2 29 19 27
  17216421.060   -27063326.729 5 -20879861.558 5
  14107212.927   -52259149.762 7 -40523937.765 8
  14983364.325   -31497925.732 6 -24304070.731 7
  16116140.685   -19391273.363 6 -14858067.469 6
  16158420.278   -37331568.287 5 -28944242.865 5
  13937144.349   -48822592.781 7 -37682873.427 8
  14991158.310   -28377887.731 7 -21890073.354 8
 95  2 19 21  0 29.9770000  0  7 28 18 31  2 29 19 27
  17215572.333   -27067786.243 5 -20883336.551 5
  14105239.763   -52269507.507 7 -40532008.764 8
  14971444.630   -31560567.742 6 -24352882.694 7
  16090236.833   -19527408.013 6 -14964146.353 6
  16163402.232   -37305383.408 6 -28923839.165 5
  13923563.364   -48893978.662 7 -37738498.794 8
  14966851.583   -28505609.282 7 -21989596.603 8
 95  2 19 21  0 59.9770000  0  8 28 18 16 31  2 29 19 27
  17214803.575   -27071835.990 5 -20886492.231 5
  14103355.982   -52279414.787 7 -40539728.749 8
  17464739.943          -0.84214
  14959632.833   -31622637.417 6 -24401248.678 7
  16064372.794   -19663322.048 6 -15070053.329 6
  16168432.497   -37278945.050 6 -28903237.941 5
  13910010.286   -48965191.214 7 -37793989.092 8
  14942558.294   -28633272.553 7 -22089074.436 8
 95  2 19 21  1 29.9770000  0  8 28 18 16 31  2 29 19 27
  17214115.778   -27075461.946 5 -20889317.681 4
  14101557.716   -52288863.730 7 -40547091.579 8
  17446762.607      -94446.361 4        -0.30511
  14947933.888   -31684120.373 6 -24449157.469 7
  16038552.841   -19798989.892 6 -15175768.469 6
  16173516.841   -37252231.518 6 -28882422.296 5
  13896495.544   -49036213.189 7 -37849330.891 8
  14918279.435   -28760860.505 7 -22188493.577 8
 95  2 19 21  1 59.9770000  0  8 28 18 16 31  2 29 19 27
  17213507.677   -27078639.352 4 -20891793.600 4
  14099849.458   -52297843.990 7 -40554089.203 8
  17428896.919     -188328.624 4    -73155.255 1
  14936352.841   -31744989.131 6 -24496587.671 7
  16012786.685   -19934392.186 6 -15281276.690 6
  16178650.966   -37225233.388 6 -28861384.888 5
  13883020.716   -49107016.852 7 -37904502.573 8
  14894024.927   -28888324.251 7 -22287815.929 8
 95  2 19 21  2 29.9770000  0  8 28 18 16 31  2 29 19 27
  17212982.716   -27081395.302 5 -20893941.107 5
  14098218.778   -52306405.190 7 -40560760.294 8
  17411139.872     -281676.922 5   -145894.149 1
  14924883.583   -31805259.431 6 -24543551.537 8
  15987065.403   -20069551.873 6 -15386595.867 6
  16183836.771   -37197993.501 5 -28840159.069 5
  13869584.997   -49177626.910 7 -37959523.391 8
  14869788.278   -29015679.371 6 -22387053.637 8
 95  2 19 21  2 59.9770000  0  8 28 18 16 31  2 29 19 27
  17212539.521   -27083735.363 5 -20895764.590 4
  14096670.693   -52314542.275 7 -40567100.901 8
  17393472.810     -374505.760 4   -218228.308 1
  14913530.443   -31864917.821 6 -24590038.590 7
  15961393.958   -20204458.018 6 -15491717.487 6
  16189062.263   -37170524.620 5 -28818754.855 5
  13856182.888   -49248044.368 7 -38014394.133 8
  14845576.786   -29142915.693 6 -22486198.778 8
 95  2 19 21  3 29.9770000  0  8 28 18 16 31  2 29 19 27
  17212175.005   -27085654.265 5 -20897259.854 4
  14095204.903   -52322237.413 7 -40573097.132 9
  17375906.318     -466823.065 4   -290163.824 1
  14902298.286   -31923949.430 6 -24636037.231 7
  15935770.224   -20339119.407 6 -15596648.380 6
  16194332.903   -37142834.648 5 -28797178.332 5
  13842819.857   -49318274.971 7 -38069119.271 8
  14821388.841   -29270030.650 6 -22585249.356 8
 95  2 19 21  3 59.9770000  0  8 28 18 16 31  2 29 19 27
  17211889.888   -27087143.964 5 -20898420.660 4
  14093827.544   -52329483.775 7 -40578743.663 9
  17358432.716     -558639.304 3   -361708.919 2
  14891184.872   -31982337.237 6 -24681534.207 7
  15910191.669   -20473527.595 6 -15701381.978 6
  16199643.278   -37114929.619 5 -28775434.250 5
  13829496.021   -49388295.170 7 -38123680.465 8
  14797222.755   -29397013.799 6 -22684197.209 8
 95  2 19 21  4 29.9770000  0  8 28 18 16 31  2 29 19 27
  17211682.372   -27088211.794 5 -20899252.770 4
  14092536.950   -52336273.110 7 -40584034.072 9
  17341055.068     -649972.427 3   -432877.522 4
  14880194.638   -32040097.900 6 -24726542.506 7
  15884668.818   -20607675.646 6 -15805912.873 6
  16204993.333   -37086814.398 5 -28753526.372 5
  13816214.989   -49458098.511 7 -38178072.675 8
  14773081.044   -29523879.528 6 -22783053.588 8
 95  2 19 21  4 59.9770000  0  8 28 18 16 31  2 29 19 27
  17211565.599   -27088854.652 5 -20899753.732 5
  14091333.091   -52342587.365 7 -40588954.291 9
  17323769.521     -740816.649 3   -503665.167 3
  14869318.302   -32097237.925 6 -24771067.185 7
  15859186.872   -20741570.396 6 -15910246.383 6
  16210388.411   -37058473.108 5 -28731442.333 5
  13802973.474   -49527677.372 7 -38232289.966 8
  14748961.060   -29650632.783 6 -22881822.316 8
 95  2 19 21  5 29.9770000  0  8 28 18 16 31  2 29 19 27
  17211527.068   -27089068.214 5
  14090224.427   -52348428.536 7 -40593505.868 8
  17306574.083     -831164.381 3   -574065.967 2
  14858566.177   -32153758.357 6 -24815109.071 8
  15833756.833   -20875208.959 6 -16014380.268 6
  16215825.443   -37029890.736 5 -28709170.422 5
  13789773.778   -49597029.359 7 -38286330.470 8
  14724862.294   -29777274.479 6 -22980504.121 8
 95  2 19 21  5 59.9770000  0  8 28 18 16 31  2 29 19 27
  17211562.896   -27088855.076 5
  14089203.193   -52353801.455 7 -40597692.583 8
  17289477.482     -921007.261 2   -644073.357 3
  14847926.028   -32209665.541 6 -24858673.103 8
  15808376.568   -21008574.983 6 -16118301.779 6
  16221315.318   -37001050.952 5 -28686697.923 5
  13776622.513   -49666145.612 7 -38340187.283 8
  14700783.950   -29903803.453 6 -23079098.091 8
 95  2 19 21  6 29.9770000  0  8 28 18 16 31  2 29 19 27
  17211689.888   -27088209.970 5 -20899251.543 5
  14088268.622   -52358691.339 7 -40601502.906 8
  17272483.661    -1010323.829 3   -713670.609 4
  14837405.763   -32264960.328 6 -24901759.949 8
  15783049.130   -21141673.868 6 -16222015.139 6
  16226854.935   -36971927.623 5 -28664004.516 6
  13763513.341   -49735038.815 7 -38393870.286 8
  14676728.818   -30030212.639 6 -23177598.709 8
 95  2 19 21  6 59.9770000  0  8 28 18 16 31  2 29 19 27
  17211887.403   -27087141.212 5 -20898418.775 5
  14087428.130   -52363111.126 7 -40604946.916 8
  17255585.450    -1099119.542 3   -782862.036 5
  14826997.271   -32319644.638 6 -24944371.095 7
  15757770.005   -21274516.964 6 -16325529.166 6
  16232449.239   -36942519.692 5 -28641089.329 6
  13750442.427   -49803730.865 7 -38447396.547 8
  14652697.911   -30156491.137 6 -23275997.500 8
 95  2 19 21  7 29.9770000  0  8 28 18 16 31  2 29 19 27
  17212171.443   -27085669.307 5 -20897271.911 4
  14086672.786   -52367084.839 7 -40608043.345 8
  17238776.888    -1187424.044 2   -851670.650 5
  14816704.755   -32373740.562 6 -24986523.749 7
  15732540.458   -21407098.837 6 -16428839.658 7
  16238097.943   -36912850.328 5 -28617970.447 5
  13737405.747   -49872233.537 7 -38500775.240 8
  14628695.443   -30282639.214 7 -23374294.662 8
 95  2 19 21  7 59.9770000  0  8 28 18 16 31  2 29 19 27
  17212526.099   -27083786.658 5 -20895804.929 4
  14086005.528   -52370598.544 7 -40610781.328 8
  17222066.794    -1275224.666 3   -920086.668 5
  14806522.614   -32427245.644 6 -25028216.014 8
  15707360.825   -21539411.507 6 -16531940.372 7
  16243794.786   -36882914.764 5 -28594644.131 5
  13724408.982   -49940527.854 7 -38553991.584 8
  14604719.599   -30408637.440 7 -23472475.068 8
 95  2 19 21  8 29.9770000  0  8 28 18 16 31  2 29 19 27
  17212967.271   -27081478.382 5 -20894006.319 5
  14085428.747   -52373629.375 7 -40613143.045 8
  17205464.489    -1362497.026 3   -988091.066 5
  14796459.536   -32480136.031 6 -25069429.293 8
  15682236.599   -21671439.885 6 -16634819.574 7
  16249544.239   -36852712.730 5 -28571110.189 5
  13711456.286   -50008589.446 7 -38607026.578 8
  14580773.653   -30534465.449 7 -23570522.832 8
 95  2 19 21  8 59.9770000  0  8 28 18 16 31  2 29 19 27
  17213485.552   -27078744.517 4 -20891876.044 4
  14084940.255   -52376190.466 7 -40615138.728 8
  17188955.732    -1449235.851 3  -1055679.701 5
  14786513.489   -32532403.166 6 -25110156.927 8
  15657170.294   -21803162.199 6 -16737460.289 7
  16255339.607   -36822269.441 5 -28547388.238 4
  13698553.255   -50076404.159 7 -38659869.205 8
  14556861.927   -30660124.115 7 -23668438.639 8
 95  2 19 21  9 29.9760000  0  8 28 18 16 31  2 29 19 27
  17214087.344   -27075606.419 4 -20889430.807 5
  14084535.203   -52378312.471 7 -40616792.272 8
  17172555.156    -1535435.631 4  -1122848.306 5
  14776681.711   -32584057.332 6 -25150406.926 8
  15632157.680   -21934602.564 6 -16839881.303 7
  16261168.383   -36791610.538 5 -28523498.290 3
  13685693.438   -50143983.730 7 -38712528.598 8
  14532974.102   -30785656.534 7 -23766256.073 8
 95  2 19 21  9 59.9760000  0  8 28 18 16 31  2 29 19 27
  17214756.492   -27072064.889 3 -20886671.216 5
  14084216.992   -52379996.934 7 -40618104.871 8
  17156258.367    -1621077.361 5  -1189582.098 4
  14766972.531   -32635086.476 6 -25190169.883 8
  15607197.086   -22065799.551 6 -16942112.659 6
  16267044.469   -36760724.968 5 -28499431.703 5
  13672875.125   -50211340.979 7 -38765014.752 8
  14509103.430   -30911086.191 7 -23863993.435 8
 95  2 19 21 10 29.9760000  0  8 28 18 16 31  2 29 19 27
  17215506.617   -27068132.071 4 -20883606.720 5
  14083971.750   -52381269.566 7 -40619096.550 8
  17140063.383    -1706171.513 5  -1255889.213 5
  14757380.703   -32685491.873 6 -25229446.801 8
  15582271.531   -22196766.636 6 -17044164.877 6
  16272963.883   -36729627.840 5 -28475200.256 5
  13660095.852   -50278494.241 7 -38817341.945 8
  14485252.899   -31036429.914 7 -23961663.827 8
 95  2 19 21 10 59.9760000  0  8 28 18 16 31  2 29 19 27
  17216321.953   -27063818.514 4 -20880245.534 5
  14083806.242   -52382150.325 7 -40619782.861 8
  17123969.305    -1790742.493 5  -1321788.669 5
  14747903.664   -32735287.960 6 -25268248.935 8
  15557390.711   -22327521.900 6 -17146052.039 6
  16278919.336   -36698325.771 5 -28450809.142 5
  13647351.461   -50345460.982 7 -38869523.803 8
  14461416.547   -31161693.434 7 -24059271.723 8
 95  2 19 21 11 29.9760000  0  8 28 18 16 31  2 29 19 27
  17217224.633   -27059118.430 5 -20876583.148 5
  14083719.570   -52382602.918 7
  17107981.891    -1874797.623 5  -1387286.135 3
  14738542.695   -32784478.452 6 -25306579.169 8
  15532551.492   -22458059.127 6 -17247769.290 6
  16284924.047   -36666794.228 5 -28426239.205 5
  13634648.852   -50412222.847 7 -38921546.019 8
  14437598.211   -31286857.420 7 -24156802.067 8
 95  2 19 21 11 59.9760000  0  8 28 18 16 31  2 29 19 27
  17218189.399   -27054034.796 4 -20872621.900 4
  14083716.914   -52382614.465 7
  17092075.594    -1958357.742 5  -1452397.899 3
  14729292.610   -32833078.358 6 -25344449.201 8
  15507751.141   -22588361.493 6 -17349303.535 6
  16290963.625   -36635045.747 5 -28401500.227 5
  13621983.360   -50478771.671 7 -38973402.240 8
  14413802.727   -31411903.549 7 -24254240.576 8
 95  2 19 21 12 29.9760000  0  8 28 18 16 31  2 29 19 27
  17219234.695   -27048570.408 5 -20868363.939 3
  14083797.445   -52382181.672 7
  17076264.438    -2041445.779 5  -1517141.778 3
  14720156.735   -32881098.346 6 -25381867.346 8
  15483004.188   -22718403.923 6 -17450635.254 6
  16297041.735   -36603108.783 5 -28376614.365 5
  13609362.219   -50545098.261 7 -39025085.284 8
  14390033.117   -31536818.205 7 -24351576.637 8
 95  2 19 21 12 59.9760000  0  8 28 18 16 31  2 29 19 27
  17220347.656   -27042718.514 5 -20863804.059 5
  14083972.211   -52381284.963 7 -40619108.652 8
  17060544.086    -2124045.450 5  -1581505.161 2
  14711131.164   -32928532.513 6 -25418829.010 8
  15458318.078   -22848155.926 6 -17551740.657 6
  16303156.266   -36570972.353 5 -28351573.072 5
  13596787.438   -50611188.027 7 -39076583.794 8
  14366288.219   -31661590.834 7 -24448802.019 8
 95  2 19 21 13 29.9760000  0  8 28 18 16 31  2 29 19 27
  17221533.149   -27036481.179 5 -20858943.824 5
  14084228.188   -52379936.064 7 -40618057.593 8
  17044921.000    -2206149.015 3  -1645481.975 4
  14702216.313   -32975374.969 6 -25455329.601 7
  15433681.539   -22977609.821 6 -17652613.779 7
  16309308.969   -36538631.117 5 -28326372.186 5
  13584254.445   -50677044.320 7 -39127900.377 8
  14342570.477   -31786233.807 7 -24545926.368 8
 95  2 19 21 13 59.9760000  0  8 28 18 16 31  2 29 19 27
  17222786.899   -27029885.227 4 -20853804.161 5
  14084559.266   -52378197.229 7 -40616702.681 8
  17029387.852    -2287765.585 3  -1709079.260 3
  14693413.414   -33021633.748 6 -25491375.379 8
  15409097.938   -23106803.363 6 -17753284.026 7
  16315495.188   -36506125.259 5 -28301043.038 5
  13571759.852   -50742703.010 6 -39179062.979 8
  14318871.117   -31910767.113 7 -24642965.271 8
 95  2 19 21 14 29.9760000  0  8 28 18 16 31  2 29 19 27
  17224112.969   -27022905.288 4 -20848365.315 5
  14084966.985   -52376048.231 7 -40615028.178 8
  17013959.727    -2368857.773 3  -1772267.988 4
  14684730.945   -33067270.311 6 -25526936.312 8
  15384569.383   -23235713.315 6 -17853733.287 7
  16321718.266   -36473417.215 5 -28275556.322 5
  13559308.156   -50808142.603 7 -39230054.856 8
  14295197.891   -32035160.871 7 -24739895.423 8
 95  2 19 21 14 59.9760000  0  8 28 18 16 31  2 29 19 27
  17225512.469   -27015553.140 5 -20842636.380 5
  14085449.524   -52373506.000 7 -40613047.255 8
  16998628.024    -2449414.971 2  -1835039.770 5
  14676162.016   -33112290.263 6 -25562016.782 8
  15360086.961   -23364359.477 6 -17953977.001 7
  16327986.438   -36440497.401 5 -28249904.617 5
  13546892.586   -50873378.297 7 -39280887.856 8
  14271551.117   -32159431.504 7 -24836729.640 8
 95  2 19 21 15 29.9760000  0  8 28 18 16 31  2 29 19 27
  17226983.375   -27007849.793 4 -20836633.792 5
  14086007.156   -52370586.635 7 -40610772.462 8
  16983394.680    -2529461.014 3  -1897413.284 4
  14667708.555   -33156713.652 6 -25596632.391 8
  15335647.266   -23492782.212 6 -18054046.620 7
  16334286.500   -36407388.678 5 -28224105.708 4
  13534516.641   -50938430.692 7 -39331578.029 8
  14247927.586   -32283589.188 7 -24933475.837 8
 95  2 19 21 15 59.9760000  0  8 28 18 16 31  2 29 19 27
  17228520.914   -26999782.253 3 -20830347.419 5
  14086640.070   -52367257.036 7 -40608178.005 8
  16968264.477    -2608985.734 2  -1959380.600 3
  14659370.016   -33200540.221 6 -25630782.953 7
  15311252.766   -23620964.367 6 -18153928.760 7
  16340622.883   -36374078.076 5 -28198149.516 4
  13522175.938   -51003275.539 7 -39382106.477 8
  14224324.992   -32407606.772 7 -25030112.874 8
 95  2 19 21 16 29.9760000  0  8 28 18 16 31  2 29 19 27
  17230125.953   -26991339.335 3 -20823768.554 4
  14087355.274   -52363496.395 7 -40605247.666 8
  16953224.688    -2687989.450 3  -2020941.880 3
  14651143.578   -33243767.656 6 -25664466.660 7
  15286913.141   -23748881.957 6 -18253604.767 7
  16347007.305   -36340543.072 5 -28172018.473 4
  13509877.008   -51067900.222 7 -39432463.363 8
  14200751.305   -32531488.350 7 -25126643.931 9
 95  2 19 21 16 59.9760000  0  8 28 18 16 31  2 29 19 27
  17231795.860   -26982533.578 3 -20816906.954 4
  14088152.469   -52359319.478 7 -40601992.955 8
  16938289.563    -2766494.724 3  -2082114.801 4
  14643027.828   -33286417.448 7 -25697700.254 7
  15262617.125   -23876554.771 6 -18353090.017 6
  16353428.172   -36306804.724 5 -28145728.958 4
  13497620.156   -51132311.297 7 -39482653.803 8
  14177202.906   -32655245.036 7 -25223077.672 9
 95  2 19 21 17 29.9760000  0  8 28 18 16 31  2 29 19 27
  17233539.953   -26973376.046 3 -20809771.233 5
  14089024.578   -52354733.216 6 -40598419.270 8
  16923447.219    -2844529.879 3  -2142921.399 3
  14635018.774   -33328500.537 6 -25730492.267 8
  15238371.195   -24003985.838 6 -18452386.899 6
  16359878.383   -36272881.410 5 -28119295.322 4
  13485402.625   -51196507.747 7 -39532676.995 8
  14153676.320   -32778871.212 7 -25319409.711 9
 95  2 19 21 17 59.9760000  0  8 28 18 16 31  2 29 19 27
  17235347.078   -26963880.072 3 -20802371.777 4
  14089970.758   -52349763.947 6 -40594547.140 8
  16908678.399    -2922099.698 3  -2203365.403 4
  14627118.625   -33370022.881 7 -25762847.340 8
  15214162.235   -24131177.517 6 -18551497.236 6
  16366367.485   -36238790.117 5 -28092730.775 4
  13473230.188   -51260485.712 7 -39582529.945 8
  14130175.078   -32902374.740 7 -25415646.180 9
 95  2 19 21 18 29.9760000  0  8 28 18 16 31  2 29 19 27
  17237219.953   -26954026.542 3 -20794693.720 4
  14090992.328   -52344390.058 6 -40590359.726 8
  16894013.000    -2999174.416 3  -2263423.603 3
  14619329.453   -33410953.454 6 -25794741.299 8
  15190007.352   -24258119.169 6 -18650412.747 6
  16372888.555   -36204519.591 5 -28066026.545 4
  13461099.164   -51324228.950 7 -39632199.986 8
  14106699.617   -33025739.896 7 -25511774.837 9
 95  2 19 21 18 59.9760000  0  8 28 18 16 31  2 29 19 27
  17239157.211   -26943834.957 3 -20786752.216 5
  14092088.555   -52338622.802 6 -40585865.792 8
  16879436.852    -3075765.699 3  -2323105.088 4
  14611652.141   -33451312.031 6 -25826189.540 8
  15165894.977   -24384834.417 6 -18749151.847 6
  16379442.141   -36170094.351 5 -28039201.790 5
  13449010.742   -51387755.604 7 -39681701.262 8
  14083246.008   -33148975.653 7 -25607802.667 9
 95  2 19 21 19 29.9760000  0  8 28 18 16 31  2 29 19 27
  17241165.289   -26933299.320 4 -20778542.657 5
  14093264.555   -52332451.111 7 -40581056.714 7
  16864959.641    -3151862.664 4  -2382401.415 3
  14604077.867   -33491090.136 6 -25857185.457 7
  15141826.766   -24511309.404 6 -18847703.732 7
  16386023.602   -36135500.519 5 -28012245.663 4
  13436966.195   -51451059.185 7 -39731028.719 8
  14059820.860   -33272079.599 7 -25703727.782 9
 95  2 19 21 19 59.9760000  0  8 28 18 16 31  2 29 19 27
  17243228.453   -26922443.013 3 -20770083.216 4
  14094512.289   -52325896.354 7 -40575949.146 7
  16850568.883    -3227478.397 4  -2441322.718 2
  14596616.797   -33530312.827 6 -25887748.586 7
  15117802.703   -24637573.004 6 -18946090.905 7
  16392636.641   -36100767.908 5 -27985181.395 5
  13424954.125   -51514167.312 7 -39780203.878 8
  14036414.805   -33395090.104 7 -25799580.092 9
 95  2 19 21 20 29.9750000  0  8 28 18 16 31  2 29 19 27
  17245356.941   -26911266.402 3 -20761374.173 5
  14095832.120   -52318948.753 7 -40570535.471 8
  16836269.894    -3302611.026 4  -2499867.621 4
  14589255.612   -33568981.139 6 -25917879.738 8
  15093818.472   -24763609.490 6 -19044301.110 8
  16399272.042   -36065895.586 5 -27958008.255 5
  13412982.300   -51577092.473 7 -39829236.458 8
  14013024.277   -33518002.166 7 -25895355.686 8
 95  2 19 21 20 59.9750000  0  8 28 18 16 31  2 29 19 27
  17247551.198   -26899758.027 5 -20752406.656 4
  14097230.292   -52311601.884 7 -40564810.671 7
  16822068.362    -3377252.503 4  -2558029.769 2
  14582003.948   -33607085.638 6 -25947571.546 8
  15069880.612   -24889403.064 6 -19142322.035 8
  16405938.237   -36030857.781 5 -27930706.160 5
  13401045.730   -51639813.224 7 -39878109.757 8
  13989658.487   -33640791.917 7 -25991035.980 8
 95  2 19 21 21 29.9750000  0  8 28 18 16 31  2 29 19 27
  17249805.292   -26887910.197 5 -20743174.583 4
  14098705.456   -52303853.576 7 -40558773.064 7
  16807961.972    -3451389.012 4  -2615798.481 4
  14574865.550   -33644602.101 6 -25976805.144 7
  15045992.425   -25014935.017 6 -19240139.093 8
  16412640.112   -35995640.916 5 -27903264.544 5
  13389155.620   -51702298.078 7 -39926799.243 8
  13966321.441   -33763428.614 7 -26086597.011 8
 95  2 19 21 21 59.9750000  0  8 28 18 16 31  2 29 19 27
  17252122.378   -26875732.127 5 -20733685.220 4
  14100255.386   -52295719.757 7 -40552435.060 8
  16793948.605    -3525025.392 4  -2673177.440 3
  14567840.675   -33681529.309 6 -26005579.601 7
  15022152.027   -25140209.097 6 -19337755.225 7
  16419371.823   -35960255.107 5 -27875691.296 5
  13377309.237   -51764547.740 7 -39975305.461 8
  13943016.175   -33885899.913 7 -26182029.153 8
 95  2 19 21 22 29.9750000  0  8 28 18 16 31  2 29 19 27
  17254501.394   -26863204.458 5 -20723923.404 4
  14101876.456   -52287187.724 7 -40545786.762 8
  16780034.527    -3598143.514 3  -2730152.566 3
  14560928.441   -33717852.402 6 -26033883.291 7
  14998367.644   -25265197.260 6 -19435148.542 7
  16426149.769   -35924660.772 4 -27847955.525 5
  13365512.675   -51826533.267 7 -40023605.860 8
  13919747.909   -34008179.044 7 -26277311.557 8
 95  2 19 21 22 59.9750000  0  8 28 18 16 31  2 29 19 27
  17256955.058   -26850334.741 4 -20713895.063 3
  14103573.417   -52278274.397 7 -40538841.346 8
  16766215.980    -3670764.104 3  -2786740.035 2
  14554132.277   -33753571.715 6 -26061716.509 7
  14974634.042   -25389914.888 6 -19532331.055 7
  16432962.519   -35888871.144 4 -27820067.637 4
  13353769.667   -51888247.976 7 -40071695.238 8
  13896515.456   -34130266.157 7 -26372444.338 8
 95  2 19 21 23 29.9750000  0  8 28 18 16 31  2 29 19 27
  17259459.792   -26837141.118 3 -20703614.386 3
  14105339.323   -52268993.016 7 -40531609.131 8
  16752480.956    -3742909.475 3  -2842957.164 2
  14547444.527   -33788710.478 6 -26089097.350 7
  14950948.378   -25514381.807 6 -19629318.198 7
  16439796.761   -35852935.067 4 -27792065.600 2
  13342072.011   -51949721.637 7 -40119596.788 8
  13873311.878   -34252196.122 7 -26467454.673 8
 95  2 19 21 23 59.9750000  0  8 28 18 16 31  2 29 19 27
  17262038.237   -26823612.793 3 -20693072.875 4
  14107181.847   -52259323.806 7 -40524074.706 8
  16738849.792    -3814563.658 3  -2898791.598 2
  14540867.347   -33823274.037 6 -26116029.968 8
  14927312.152   -25638580.879 6 -19726096.624 6
  16446661.714   -35816851.084 4 -27763948.313 3
  13330417.448   -52010968.856 7 -40167321.885 8
  13850137.417   -34373979.963 7 -26562351.140 8
 95  2 19 21 24 29.9750000  0  8 28 18 16 31  2 29 19 27
  17264682.269   -26809748.824 4 -20682269.849 2
  14109093.433   -52249258.661 7 -40516231.774 8
  16725312.909    -3885710.735 3  -2954230.837 2
  14534399.886   -33857266.134 6 -26142517.309 8
  14903730.933   -25762516.592 6 -19822669.832 6
  16453561.659   -35780621.926 4 -27735717.905 2
  13318801.370   -52072007.566 7 -40214884.506 8
  13826988.675   -34495625.983 7 -26657140.210 8
 95  2 19 21 24 59.9750000  0  8 28 18 16 31  2 29 19 27
  17267382.050   -26795527.910 4 -20671188.563 1
  14111092.316   -52238770.938 7 -40508059.547 8
  16711876.472    -3956321.399 3  -3009252.103 3
  14528045.292   -33890656.950 6 -26168536.112 7
  14880198.433   -25886168.661 6 -19919022.025 6
  16460481.394   -35744239.030 5 -27707367.741 1
  13307227.573   -52132825.704 6 -40262275.259 8
  13803872.175   -34617101.480 7 -26751796.403 8
 95  2 19 21 25 29.9750000  0  8 28 18 16 31  2 29 19 27
  17270139.308   -26781036.779 4 -20659896.787 3
  14113153.261   -52227936.307 7 -40499617.012 8
  16698524.714    -4026468.773 3  -3063912.368 3
  14521784.175   -33923552.344 6 -26194168.868 7
  14856710.261   -26009618.080 6 -20015216.315 7
  16467420.206   -35707769.846 5 -27678950.303 2
  13295679.753   -52193521.710 7 -40309570.836 8
  13780771.378   -34738500.644 7 -26846393.119 8
 95  2 19 21 25 59.9750000  0  8 28 18 16 31  2 29 19 27
  17272960.573   -26766215.521 3 -20648347.839 4
  14115289.370   -52216712.251 6 -40490871.018 8
  16685274.714    -4096095.066 4  -3118166.623 3
  14515633.612   -33955880.267 6 -26219359.439 7
  14833267.753   -26132810.127 6 -20111210.059 7
  16474394.870   -35671121.837 5 -27650393.523 2
  13284163.191   -52254024.309 7 -40356715.703 8
  13757695.597   -34859751.892 7 -26940874.578 8
 95  2 19 21 26 29.9750000  0  8 28 18 16 31  2 29 19 27
  17275844.722   -26751062.897 3 -20636540.651 4
  14117499.308   -52205103.836 7 -40481825.527 8
  16672123.855    -4165209.260 4  -3172021.797 5
  14509592.284   -33987621.791 6 -26244093.083 7
  14809871.050   -26255740.790 6 -20207000.135 7
  16481404.589   -35634293.664 5 -27621696.327 2
  13272694.167   -52314306.648 7 -40403688.948 8
  13734657.159   -34980836.325 7 -27035226.042 8
 95  2 19 21 26 59.9750000  0  7 18 16 31  2 29 19 27
  14119779.011   -52193115.883 6 -40472484.296 7
  16659068.237    -4233835.705 5  -3225496.944 4
  14503663.019   -34018775.339 6 -26268368.561 7
  14786530.870   -26378401.680 6 -20302580.014 8
  16488443.691   -35597288.733 5 -27592861.439 4
  13261269.480   -52374342.929 7 -40450470.457 8
  13711645.917   -35101755.724 7 -27129448.899 8
 95  2 19 21 27 29.9750000  0  7 18 16 31  2 29 19 27
  14122135.480   -52180733.979 6 -40462836.096 7
  16646104.105    -4301965.298 5  -3278584.921 5
  14497851.034   -34049319.504 6 -26292169.190 7
  14763242.784   -26500776.462 6 -20397936.946 8
  16495521.394   -35560097.139 4 -27563881.095 5
  13249896.316   -52434108.111 7 -40497040.721 8
  13688669.675   -35222500.383 7 -27223535.597 9
 95  2 19 21 27 59.9750000  0  7 18 16 31  2 29 19 27
  14124559.472   -52167992.893 7 -40452908.010 7
  16633225.808    -4369622.006 4  -3331304.414 4
  14492154.597   -34079260.734 6 -26315500.014 7
  14740004.034   -26622892.100 6 -20493091.962 8
  16502619.034   -35522766.830 4 -27534792.644 4
  13238574.362   -52493608.315 7 -40543404.505 8
  13665719.136   -35343097.100 7 -27317507.032 9
 95  2 19 21 28 29.9750000  0  7 18 16 31  2 29 19 27
  14127059.058   -52154853.523 6 -40442669.571 7
  16620444.769    -4436776.987 3  -3383632.935 5
  14486569.995   -34108596.665 6 -26338359.167 7
  14716821.245   -26744722.649 6 -20588024.837 8
  16509760.714   -35485295.842 3 -27505594.556 3
  13227305.417   -52552827.686 7 -40589549.455 8
  13642805.097   -35463519.982 6 -27411342.988 9
 95  2 19 21 28 59.9750000  0  7 18 16 31  2 29 19 27
  14129639.378   -52141309.275 7 -40432115.643 7
  16607765.230    -4503426.549 3  -3435567.628 5
  14481100.894   -34137341.444 6 -26360757.681 7
  14693689.839   -26866285.319 6 -20682748.961 8
  16516914.058   -35447679.768 3 -27476283.447 4
  13216088.128   -52611777.721 7 -40635484.537 8
  13619923.753   -35583758.599 6 -27505035.377 8
 95  2 19 21 29 29.9750000  0  7 18 16 31  2 29 19 27
  14132291.964   -52127355.619 7 -40421242.714 7
  16595181.183    -4569555.551 3  -3487096.711 5
  14475742.441   -34165504.993 6 -26382703.302 7
  14670608.433   -26987586.356 6 -20777269.219 8
  16524102.589   -35409919.776 3 -27446860.167 2
  13204919.753   -52670469.613 7 -40681218.467 8
  13597078.558   -35703798.207 6 -27598572.691 8
 95  2 19 21 29 59.9750000  0  7 18 16 31  2 29 19 27
  14135027.050   -52112995.577 7 -40410053.110 7
  16582693.425    -4635155.630 3  -3538213.583 4
  14470490.456   -34193099.131 6 -26404205.209 7
  14647572.831   -27108630.988 6 -20871589.680 7
  16531313.644   -35372021.533 3 -27417329.207 2
  13193799.230   -52728900.378 7 -40726748.921 8
  13574277.081   -35823630.151 6 -27691948.183 8
 95  2 19 21 30 29.9750000  0  7 18 16 31  2 29 19 27
  14137832.534   -52098230.209 6 -40398547.669 7
  16570309.066    -4700226.933 2  -3588918.494 3
  14465345.847   -34220128.149 6 -26425266.773 7
  14624587.691   -27229416.527 6 -20965708.234 7
  16538551.222   -35333971.396 3 -27387679.845 2
  13182729.112   -52787077.979 7 -40772082.101 8
  13551518.323   -35943239.143 7 -27785149.965 8
 95  2 19 21 30 59.9750000  0  7 18 16 31  2 29 19 27
  14140715.566   -52083084.754 6 -40386746.059 7
  16558028.909    -4764776.581 3  -3639216.886 1
  14460312.503   -34246591.569 6 -26445887.602 7
  14601652.722   -27349938.768 6 -21059621.608 7
  16545823.331   -35295768.562 3 -27357911.506 1
  13171705.495   -52844996.081 7 -40817213.080 8
  13528794.527   -36062643.486 7 -27878192.279 8
 95  2 19 21 31 29.9750000  0  7 18 16 31  2 29 19 27
  14143665.472   -52067596.303 6 -40374677.175 7
  16545846.753    -4828820.186 3  -3689121.015 1
  14455377.550   -34272510.190 6 -26466083.925 7
  14578770.308   -27470199.459 6 -21153331.178 7
  16553119.331   -35257432.890 4 -27328039.665 1
  13160733.784   -52902666.312 7 -40862150.903 8
  13506100.394   -36181893.446 7 -27971114.305 8
 95  2 19 21 31 59.9740000  0  7 18 16 31  2 29 19 27
  14146675.381   -52051780.525 6 -40362353.234 7
  16533753.850    -4892361.039 3  -3738633.352 3
  14450553.709   -34297874.256 6 -26485848.123 7
  14555935.381   -27590180.741 6 -21246823.026 7
  16560440.459   -35218949.040 4 -27298052.358 2
  13149806.850   -52960077.557 7 -40906886.922 9
  13483438.951   -36300992.220 7 -28063918.518 9
 95  2 19 21 32 29.9740000  0  7 18 16 31  2 29 19 27
  14149746.694   -52035625.145 6 -40349764.648 8
  16521753.162    -4955412.503 4  -3787764.372 3
  14445833.772   -34322673.157 6 -26505171.925 7
  14533162.490   -27709872.413 6 -21340089.212 7
  16567801.561   -35180290.704 3 -27267929.089 2
  13138930.951   -53017235.143 7 -40951425.287 8
  13460805.092   -36419935.202 7 -28156601.332 9
 95  2 19 21 32 59.9740000  0  7 18 16 31  2 29 19 27
  14152886.279   -52019137.128 6 -40336916.880 8
  16509846.342    -5017987.293 4  -3836523.973 3
  14441220.459   -34346921.356 6 -26524066.607 7
  14510435.217   -27829287.615 6 -21433139.966 7
  16575177.733   -35141479.190 3 -27237686.467 2
  13128100.373   -53074152.898 7 -40995776.770 8
  13438197.795   -36538735.976 7 -28249173.338 9
 95  2 19 21 33 29.9740000  0  7 18 16 31  2 29 19 27
  14156087.186   -52002318.536 7 -40323811.514 8
  16498027.623    -5080098.999 5  -3884922.692 4
  14436711.709   -34370611.499 6 -26542526.455 7
  14487761.451   -27948443.332 6 -21525988.534 8
  16582595.936   -35102531.918 3 -27207338.078 3
  13117308.420   -53130849.352 7 -41039955.814 8
  13415621.787   -36657382.741 7 -28341625.335 9
 95  2 19 21 33 59.9740000  0  7 18 16 31  2 29 19 27
  14159354.506   -51985147.744 7 -40310431.706 7
  16486295.733    -5141739.406 5  -3932954.217 3
  14432313.154   -34393720.926 6 -26560533.788 7
  14465138.858   -28067340.854 6 -21618635.895 8
  16590028.928   -35063450.954 3 -27176885.507 5
  13106567.061   -53187310.108 7 -41083951.198 8
  13393080.623   -36775825.375 7 -28433918.275 9
 95  2 19 21 34 29.9740000  0  7 18 16 31  2 29 19 27
  14162690.803   -51967604.987 6 -40296762.065 7
  16474657.975    -5202894.186 5  -3980607.307 4
  14428028.194   -34416243.720 6 -26578084.025 7
  14442559.944   -28185984.118 6 -21711085.137 8
  16597494.569   -35024260.682 4 -27146347.748 5
  13095868.701   -53243526.335 7 -41127756.042 8
  13370578.264   -36894064.977 7 -28526053.001 9
 95  2 19 21 34 59.9740000  0  7 18 16 31  2 29 19 27
  14166103.615   -51949683.840 6 -40282797.568 7
  16463117.951    -5263538.768 4  -4027862.809 4
  14423854.647   -34438172.827 6 -26595171.638 7
  14420032.889   -28304354.000 6 -21803321.358 8
  16604966.756   -34984961.123 4 -27115724.859 4
  13085224.889   -53299470.165 7 -41171348.627 8
  13348119.694   -37012100.017 7 -28618028.330 9
 95  2 19 21 35 29.9740000  0  7 18 16 31  2 29 19 27
  14169579.334   -51931416.644 6 -40268563.420 7
  16451664.514    -5323708.668 3  -4074748.460 5
  14419786.850   -34459548.898 6 -26611828.326 7
  14397556.209   -28422476.580 6 -21895364.874 8
  16612461.990   -34945585.031 5 -27085042.310 4
  13074625.334   -53355161.578 7 -41214744.523 8
  13325690.889   -37129958.059 7 -28709865.735 9
 95  2 19 21 35 59.9740000  0  7 18 16 31  2 29 19 27
  14173122.873   -51912794.369 6 -40254052.586 7
  16440310.897    -5383406.770 3  -4121266.458 5
  14415820.787   -34480391.435 6 -26628069.280 7
  14375126.717   -28540351.835 6
  16619970.279   -34906128.393 4 -27054296.981 4
  13064077.381   -53410589.714 7 -41257935.269 8
  13303295.139   -37247651.069 7
 95  2 19 21 36 29.9740000  0  7 18 16 31  2 29 19 27
  14176732.717   -51893823.128 6 -40239269.828 7
  16429043.662    -5442627.996 3  -4167412.839 4
  14411954.670   -34500706.296 6 -26643899.048 6
  14352744.498   -28657963.866 6
  16627504.365   -34866567.271 4 -27023470.245 2
  13053579.069   -53465757.081 7 -41300922.819 8
  13280926.569   -37365197.145 7
 95  2 19 21 36 59.9740000  0  7 18 16 31  2 29 19 27
  14180404.326   -51874520.022 6 -40224228.472 7
  16417856.647    -5501380.946 3  -4213194.351 4
  14408191.834   -34520497.612 6 -26659320.848 7
  14330413.404          -0.74416
  16635054.139   -34826880.741 3 -26992545.812 1
  13043130.404   -53520670.202 7 -41343712.256 8
  13258588.959   -37482579.257 7
 95  2 19 21 37 29.9740000  0  7 18 16 31  2 29 19 27
  14184144.998   -51854860.785 6 -40208909.620 7
  16406776.162    -5559638.055 3  -4258589.467 4
  14404530.490   -34539727.683 6 -26674305.340 7
  14308135.045     -117070.101 6
  16642633.334   -34787039.161 4 -26961500.542 2
  13032733.623   -53575300.446 7 -41386281.275 8
  13236292.920   -37599755.556 7
 95  2 19 21 37 59.9740000  0  7 18 16 31  2 29 19 27
  14187946.826   -51834890.657 6 -40193348.524 6
  16395779.342    -5617418.261 4  -4303613.019 3
  14400973.451   -34558415.278 6 -26688867.132 7
  14285903.233     -233888.756 6        -0.12218
  16650231.029   -34747082.158 3
  13022383.529   -53629689.251 7 -41428662.156 8
  13214028.209   -37716755.292 7 -29167110.216 8
 95  2 19 21 38 29.9740000  0  7 18 16 31  2 29 19 27
  14191805.303   -51814612.738 6 -40177547.588 6
  16384879.092    -5674707.257 5  -4348253.785 3
  14397523.428   -34576546.543 6 -26702995.419 7
  14263724.342     -350437.410 6    -90817.211 7
  16657862.272   -34707014.028 3
  13012081.615   -53683830.244 7 -41470849.936 9
  13191803.834   -37833548.617 7 -29258117.985 9
 95  2 19 21 38 59.9740000  0  7 18 16 31  2 29 19 27
  14195725.467   -51794025.869 7 -40161505.918 6
  16374064.881    -5731516.018 4  -4392520.348 5
  14394179.350   -34594125.396 6 -26716693.248 7
  14241595.545     -466725.016 6   -181430.876 7
  16665500.537   -34666871.707 3        -0.35611
  13001826.194   -53737718.418 7 -41512840.721 9
  13169621.131   -37950118.169 7 -29348951.390 9
 95  2 19 21 39 29.9740000  0  7 18 16 31  2 29 19 27
  14199703.850   -51773111.965 7 -40145209.417 6
  16363348.772    -5787837.231 4  -4436407.023 2
  14390938.576   -34611146.488 6 -26729956.444 7
  14219519.733     -582753.829 6   -271842.895 7
  16673147.623   -34626675.795 3     31321.039 1
  12991621.647   -53791344.686 7 -41554627.415 9
  13147479.990   -38066464.348 7 -29439610.727 9
 95  2 19 21 39 59.9740000  0  7 18 16 31  2 29 19 27
  14203751.123   -51751842.076 6 -40128635.525 6
  16352729.795    -5843661.740 4  -4479906.657 3
  14387807.569   -34627609.118 6 -26742784.477 7
  14197490.912     -698513.098 6   -362044.887 7
  16680808.092   -34586418.455 3     62690.211 1
  12981468.069   -53844701.378 7 -41596204.049 8
  13125384.647   -38182579.831 7 -29530090.292 9
 95  2 19 21 40 29.9740000  0  7 18 16 31  2 29 19 27
  14207865.108   -51730219.297 6 -40111786.646 6
  16342192.842    -5899020.822 4  -4523043.641 2
  14384773.662   -34643536.196 6 -26755195.185 7
  14175508.209     -814024.865 6   -452054.014 7
  16688480.561   -34546097.513 3     94109.034 2
  12971367.467   -53897785.833 7 -41637568.557 8
  13103330.170   -38298481.704 7 -29620403.417 9
 95  2 19 21 40 59.9740000  0  7 18 16 31  2 29 19 27
  14212049.506   -51708240.832 6 -40094660.609 6
  16331748.881    -5953905.953 3  -4565811.312 2
  14381849.428   -34658922.435 6 -26767184.476 6
  14153571.811     -929293.523 6   -541873.706 7
  16696171.365   -34505689.268 3    125595.797 1
  12961319.647   -53950589.937 7 -41678714.605 8
  13081311.733   -38414182.618 7 -29710559.933 9
 95  2 19 21 41 29.9740000  0  7 18 16 31  2 29 19 27
  14216290.826   -51685934.989 6 -40077279.466 6
  16321389.694    -6008342.313 3  -4608229.252 3
  14379017.584   -34673795.975 6 -26778774.250 7
  14131681.311    -1044350.980 6   -631528.814 8
  16703875.186   -34465187.158 3    157155.776 2
  12951319.248   -54003148.769 7 -41719669.536 8
  13059322.670   -38529722.857 7 -29800591.257 9
 95  2 19 21 41 59.9740000  0  7 18 16 31  2 29 19 27
  14220595.194   -51663323.824 6 -40059660.396 7
  16311106.873    -6062351.440 3  -4650314.299 2
  14376284.326   -34688173.584 6 -26789977.586 7
  14109824.826    -1159194.948 7   -721017.583 8
  16711612.342   -34424577.080 3    188799.926 1
  12941360.358   -54055471.237 7 -41760440.286 8
  13037367.709   -38645117.857 7 -29890509.403 9
 95  2 19 21 42 29.9740000  0  8  7 18 16 31  2 29 19 27
  16624999.990          -0.68015
  14224950.404   -51640436.537 6 -40041826.183 7
  16300914.053    -6115925.823 3  -4692060.583 3
  14373640.811   -34702055.373 6 -26800794.562 7
  14088013.365    -1273825.013 7   -810339.675 8
  16719351.240   -34383852.126 3    220533.537 2
  12931448.545   -54107553.369 7 -41801023.753 8
  13015435.834   -38760355.383 7 -29980304.847 9
 95  2 19 21 42 59.9740000  0  8  7 18 16 31  2 29 19 27
  16591133.873     -177981.291 5        -0.39413
  14229360.389   -51617265.023 6 -40023770.483 7
  16290807.764    -6169036.268 3  -4733445.321 3
  14371095.670   -34715432.068 6 -26811217.976 7
  14066244.647    -1388213.900 6   -899473.839 9
  16727128.639   -34343020.929 2    252349.974 4
  12921583.467   -54159398.108 7 -41841422.247 8
  12993538.108   -38875424.974 7 -30069969.434 9
 95  2 19 21 43 29.9730000  0  8  7 18 16 31  2 29 19 27
  16557260.486     -355966.484 5   -138689.940 2
  14233830.181   -51593778.327 6 -40005469.184 7
  16280795.657    -6221660.697 3  -4774451.366 3
  14368646.431   -34728293.771 6 -26821240.069 6
  14044529.275    -1502331.437 6   -988396.568 9
  16734921.111   -34302073.143 3    284257.190 4
  12911767.915   -54210984.636 7 -41881619.538 8
  12971680.876   -38990293.320 7 -30159477.210 9
 95  2 19 21 43 59.9730000  0  8  7 18 16 31  2 29 19 27
  16523383.189     -533970.812 4   -277394.364 2
  14238355.611   -51569997.825 6 -39986938.954 7
  16270871.650    -6273807.807 5  -4815085.496 2
  14366294.048   -34740654.236 6 -26830871.606 7
  14022865.782    -1616174.077 6  -1077105.094 8
  16742732.306   -34261031.797 3    316237.310 4
  12902000.486   -54262318.400 7 -41921619.874 8
  12949859.517   -39104963.669 7 -30248830.703 9
 95  2 19 21 44 29.9730000  0  7  7 18 16 31  2 19 27
  16489518.556     -711953.315 4   -416081.824 2
  14242937.775   -51545919.954 6 -39968177.005 7
  16261046.751    -6325453.934 5  -4855329.224 4
  14364041.845   -34752498.538 6 -26840100.933 7
  14001257.650    -1729718.399 6  -1165581.170 8
  12892279.579   -54313394.132 7 -41961419.143 8
  12928081.493   -39219405.825 7 -30338006.392 8
 95  2 19 21 44 59.9730000  0  7  7 18 16 31  2 19 27
  16455652.861     -889927.830 3   -554763.033 2
  14247573.720   -51521562.271 6 -39949197.032 7
  16251301.267    -6376645.390 5  -4895218.663 2
  14361880.259   -34763858.027 6 -26848952.473 7
  13979701.431    -1842994.662 6  -1253848.355 8
  12882603.743   -54364241.607 7 -42001040.549 8
  12906342.775   -39333653.173 7 -30427030.281 8
 95  2 19 21 45 29.9730000  0  7  7 18 16 31  2 19 27
  16421779.704    -1067893.013 3   -693436.996 2
  14252256.696   -51496952.978 6 -39930020.984 6
  16241640.361    -6427431.558 4
  14359808.009   -34774746.276 6 -26857436.840 6
  13958192.611    -1956037.664 6  -1341933.780 8
  12872969.689   -54414869.134 7
  12884637.501   -39447706.616 7 -30515903.076 8
 95  2 19 21 45 59.9730000  0  7  7 18 16 31  2 19 27
  16387916.540    -1245853.956 3   -832107.738 2
  14256980.579   -51472114.339 6 -39910666.243 6
  16232050.618    -6477826.646 4
  14357826.337   -34785150.476 6 -26865544.011 7
  13936723.439    -2068858.214 6  -1429845.855 8
  12863378.275   -54465270.809 7
  12862972.454   -39561563.369 7 -30604622.608 9
 95  2 19 21 46 29.9730000  0  7  7 18 16 31  2 19 27
  16354060.962    -1423788.154 3   -970757.650 2
  14261758.275   -51447006.442 6 -39891101.685 6
  16222539.439    -6527815.404 3
  14355946.900   -34795039.735 6 -26873249.943 6
  13915293.251    -2181457.393 6  -1517585.423 8
  12853838.626   -54515410.730 7 -42118834.641 8
  12841349.439   -39675195.350 7 -30693166.982 9
 95  2 19 21 46 59.9730000  0  7  7 18 16 31  2 19 27
  16320194.775    -1601692.036 3  -1109383.889 1
  14266596.650   -51421597.342 6 -39871302.429 6
  16213102.079    -6577386.371 3
  14354165.415   -34804392.431 6 -26880537.762 7
  13893912.642    -2293826.475 6  -1605145.706 8
  12844353.626   -54565251.117 7 -42157671.304 8
  12819769.728   -39788586.493 7 -30781523.704 9
 95  2 19 21 47 29.9730000  0  7  7 18 16 31  2 19 27
  16286344.962    -1779578.499 3  -1247996.542 1
  14271488.236   -51395891.950 6 -39851272.292 6
  16203747.626    -6626533.457 3        -0.14611
  14352489.415   -34813211.361 6 -26887409.669 7
  13872572.736    -2405954.396 6  -1692518.060 8
  12834924.040   -54614799.440 7 -42196280.382 9
  12798236.696   -39901748.168 7 -30869701.609 9
 95  2 19 21 47 59.9730000  0  7  7 18 16 31  2 19 27
  16252505.189    -1957442.096 3  -1386591.415 2
  14276434.923   -51369887.029 6 -39831008.770 6
  16194483.704    -6675236.186 2    -37950.339 2
  14350913.478   -34821502.999 6 -26893870.694 6
  13851284.251    -2517820.488 7  -1779686.391 8
  12825550.517   -54664058.727 7 -42234664.237 9
  12776745.986   -40014687.946 7 -30957706.608 9
 95  2 19 21 48 29.9730000  0  7  7 18 16 31  2 19 27
  16218663.767    -2135296.299 4  -1525178.914 2
  14281436.384   -51343594.478 6 -39810521.120 6
  16185297.071    -6723517.000 3    -75571.768 1
  14349422.782   -34829311.234 6 -26899955.049 6
  13830046.071    -2629438.471 7  -1866661.385 8
  12816225.017   -54713060.963 7 -42272847.791 9
  12755289.681   -40127437.182 7 -31045563.128 9
 95  2 19 21 48 59.9730000  0  7  7 18 16 31  2 19 27
  16184820.736    -2313149.676 4  -1663765.804 1
  14286493.704   -51317029.619 6 -39789821.280 6
  16176183.079    -6771381.586 3   -112868.837 1
  14348023.993   -34836663.277 6 -26905683.934 7
  13808855.571    -2740804.602 7  -1953440.144 8
  12806943.071   -54761837.816 7 -42310855.721 9
  12733866.017   -40240017.577 7 -31133288.085 9
 95  2 19 21 49 29.9730000  0  7  7 18 16 31  2 19 27
  16150980.915    -2490963.627 4  -1802321.932 1
  14291605.282   -51290178.092 6 -39768898.067 6
  16167157.923    -6818809.814 4   -149825.911 2
  14346712.314   -34843553.692 6 -26911053.100 6
  13787713.431    -2851900.410 6  -2040008.258 8
  12797707.821   -54810376.043 7 -42348677.715 8
  12712475.525   -40352415.298 7 -31220870.694 9
 95  2 19 21 49 59.9730000  0  7  7 18 16 31  2 19 27
  16117153.900    -2668737.085 3  -1940846.514 1
  14296767.048   -51263054.775 6 -39747763.051 6
  16158218.876    -6865813.186 4   -186451.905 4
  14345487.603   -34849988.279 6 -26916067.096 7
  13766619.376    -2962756.611 6  -2126389.668 8
  12788514.986   -54858679.189 7 -42386316.531 8
  12691125.814   -40464624.526 7 -31308306.435 9
 95  2 19 21 50 29.9730000  0  7  7 18 16 31  2 19 27
  16083326.400    -2846452.162 3  -2079325.618 2
  14301981.071   -51235642.047 6 -39726402.538 6
  16149358.103    -6912361.274 5   -222723.146 3
  14344354.720   -34855937.980 6 -26920703.250 7
  13745568.111    -3073365.341 6  -2212578.262 8
  12779372.501   -54906722.249 7 -42423752.676 8
  12669815.243   -40576617.085 7 -31395573.347 9
 95  2 19 21 50 59.9730000  0  7  7 18 16 31  2 19 27
  16049515.236    -3024143.455 3  -2217786.174 2
  14307242.173   -51207991.507 6 -39704856.700 6
  16140580.126    -6958479.793 4   -258659.675 2
  14343314.259   -34861424.065 6 -26924978.142 6
  13724560.173    -3183755.814 6  -2298596.775 8
  12770275.798   -54954534.078 7 -42461008.647 9
  12648541.712   -40688413.226 7 -31482687.201 9
 95  2 19 21 51 29.9730000  0  7  7 18 16 31  2 19 27
  16015709.876    -3201807.373 3  -2356225.475 3
  14312546.493   -51180115.927 6 -39683135.502 6
  16131886.462    -7004175.462 4   -294266.686 3
  14342361.907   -34866433.760 6 -26928881.820 6
  13703596.071    -3293933.640 6  -2384449.588 8
  12761224.189   -55002095.142 7 -42498069.221 9
  12627305.454   -40800000.514 7 -31569638.311 8
 95  2 19 21 51 59.9730000  0  7  7 18 16 31  2 19 27
  15981902.407    -3379457.094 3  -2494653.663 4
  14317895.220   -51152021.657 6 -39661243.907 6
  16123276.071    -7049453.120 3   -329547.934 3
  14341497.767   -34870965.706 6 -26932413.224 6
  13682671.618    -3403899.878 6  -2470137.535 8
  12752221.806   -55049403.115 7 -42534932.584 9
  12606112.032   -40911369.945 7 -31656419.668 9
 95  2 19 21 52 29.9730000  0  7  7 18 16 31  2 19 27
  15948102.790    -3557082.043 3  -2633062.546 5
  14323286.087   -51123696.174 6 -39639172.146 6
  16114733.486    -7094301.179 3   -364494.507 2
  14340726.103   -34875027.533 6 -26935578.304 6
  13661791.665    -3513623.153 6  -2555636.155 8
  12743268.837   -55096443.093 7 -42571587.126 9
  12584963.689   -41022508.083 7 -31743020.800 9
 95  2 19 21 52 59.9730000  0  7  7 18 16 31  2 19 27
  15914310.212    -3734699.988 3  -2771465.939 5
  14328716.095   -51095146.482 6 -39616925.679 6
  16106278.634    -7138758.549 4   -399136.615 1
  14340031.946   -34878659.318 6 -26938408.294 7
  13640956.454    -3623126.341 7  -2640963.289 8
  12734367.642   -55143227.552 7 -42608042.558 8
  12563852.353   -41133439.972 7 -31829461.219 9
 95  2 19 21 53 29.9730000  0  7  7 18 16 31  2 19 27
  15880507.368    -3912296.590 4  -2909852.724 4
  14334194.634   -51066350.450 6 -39594487.254 6
  16097890.501    -7182825.007 4   -433474.178 2
  14339424.900   -34881859.583 6 -26940902.033 7
  13620157.790    -3732418.593 7  -2726126.049 8
  12725517.368   -55189737.459 7 -42644284.048 8
  12542783.431   -41244161.233 7 -31915737.500 9
 95  2 19 21 53 59.9730000  0  7  7 18 16 31  2 19 27
  15846715.868    -4089873.366 5  -3048224.056 4
  14339721.212   -51037318.414 6 -39571864.933 6
  16089579.728    -7226505.302 4   -467510.810 2
  14338893.439   -34884645.599 6 -26943072.963 6
  13599398.001    -3841515.468 7  -2811136.561 8
  12716715.017   -55235992.810 7 -42680327.192 9
  12521751.892   -41354680.431 7 -32001856.337 9
 95  2 19 21 54 29.9720000  0  7  7 18 16 31  2 19 27
  15812938.317    -4267404.654 5  -3186559.964 3
  14345290.363   -51008044.156 6 -39549053.867 6
  16081346.153    -7269792.531 4   -501241.161 5
  14338447.363   -34886996.798 6 -26944905.076 6
  13578673.676    -3950419.835 7  -2895997.080 9
  12707962.199   -55281986.714 7 -42716166.608 8
  12500760.738   -41464989.527 7 -32087811.458 9
 95  2 19 21 54 59.9720000  0  7  7 18 16 31  2 19 27
  15779158.262    -4444889.259 5  -3324859.521 2
  14350906.504   -50978530.594 6 -39526056.341 6
  16073176.692    -7312702.805 3   -534677.753 5
  14338086.824   -34888891.372 6 -26946381.382 6
  13557983.598    -4059150.382 7  -2980722.139 8
  12699261.653   -55327715.181 7 -42751799.184 8
  12479809.332   -41575098.224 7 -32173610.412 9
 95  2 19 21 55 29.9720000  0  7  7 18 16 31  2 19 27
  15745401.973    -4622283.412 5  -3463088.532 2
  14356573.481   -50948769.148 6 -39502865.660 6
  16065089.551    -7355208.142 3   -567798.826 4
  14337821.168   -34890285.013 6 -26947467.326 6
  13537329.520    -4167669.851 7  -3065282.730 8
  12690611.543   -55373161.895 7 -42787212.207 8
  12458898.551   -41684976.755 7 -32259230.028 9
 95  2 19 21 55 59.9720000  0  7  7 18 16 31  2 19 27
  15711654.332    -4799631.975 4  -3601282.059 2
  14362274.363   -50918810.139 6 -39479521.033 6
  16057073.051    -7397343.881 3   -600631.874 4
  14337644.153   -34891215.857 6 -26948192.668 6
  13516714.356    -4276005.504 7  -3149700.097 8
  12682004.684   -55418399.146 7 -42822462.021 8
  12438025.528   -41794668.050 7 -32344703.744 9
 95  2 19 21 56 29.9720000  0  7  7 18 16 31  2 19 27
  15677916.856    -4976941.400 5  -3739445.100 3
  14368009.668   -50888651.867 6 -39456021.133 6
  16049116.723    -7439113.340 3   -633179.498 4
  14337553.535   -34891685.599 6
  13496137.926    -4384135.221 6  -3233956.975 8
  12673437.996   -55463418.186 7 -42857541.794 8
  12417188.426   -41904168.718 7 -32430028.923 9
 95  2 19 21 56 59.9720000  0  7  7 18 16 31  2 19 27
  15644179.387    -5154206.959 5  -3877573.944 3
  14373786.559   -50858289.321 6 -39432362.059 6
  16041252.395    -7480502.539 3   -665430.834 3
  14337553.528   -34891710.129 6
  13475606.543    -4492020.889 6  -3318023.698 8
  12664912.231   -55508212.334 7 -42892446.322 8
  12396391.629   -42013466.185 7 -32515195.767 9
 95  2 19 21 57 29.9720000  0  7  7 18 16 31  2 19 27
  15610454.903    -5331442.052 5  -4015679.084 2
  14379607.738   -50827720.228 6 -39408542.042 6
  16033445.129    -7521493.590 3   -697371.955 3
  14337626.465   -34891304.497 6
  13455123.981    -4599662.493 6  -3401900.241 8
  12656430.653   -55552788.773 7 -42927181.206 9
  12375633.004   -42122552.615 7 -32600198.173 9
 95  2 19 21 57 59.9720000  0  7  7 18 16 31  2 19 27
  15576730.746    -5508664.532 5  -4153774.374 2
  14385463.731   -50796957.416 6 -39384571.078 6
  16025718.543    -7562096.425 3   -729010.562 1
  14337782.528   -34890500.862 6 -26947635.588 6
  13434683.309    -4707076.791 6  -3485599.657 8
  12647991.559   -55597140.146 7 -42961740.715 9
  12354914.262   -42231424.233 7 -32685033.193 9
 95  2 19 21 58 29.9720000  0  7  7 18 16 31  2 19 27
  15543010.676    -5685852.648 5  -4291842.913 2
  14391355.512   -50765986.653 6 -39360438.070 6
  16018065.949    -7602301.047 3   -760338.858 1
  14338008.942   -34889293.696 6 -26946694.954 6
  13414290.340    -4814244.944 6  -3569107.281 8
  12639605.879   -55641205.962 7 -42996077.708 8
  12334240.442   -42340060.176 7 -32769684.560 9
 95  2 19 21 58 59.9720000  0  7  7 18 16 31  2 19 27
  15509297.082    -5863014.907 5  -4429891.289 4
  14397284.809   -50734822.623 6 -39336154.477 6
  16010493.692    -7642124.074 3   -791369.871 1
  14338313.903   -34887700.798 6 -26945453.739 6
  13393941.106    -4921198.127 6  -3652447.392 8
  12631272.129   -55685000.749 7 -43030203.520 8
  12313610.879   -42448468.611 7 -32854158.651 9
 95  2 19 21 59 29.9720000  0  7  7 18 16 31  2 19 27
  15475596.903    -6040120.651 5  -4567895.618 3
  14403256.660   -50703449.808 6 -39311708.185 6
  16002988.653    -7681564.990 3   -822103.047 1
  14338697.301   -34885698.468 6 -26943893.521 6
  13373630.020    -5027937.186 7  -3735620.652 9
  12622993.692   -55728507.487 7 -43064104.867 8
  12293028.387   -42556631.039 7 -32938441.037 9
 95  2 19 21 59 59.9720000  0  7  7 18 16 31  2 19 27
  15441907.910    -6217168.410 5  -4705854.736 3
  14409263.332   -50671883.299 6 -39287110.946 6
  15995548.121    -7720657.279 4   -852564.624 2
  14339150.160   -34883298.782 6 -26942023.651 6
  13353355.535    -5134471.391 7  -3818634.290 9
  12614761.535   -55771751.528 7 -43097801.524 8
  12272486.621   -42664576.484 7 -33022554.349 9
 95  2 19 22  0 29.9720000  0  7  7 18 16 31  2 19 27
  15408234.512    -6394141.324 5  -4843755.545 5
  14415306.934   -50640113.569 6 -39262355.366 6
  15988176.309    -7759390.673 3   -882746.505 2
  14339688.903   -34880479.537 6 -26939826.839 6
  13333125.715    -5240783.136 7  -3901474.580 9
  12606582.106   -55814740.494 7 -43131299.419 8
  12251988.582   -42772298.460 7 -33106493.531 9
 95  2 19 22  0 59.9720000  0  7  7 18 16 31  2 19 27
  15374564.059    -6571047.729 5  -4981604.512 5
  14421391.035   -50608151.691 6 -39237450.060 6
  15980866.887    -7797794.725 3   -912671.738 3
  14340303.199   -34877249.810 6 -26937310.207 6
  13312931.496    -5346904.852 7  -3984166.796 8
  12598443.012   -55857519.990 7 -43164634.097 9
  12231526.051   -42879817.470 7 -33190274.552 9
 95  2 19 22  1 29.9720000  0  7  7 18 16 31  2 19 27
  15340909.801    -6747858.367 4  -5119378.861 4
  14427512.567   -50575977.307 6 -39212379.166 6
  15973625.754    -7835845.258 4   -942321.543 3
  14341000.176   -34873584.416 6 -26934454.091 6
  13292775.371    -5452814.364 7  -4066693.655 8
  12590341.903   -55900079.661 7 -43197797.482 9
  12211106.254   -42987133.925 7 -33273897.743 9
 95  2 19 22  1 59.9720000  0  7  7 18 16 31  2 19 27
  15307287.207    -6924561.467 4  -5257069.379 4
  14433672.121   -50543583.276 6 -39187137.113 6
  15966456.848    -7873506.145 4   -971667.710 4
  14341785.348   -34869464.593 6 -26931243.870 6
  13272665.645    -5558488.095 7  -4149036.795 8
  12582291.160   -55942394.626 7 -43230770.194 9
  12190730.113   -43094223.852 7 -33357344.422 9
 95  2 19 22  2 29.9720000  0  7  7 18 16 31  2 19 27
  15273678.613    -7101163.579 4  -5394681.204 5
  14439879.199   -50510973.943 6 -39161727.293 5
  15959364.613    -7910765.713 3  -1000701.154 2
  14342653.481   -34864896.159 6 -26927684.065 6
  13252598.332    -5663940.493 7  -4231207.452 8
  12574288.262   -55984449.594 7 -43263540.298 9
  12170398.645   -43201071.107 7 -33440602.010 9
 95  2 19 22  2 59.9720000  0  7  7 18 16 31  2 19 27
  15240092.496    -7277654.380 4  -5532206.305 4
  14446129.238   -50478149.239 6 -39136149.659 6
  15952356.051    -7947625.510 3  -1029423.106 3
  14343607.567   -34859879.920 6 -26923775.338 6
  13232570.762    -5769173.725 7  -4313207.339 8
  12566337.793   -56026226.212 7 -43296093.515 9
  12150113.215   -43307674.957 7 -33523669.925 9
 95  2 19 22  3 29.9720000  0  7  7 18 16 31  2 19 27
  15206529.996    -7454043.428 4  -5669652.126 5
  14452409.363   -50445138.468 6 -39110427.047 6
  15945420.863    -7984088.883 3  -1057836.179 2
  14344642.160   -34854442.217 6 -26919538.218 6
  13212590.254    -5874184.648 7  -4395034.003 9
  12558442.082   -56067724.696 7 -43328430.008 9
  12129873.059   -43414025.888 7 -33606540.762 9
 95  2 19 22  3 59.9720000  0  7  7 18 16 31  2 19 27
  15172984.856    -7630332.655 5  -5807020.153 5
  14458727.496   -50411930.671 6 -39084550.897 6
  15938557.629    -8020162.100 3  -1085945.247 2
  14345754.301   -34848587.696 6 -26914976.274 6
  13192653.278    -5978969.588 7  -4476684.568 9
  12550601.942   -56108919.767 7 -43360530.072 9
  12109686.981   -43520098.195 7 -33689194.488 9
 95  2 19 22  4 29.9720000  0  7  7 18 16 31  2 19 27
  15139453.137    -7806539.478 5  -5944323.986 5
  14465079.793   -50378539.119 6 -39058531.577 5
  15931754.176    -8055888.844 3  -1113784.330 2
  14346946.012   -34842345.210 6 -26910112.039 6
  13172752.918    -6083548.094 7  -4558174.279 9
  12542817.824   -56149828.986 7 -43392407.394 9
  12089547.184   -43625918.452 7 -33771651.810 9
 95  2 19 22  4 59.9720000  0  7  7 18 16 31  2 19 27
  15105947.965    -7982633.557 5  -6081539.952 5
  14471474.278   -50344956.027 6 -39032362.980 5
  15925021.074    -8091260.232 3  -1141346.534 1
  14348211.442   -34835701.933 6 -26904935.489 6
  13152898.324    -6187875.046 6  -4639467.979 9
  12535090.942   -56190434.739 7 -43424048.254 9
  12069463.317   -43731467.769 7 -33853898.008 9
 95  2 19 22  5 29.9720000  0  7  7 18 16 31  2 19 27
  15072458.887    -8158607.746 5  -6218662.481 5
  14477899.356   -50311177.154 6 -39006041.847 5
  15918357.926    -8126265.796 3  -1168623.655 4
  14349549.379   -34828663.287 6 -26899450.840 6
  13133092.559    -6291942.810 6  -4720559.713 8
  12527421.863   -56230740.621 7 -43455455.441 9
  12049433.137   -43836741.206 7 -33935929.240 9
 95  2 19 22  5 59.9710000  0  7  7 18 16 31  2 19 27
  15038992.085    -8334473.066 5  -6355700.200 5
  14484367.062   -50277215.723 6 -38979578.454 5
  15911769.710    -8160918.414 3  -1195625.711 2
  14350959.663   -34821239.477 6 -26893666.097 6
  13113335.241    -6395777.258 7  -4801469.639 9
  12519804.163   -56270764.861 7 -43486643.178 8
  12029446.570   -43941769.047 7 -34017769.108 9
 95  2 19 22  6 29.9710000  0  7  7 18 16 31  2 19 27
  15005548.445    -8510246.690 5  -6492666.475 5
  14490855.929   -50243110.247 6 -38953002.808 5
  15905238.663    -8195227.742 3  -1222360.279 4
  14352444.382   -34813447.241 6 -26887594.261 6
  13093617.991    -6499397.768 7  -4882212.857 9
  12512236.452   -56310539.528 7 -43517636.428 9
  12009502.460   -44046564.379 7 -34099427.799 9
 95  2 19 22  6 59.9710000  0  7  7 18 16 31  2 19 27
  14972118.499    -8685910.136 5  -6629546.934 4
  14497377.530   -50208854.013 6 -38926309.698 5
  15898775.382    -8229177.022 3  -1248814.285 3
  14353999.827   -34805277.112 6 -26881227.945 6
  13073940.687    -6602804.371 7  -4962789.412 9
  12504714.155   -56350063.178 7 -43548434.085 9
  11989607.054   -44151114.055 7 -34180895.074 9
 95  2 19 22  7 29.9710000  0  7  7 18 16 31  2 19 27
  14938708.562    -8861468.612 5  -6766345.610 4
  14503926.335   -50174426.466 6 -38899483.100 5
  15892389.421    -8262765.223 3  -1274986.973 3
  14355625.718   -34796720.846 6 -26874560.758 6
  13054297.202    -6706014.870 7  -5043213.143 9
  12497242.773   -56389327.933 7 -43579030.005 9
  11969761.640   -44255414.955 7 -34262168.493 9
 95  2 19 22  7 59.9710000  0  7  7 18 16 31  2 19 27
  14905317.882    -9036933.652 5  -6903071.490 5
  14510508.890   -50139838.798 6 -38872531.738 6
  15886058.976    -8296016.954 4  -1300897.479 1
  14357330.655   -34787781.200 6 -26867594.830 6
  13034693.249    -6809036.674 7  -5123489.844 9
  12489820.241   -56428338.386 7 -43609427.770 8
  11949962.179   -44359467.336 7 -34343248.262 9
 95  2 19 22  8 29.9710000  0  7  7 18 16 31  2 19 27
  14871947.757    -9212282.327 5  -7039706.697 5
  14517121.382   -50105082.173 6 -38845448.719 6
  15879796.757    -8328929.089 3  -1326543.365 1
  14359103.851   -34778440.491 6 -26860316.398 6
  13015134.163    -6911840.589 7  -5203596.770 9
  12482448.609   -56467075.602 7 -43639612.620 9
  11930210.421   -44463252.684 7 -34424119.949 9
 95  2 19 22  8 59.9710000  0  7  7 18 16 31  2 19 27
  14838609.554    -9387493.550 5  -7176234.800 5
  14523769.835   -50070130.277 6 -38818213.544 5
  15873592.741    -8361490.346 4  -1351915.783 1
  14360960.695   -34768689.196 6 -26852718.017 6
  12995610.179    -7014416.077 7  -5283525.695 9
  12475133.085   -56505512.742 7 -43669563.652 9
  11910514.499   -44566764.499 7 -34504778.496 9
 95  2 19 22  9 29.9710000  0  7  7 18 16 31  2 19 27
  14805291.179    -9562581.517 5  -7312666.845 5
  14530453.648   -50035011.677 6 -38790848.467 5
  15867467.562    -8393711.603 3  -1377023.308 1
  14362891.296   -34758541.009 6 -26844810.380 6
  12976135.921    -7116772.385 7  -5363283.835 9
  12467876.554   -56543653.245 7 -43699283.530 9
  11890865.570   -44670006.504 7 -34585226.796 9
 95  2 19 22  9 59.9710000  0  7  7 18 16 31  2 19 27
  14772000.421    -9737534.850 5  -7448994.008 5
  14537162.882   -49999749.131 5 -38763371.213 5
  15861403.155    -8425594.226 4  -1401866.993 1
  14364896.312   -34748004.818 6 -26836600.402 6
  12956697.820    -7218904.347 7  -5442867.161 9
  12460672.390   -56581506.939 7 -43728779.928 9
  11871273.218   -44772975.931 7 -34665462.691 9
 95  2 19 22 10 29.9710000  0  7  7 18 16 31  2 19 27
  14738728.765    -9912355.911 5  -7585218.083 5
  14543901.320   -49964341.060 5 -38735780.576 5
  15855402.124    -8457132.979 4  -1426442.692 3
  14366972.984   -34737095.859 6 -26828099.963 6
  12937307.991    -7320819.825 7  -5522281.792 9
  12453524.163   -56619073.364 7 -43758052.475 9
  11851730.202   -44875663.557 7 -34745479.008 9
 95  2 19 22 10 59.9710000  0  7  7 18 16 31  2 19 27
  14705491.398   -10087038.763 5  -7721334.474 5
  14550669.749   -49928773.987 5 -38708066.039 5
  15849465.038    -8488323.198 4  -1450746.820 2
  14369116.062   -34725818.735 6 -26819312.654 6
  12917948.937    -7422523.339 7  -5601531.261 9
  12446431.148   -56656345.927 7 -43787096.046 9
  11832250.945   -44978046.215 7 -34825257.676 9
 95  2 19 22 11 29.9710000  0  7  7 18 16 31  2 19 27
  14672268.999   -10261619.944 5  -7857371.642 5
  14557464.366   -49893072.792 5 -38680246.985 5
  15843590.976    -8519196.562 4  -1474804.014 1
  14371333.163   -34714196.423 6 -26810256.345 6
  12898637.445    -7524032.711 7  -5680629.444 9
  12439386.913   -56693372.948 7 -43815948.278 9
  11812816.179   -45080152.705 7 -34904821.154 9
 95  2 19 22 11 59.9710000  0  7  7 18 16 31  2 19 27
  14639073.304   -10436072.627 5  -7993308.677 5
  14564291.710   -49857203.124 5 -38652296.651 5
  15837779.866    -8549736.602 3  -1498601.472 2
  14373611.741   -34702210.853 6 -26800917.006 6
  12879358.632    -7625327.588 7  -5759560.488 9
  12432388.273   -56730146.907 7 -43844603.321 9
  11793446.515   -45181960.173 7 -34984151.641 9
 95  2 19 22 12 29.9710000  0  7  7 18 16 31  2 19 27
  14605898.296   -10610405.988 5  -8129152.723 5
  14571149.640   -49821168.292 6 -38624217.626 5
  15832023.218    -8579948.555 3  -1522143.325 1
  14375962.101   -34689868.247 6 -26791299.451 6
  12860120.452    -7726427.589 7  -5838339.681 9
  12425437.515   -56766670.346 7 -43873063.159 9
  11774127.085   -45283488.673 7 -35063264.744 9
 95  2 19 22 12 59.9710000  0  7  7 18 16 31  2 19 27
  14572751.827   -10784596.904 5  -8264885.770 5
  14578036.749   -49784959.976 6 -38596003.427 5
  15826347.015    -8609819.140 3  -1545419.174 2
  14378381.085   -34677140.698 6 -26781381.930 6
  12840920.937    -7827318.872 7  -5916956.237 9
  12418537.491   -56802935.112 7 -43901321.433 9
  11754854.241   -45384750.769 7 -35142170.263 9
 95  2 19 22 13 29.9710000  0  6  7 18 31  2 19 27
  14539627.991   -10958657.213 5  -8400517.029 5
  14584957.976   -49748595.624 6 -38567667.639 5
  14380875.312   -34664030.530 6 -26771166.270 6
  12821762.304    -7928009.534 7  -5995416.468 9
  12411682.382   -56838949.713 7 -43929384.770 9
  11735628.976   -45485768.222 7 -35220885.141 9
 95  2 19 22 13 59.9710000  0  6  7 18 31  2 19 27
  14506527.718   -11132571.047 5  -8536034.163 5
  14591902.640   -49712089.882 5 -38539221.683 5
  14383445.554   -34650542.648 6 -26760656.273 5
  12802638.179    -8028503.324 7  -6073723.291 9
  12404881.874   -56874680.564 7 -43957226.995 9
  11716454.570   -45586539.819 7 -35299408.448 9
 95  2 19 22 14 29.9710000  0  6  7 18 31  2 19 27
  14473460.796   -11306349.153 5  -8671445.549 5
  14598870.929   -49675474.276 5 -38510690.104 5
  14386079.273   -34636692.161 6 -26749863.718 5
  12783551.234    -8128798.704 7  -6151875.514 9
  12398138.648   -56910121.758 7 -43984843.513 9
  11697324.226   -45687080.755 7 -35377752.017 9
 95  2 19 22 14 59.9710000  0  6  7 18 31  2 19 27
  14440420.976   -11479963.297 5  -8806729.178 5
  14605862.101   -49638731.068 5 -38482059.093 5
  14388788.538   -34622460.440 6 -26738774.089 5
  12764509.835    -8228858.898 7
  12391455.874   -56945243.614 7 -44012211.200 9
  11678244.843   -45787351.344 7
 95  2 19 22 15 29.9710000  0  6  7 18 31  2 19 27
  14407419.890   -11653400.434 5  -8941874.863 5
  14612882.335   -49601853.439 5 -38453323.345 5
  14391564.734   -34607856.499 6 -26727394.434 5
  12745516.007    -8328675.241 7
  12384836.429   -56980021.896 7 -44039311.168 9
  11659223.413   -45887314.448 7
 95  2 19 22 15 59.9710000  0  6  7 18 31  2 19 27
  14374450.249   -11826658.147 5  -9076880.745 5
  14619920.476   -49564856.198 5 -38424494.362 5
  14394411.788   -34592911.262 6 -26715748.845 5
  12726563.077    -8428263.620 7
  12378282.780   -57014467.209 7 -44066151.688 9
  11640260.077   -45986970.222 7
 95  2 19 22 16 29.9710000  0  6  7 18 31  2 19 27
  14341519.023   -11999712.895 5  -9211728.478 5
  14626994.015   -49527703.376 5 -38395544.167 5
  14397322.765   -34577601.264 6 -26703819.019 5
  12707658.991    -8527612.592 7
  12371792.155   -57048579.293 7 -44092732.538 9
  11621360.249   -46086280.898 7
 95  2 19 22 16 59.9700000  0  6  7 18 31  2 19 27
  14308636.408   -12172506.293 5  -9346372.532 5
  14634104.526   -49490328.994 5 -38366421.338 5
  14400314.908   -34561888.039 6 -26691574.964 5
  12688804.510    -8626692.071 7  -6539844.280 9
  12365371.299   -57082319.633 7 -44119023.715 9
  11602538.643   -46185191.070 7 -35765889.875 9
 95  2 19 22 17 29.9700000  0  6  7 18 31  2 19 27
  14275798.994   -12345081.520 5  -9480846.619 5
  14641252.377   -49452763.530 5 -38337149.611 5
  14403375.143   -34545808.704 6 -26679045.669 5
  12669994.932    -8725548.330 7  -6616875.110 9
  12359013.026   -57115729.348 7 -44145057.269 9
  11583784.307   -46283741.100 7 -35842682.094 9
 95  2 19 22 17 59.9700000  0  6  7 18 31  2 19 27
  14242997.393   -12517445.345 5  -9615155.966 5
  14648435.104   -49415019.670 5 -38307738.877 5
  14406503.002   -34529362.487 5 -26666230.497 5
  12651228.252    -8824172.698 7  -6693725.252 9
  12352714.682   -57148830.091 7 -44170850.059 9
  11565092.033   -46381942.851 7 -35919202.924 9
 95  2 19 22 18 29.9700000  0  6  7 18 31  2 19 27
  14210238.487   -12689618.870 5  -9749317.046 5
  14655646.018   -49377114.711 5 -38278202.624 5
  14409701.674   -34512560.679 6 -26653138.211 6
  12632501.494    -8922569.293 7  -6770397.903 9
  12346471.330   -57181638.830 7 -44196415.315 9
  11546471.557   -46479814.576 7 -35995466.580 9
 95  2 19 22 18 59.9700000  0  6  7 18 31  2 19 27
  14177505.674   -12861608.333 5  -9883334.712 5
  14662886.276   -49339077.167 5 -38248563.045 5
  14412962.651   -34495428.596 6 -26639788.584 5
  12613823.854    -9020727.511 7  -6846884.806 9
  12340283.502   -57214153.804 7 -44221751.666 9
  11527908.385   -46577362.824 7 -36071478.187 9
 95  2 19 22 19 29.9700000  0  6  7 18 31  2 19 27
  14144813.807   -13033405.793 5 -10017202.773 5
  14670149.463   -49300917.644 5 -38218828.441 5
  14416285.737   -34477953.507 6 -26626171.690 5
  12595195.854    -9118619.572 7  -6923164.308 9
  12334154.455   -57246363.700 7 -44246850.293 9
  11509410.197   -46674573.793 7 -36147226.983 9
 95  2 19 22 19 59.9700000  0  6  7 18 31  2 19 27
  14112156.541   -13205015.990 5 -10150924.914 6
  14677431.010   -49262642.265 5 -38189003.542 5
  14419680.096   -34460131.938 6 -26612284.801 6
  12576616.174    -9216241.501 7  -6999233.323 9
  12328084.822   -57278265.909 7 -44271709.165 9
  11490975.783   -46771453.025 7 -36222717.283 9
 95  2 19 22 20 29.9700000  0  7  7 18 31  2 15 19 27
  14079538.408   -13376422.941 5 -10284488.666 5
  14684739.088   -49224236.767 5 -38159077.253 5
  14423140.377   -34441943.054 6 -26598111.683 5
  12558093.822    -9313590.207 7  -7075089.430 9
  15869345.791          -0.57513
  12322077.291   -57309836.517 7 -44296309.642 9
  11472604.096   -46867985.764 7 -36297937.588 9
 95  2 19 22 20 59.9700000  0  8  7 18 16 31  2 15 19 27
  14046962.729   -13547622.812 5 -10417891.058 5
  14692071.213   -49185688.465 5 -38129039.697 4
  15743924.018          -0.24912
  14426674.908   -34423368.506 6 -26583638.066 5
  12539622.135    -9410666.334 7  -7150733.133 9
  15843501.283     -135800.201 4
  12316133.307   -57341061.381 7 -44320640.712 9
  11454302.697   -46964172.542 7 -36372888.310 9
 95  2 19 22 21 29.9700000  0  8  7 18 16 31  2 15 19 27
  14014421.416   -13718616.349 6 -10551132.649 5
  14699441.346   -49146980.310 5 -38098877.568 5
  15739300.893      -24243.775 2        -0.44311
  14430285.533   -34404378.892 6 -26568841.013 5
  12521195.799    -9507485.593 7  -7226176.695 9
  15817699.596     -271391.348 4        -0.02115
  12310256.955   -57371944.208 7 -44344705.265 9
  11436061.479   -47060024.642 7 -36447578.238 9
 95  2 19 22 21 59.9700000  0  8  7 18 16 31  2 15 19 27
  13981923.479   -13889399.550 6 -10684210.363 5
  14706835.580   -49108118.714 5 -38068595.888 4
  15734753.252      -48195.300 2    -18664.007 1
  14433977.815   -34384980.548 5 -26553725.451 5
  12502820.424    -9604064.065 7  -7301432.620 9
  15791936.190     -406785.277 3   -105501.671 5
  12304441.643   -57402500.348 7 -44368515.249 8
  11417881.135   -47155554.976 7 -36522017.440 9
 95  2 19 22 22 29.9700000  0  8  7 18 16 31  2 15 19 27
  13949473.080   -14059922.472 5 -10817085.237 6
  14714269.674   -49069067.285 5 -38038166.280 4
  15730260.143      -71824.382 2    -37076.352 2
  14437750.705   -34365160.269 5 -26538281.116 5
  12484493.502    -9700371.380 7  -7376477.261 9
  15766217.854     -541945.827 3   -210821.466 3
  12298695.401   -57432701.018 7 -44392048.255 8
  11399772.612   -47250723.656 7 -36596174.836 9
 95  2 19 22 22 59.9700000  0  8  7 18 16 31  2 15 19 27
  13917076.971   -14230168.423 5 -10949744.314 6
  14721735.479   -49029835.825 5 -38007596.369 3
  15725820.635      -95123.096 2    -55231.221 2
  14441597.166   -34344943.235 5 -26522527.624 5
  12466214.838    -9796410.452 7  -7451312.874 9
  15740540.487     -676868.010 3   -315955.537 3
  12293014.533   -57462554.794 7 -44415310.947 9
  11381733.612   -47345529.920 7 -36670049.830 9
 95  2 19 22 23 29.9700000  0  8  7 18 16 31  2 15 19 27
  13884734.799   -14400120.772 5 -11082174.609 6
  14729231.057   -48990437.034 5 -37976896.078 5
  15721459.994     -118067.485 2    -73110.027 1
  14445516.057   -34324350.193 5 -26506481.138 5
  12447988.916    -9892187.113 7  -7525944.015 9
  15714907.213     -811546.117 3   -420899.412 2
  12287398.112   -57492072.682 7 -44438311.914 9
  11363764.776   -47439954.240 7 -36743627.209 9
 95  2 19 22 23 59.9700000  0  8  7 18 16 31  2 15 19 27
  13852456.768   -14569743.423 5 -11214347.983 6
  14736765.596   -48950847.237 5 -37946046.982 5
  15717166.987     -140626.610 3    -90688.623 2
  14449505.916   -34303386.012 5 -26490145.456 5
  12429819.018    -9987664.860 7  -7600342.237 9
  15689340.026     -945943.262 3   -525624.319 2
  12281851.260   -57521213.471 7 -44461019.030 9
  11345877.088   -47533957.308 7 -36816876.338 9
 95  2 19 22 24 29.9700000  0  8  7 18 16 31  2 15 19 27
  13820247.244   -14739002.316 5 -11346237.937 6
  14744347.838   -48911023.011 5 -37915015.203 4
  15712955.666     -162757.398 3   -107933.488 1
  14453572.330   -34282023.515 5 -26473499.403 5
  12411713.151   -10082816.648 7  -7674486.470 9
  15663821.237    -1080008.917 2   -630090.977 3
  12276388.862   -57549921.421 7 -44483388.880 8
  11328076.760   -47627498.401 7 -36889765.487 9
 95  2 19 22 24 59.9700000  0  8  7 18 16 31  2 15 19 27
  13788087.088   -14908011.723 5 -11477933.477 6
  14751953.791   -48871071.306 5 -37883884.087 5
  15708809.737     -184559.036 3   -124921.815 2
  14457693.721   -34260354.546 5 -26456614.549 5
  12393645.260   -10177761.251 7  -7748469.259 9
  15638356.104    -1213844.305 2   -734378.120 3
  12270989.518   -57578299.062 7 -44505501.356 8
  11310343.424   -47720685.453 7 -36962378.761 9
 95  2 19 22 25 29.9700000  0  8  7 18 16 31  2 15 19 27
  13755963.174   -15076823.039 6 -11609474.660 6
  14759567.947   -48831023.828 5 -37852678.340 5
  15704708.393     -206076.581 2   -141688.827 2
  14461872.885   -34238404.043 5 -26439510.314 5
  12375611.924   -10272536.776 7  -7822320.306 9
  15612918.697    -1347483.492 2   -838512.391 4
  12265646.455   -57606374.875 7 -44527378.635 8
  11292667.822   -47813558.383 7 -37034747.267 9
 95  2 19 22 25 59.9700000  0  8  7 18 16 31  2 15 19 27
  13723878.822   -15245421.872 6 -11740850.295 6
  14767207.901   -48790868.747 5 -37821388.724 4
  15700670.737     -227306.242 2   -158231.502 2
  14466109.658   -34216141.207 5 -26422162.705 5
  12357617.299   -10367112.022 7  -7896015.288 9
  15587533.455    -1480902.652 3   -942475.232 5
  12260365.862   -57634125.809 7 -44549002.749 8
  11275053.971   -47906118.971 7 -37106872.392 9
 95  2 19 22 26 29.9700000  0  8  7 18 16 31  2 15 19 27
  13691837.572   -15413810.478 6 -11872062.099 6
  14774863.385   -48750630.789 5 -37790034.552 5
  15696680.026     -248258.380 2   -174557.948 1
  14470407.299   -34193557.415 5 -26404565.002 6
  12339653.682   -10461492.058 7  -7969558.160 9
  15562186.737    -1614110.058 4  -1046273.093 4
  12255142.572   -57661574.421 7 -44570391.318 8
  11257501.416   -47998372.282 7 -37178758.090 9
 95  2 19 22 26 59.9700000  0  8  7 18 16 31  2 15 19 27
  13659833.565   -15581994.328 6 -12003114.363 6
  14782540.244   -48710325.948 5 -37758628.273 5
  15692744.572     -268941.489 2   -190674.734 1
  14474764.596   -34170655.796 5 -26386719.651 5
  12321737.346   -10555657.728 7  -8042933.996 9
  15536879.877    -1747108.757 5  -1149908.329 4
  12249974.135   -57688731.687 7 -44591552.837 9
  11240004.197   -48090304.121 7 -37250393.284 9
 95  2 19 22 27 29.9700000  0  8  7 18 16 31  2 15 19 27
  13627872.690   -15749948.029 6 -12133987.281 6
  14790218.291   -48669945.042 5 -37727162.712 3
  15688860.557     -289345.475 2   -206574.004 1
  14479182.940   -34147429.785 5 -26368621.527 5
  12303864.901   -10649569.492 7  -8116111.977 9
  15511613.721    -1879878.320 5  -1253365.023 3
  12244867.643   -57715576.954 7 -44612471.251 8
  11222582.072   -48181881.742 7 -37321752.468 9
 95  2 19 22 27 59.9690000  0  8  7 18 16 31  2 15 19 27
  13595957.552   -15917656.410 6 -12264669.055 6
  14797923.372   -48629493.470 5 -37695642.078 5
  15685035.099     -309477.160 3   -222261.087 1
  14483663.052   -34123898.062 5 -26350285.191 5
  12286046.068   -10743210.140 7  -8189078.694 9
  15486391.310    -2012410.825 4  -1356637.006 3
  12239816.872   -57742109.206 7 -44633145.760 8
  11205221.177   -48273082.273 7 -37392817.814 9
 95  2 19 22 28 29.9690000  0  8  7 18 16 31  2 15 19 27
  13564088.825   -16085126.955 6 -12395165.509 6
  14805640.380   -48588941.796 5 -37664043.468 3
  15681248.739     -329330.237 3   -237731.093 1
  14488195.185   -34100062.563 5 -26331712.128 6
  12268275.529   -10836593.824 7  -8261845.193 9
  15461216.591    -2144704.592 3  -1459722.941 2
  12234831.966   -57768309.404 7 -44653561.518 8
  11187947.958   -48363872.017 7 -37463563.062 9
 95  2 19 22 28 59.9690000  0  8  7 18 16 31  2 15 19 27
  13532257.286   -16252392.079 6 -12525501.888 6
  14813365.146   -48548311.545 5 -37632383.627 3
  15677522.630     -348943.287 3   -253014.084 1
  14492787.224   -34075958.418 5 -26312929.746 5
  12250541.919   -10929766.936 7  -8334447.600 9
  15436085.075    -2276786.069 3  -1562643.443 3
  12229905.958   -57794201.875 7 -44673737.490 8
  11170743.247   -48454287.802 7 -37534016.905 9
 95  2 19 22 29 29.9690000  0  8  7 18 16 31  2 15 19 27
  13500472.341   -16419422.420 6 -12655655.327 6
  14821117.513   -48507574.194 5 -37600640.327 2
  15673837.224     -368314.278 2   -268108.412 1
  14497424.107   -34051560.850 5 -26293918.761 5
  12232851.693   -11022734.398 7  -8406889.770 9
  15410993.911    -2408633.868 4  -1665381.850 3
  12225041.068   -57819764.230 7 -44693656.226 9
  11153610.857   -48544321.811 7 -37604173.263 9
 95  2 19 22 29 59.9690000  0  8  7 18 16 31  2 15 19 27
  13468727.513   -16586244.053 6 -12785646.127 6
  14828888.989   -48466754.510 5 -37568832.861 2
  15670203.497     -387456.192 2   -283024.255 1
  14502121.646   -34026883.342 5 -26274689.592 5
  12215192.005   -11115539.706 7  -8479205.579 9
  15385945.005    -2540263.931 4  -1767950.636 3
  12220235.724   -57845010.834 7 -44713328.918 9
  11136545.333   -48634001.193 7 -37674053.293 9
